Wetterdaten: Freitag, 01.03.2024
Datum Zeit Temp. 2m Temp +5 cm Feuchte A. Luftdruck Regen Wind Richtung Richtung Sonnenschein UV Solar Taupunkt Windchill Windben
01.03.2024 00:00 5,2 C 4,4 C 80 % 1007,0 hPa 0,0 l/m 16,1 km/h (3 Bft) S-SO 157 0 min 0,0 UV-I 0 W/m 2,0 C -1,2 C 20,9 km/h (4 Bft)
01.03.2024 00:01 5,2 C 4,4 C 80 % 1006,9 hPa 0,0 l/m 11,3 km/h (2 Bft) S 180 0 min 0,0 UV-I 0 W/m 2,0 C 1,4 C 19,3 km/h (3 Bft)
01.03.2024 00:02 5,2 C 4,4 C 80 % 1006,9 hPa 0,0 l/m 12,9 km/h (3 Bft) S-SO 157 0 min 0,0 UV-I 0 W/m 2,0 C 0,5 C 17,7 km/h (3 Bft)
01.03.2024 00:03 5,2 C 4,4 C 80 % 1006,9 hPa 0,0 l/m 19,3 km/h (3 Bft) SO 135 0 min 0,0 UV-I 0 W/m 2,0 C -2,6 C 24,1 km/h (4 Bft)
01.03.2024 00:04 5,2 C 4,4 C 80 % 1006,8 hPa 0,0 l/m 16,1 km/h (3 Bft) SO 135 0 min 0,0 UV-I 0 W/m 2,0 C -1,2 C 20,9 km/h (4 Bft)
01.03.2024 00:05 5,2 C 4,4 C 80 % 1006,9 hPa 0,0 l/m 14,5 km/h (3 Bft) SO 135 0 min 0,0 UV-I 0 W/m 2,0 C -0,4 C 19,3 km/h (3 Bft)
01.03.2024 00:06 5,2 C 4,4 C 80 % 1006,8 hPa 0,0 l/m 14,5 km/h (3 Bft) S-SO 157 0 min 0,0 UV-I 0 W/m 2,0 C -0,4 C 19,3 km/h (3 Bft)
01.03.2024 00:07 5,2 C 4,4 C 80 % 1006,9 hPa 0,0 l/m 17,7 km/h (3 Bft) S-SO 157 0 min 0,0 UV-I 0 W/m 2,0 C -2,0 C 22,5 km/h (4 Bft)
01.03.2024 00:08 5,2 C 4,4 C 80 % 1006,8 hPa 0,0 l/m 19,3 km/h (3 Bft) SO 135 0 min 0,0 UV-I 0 W/m 2,0 C -2,6 C 24,1 km/h (4 Bft)
01.03.2024 00:09 5,2 C 4,4 C 80 % 1006,8 hPa 0,0 l/m 12,9 km/h (3 Bft) SO 135 0 min 0,0 UV-I 0 W/m 2,0 C 0,5 C 19,3 km/h (3 Bft)
01.03.2024 00:10 5,2 C 4,4 C 80 % 1006,8 hPa 0,0 l/m 16,1 km/h (3 Bft) S-SO 157 0 min 0,0 UV-I 0 W/m 2,0 C -1,2 C 25,7 km/h (4 Bft)
01.03.2024 00:11 5,2 C 4,4 C 80 % 1006,8 hPa 0,0 l/m 16,1 km/h (3 Bft) SO 135 0 min 0,0 UV-I 0 W/m 2,0 C -1,2 C 24,1 km/h (4 Bft)
01.03.2024 00:12 5,3 C 4,4 C 80 % 1006,8 hPa 0,0 l/m 16,1 km/h (3 Bft) SO 135 0 min 0,0 UV-I 0 W/m 2,1 C -1,1 C 20,9 km/h (4 Bft)
01.03.2024 00:13 5,3 C 4,4 C 80 % 1006,8 hPa 0,0 l/m 16,1 km/h (3 Bft) SO 135 0 min 0,0 UV-I 0 W/m 2,1 C -1,1 C 20,9 km/h (4 Bft)
01.03.2024 00:14 5,3 C 4,4 C 80 % 1006,8 hPa 0,0 l/m 17,7 km/h (3 Bft) SO 135 0 min 0,0 UV-I 0 W/m 2,1 C -1,8 C 25,7 km/h (4 Bft)
01.03.2024 00:15 5,3 C 4,4 C 80 % 1006,7 hPa 0,0 l/m 20,9 km/h (4 Bft) SO 135 0 min 0,0 UV-I 0 W/m 2,1 C -3,1 C 27,4 km/h (4 Bft)
01.03.2024 00:16 5,3 C 4,4 C 80 % 1006,8 hPa 0,0 l/m 16,1 km/h (3 Bft) SO 135 0 min 0,0 UV-I 0 W/m 2,1 C -1,1 C 27,4 km/h (4 Bft)
01.03.2024 00:17 5,3 C 4,4 C 80 % 1006,8 hPa 0,0 l/m 19,3 km/h (3 Bft) SO 135 0 min 0,0 UV-I 0 W/m 2,1 C -2,5 C 27,4 km/h (4 Bft)
01.03.2024 00:18 5,3 C 4,4 C 80 % 1006,7 hPa 0,0 l/m 17,7 km/h (3 Bft) SO 135 0 min 0,0 UV-I 0 W/m 2,1 C -1,8 C 22,5 km/h (4 Bft)
01.03.2024 00:19 5,3 C 4,4 C 80 % 1006,7 hPa 0,0 l/m 14,5 km/h (3 Bft) SO 135 0 min 0,0 UV-I 0 W/m 2,1 C -0,3 C 20,9 km/h (4 Bft)
01.03.2024 00:20 5,3 C 4,4 C 80 % 1006,6 hPa 0,0 l/m 11,3 km/h (2 Bft) SO 135 0 min 0,0 UV-I 0 W/m 2,1 C 1,5 C 17,7 km/h (3 Bft)
01.03.2024 00:21 5,2 C 4,4 C 80 % 1006,6 hPa 0,0 l/m 12,9 km/h (3 Bft) S-SO 157 0 min 0,0 UV-I 0 W/m 2,0 C 0,5 C 17,7 km/h (3 Bft)
01.03.2024 00:22 5,2 C 4,4 C 80 % 1006,7 hPa 0,0 l/m 12,9 km/h (3 Bft) SO 135 0 min 0,0 UV-I 0 W/m 2,0 C 0,5 C 16,1 km/h (3 Bft)
01.03.2024 00:23 5,2 C 4,4 C 80 % 1006,6 hPa 0,0 l/m 16,1 km/h (3 Bft) S-SO 157 0 min 0,0 UV-I 0 W/m 2,0 C -1,2 C 24,1 km/h (4 Bft)
01.03.2024 00:24 5,2 C 4,4 C 80 % 1006,6 hPa 0,0 l/m 16,1 km/h (3 Bft) S-SO 157 0 min 0,0 UV-I 0 W/m 2,0 C -1,2 C 22,5 km/h (4 Bft)
01.03.2024 00:25 5,2 C 4,4 C 80 % 1006,6 hPa 0,0 l/m 12,9 km/h (3 Bft) SO 135 0 min 0,0 UV-I 0 W/m 2,0 C 0,5 C 19,3 km/h (3 Bft)
01.03.2024 00:26 5,1 C 4,4 C 80 % 1006,7 hPa 0,0 l/m 12,9 km/h (3 Bft) SO 135 0 min 0,0 UV-I 0 W/m 1,9 C 0,3 C 17,7 km/h (3 Bft)
01.03.2024 00:27 5,1 C 4,4 C 80 % 1006,6 hPa 0,0 l/m 14,5 km/h (3 Bft) SO 135 0 min 0,0 UV-I 0 W/m 1,9 C -0,5 C 20,9 km/h (4 Bft)
01.03.2024 00:28 5,1 C 4,4 C 80 % 1006,7 hPa 0,0 l/m 14,5 km/h (3 Bft) SO 135 0 min 0,0 UV-I 0 W/m 1,9 C -0,5 C 22,5 km/h (4 Bft)
01.03.2024 00:29 5,1 C 4,4 C 80 % 1006,6 hPa 0,0 l/m 12,9 km/h (3 Bft) SO 135 0 min 0,0 UV-I 0 W/m 1,9 C 0,3 C 22,5 km/h (4 Bft)
01.03.2024 00:30 5,1 C 4,4 C 80 % 1006,6 hPa 0,0 l/m 11,3 km/h (2 Bft) S 180 0 min 0,0 UV-I 0 W/m 1,9 C 1,3 C 17,7 km/h (3 Bft)
01.03.2024 00:31 5,1 C 4,4 C 80 % 1006,6 hPa 0,0 l/m 12,9 km/h (3 Bft) S-SO 157 0 min 0,0 UV-I 0 W/m 1,9 C 0,3 C 20,9 km/h (4 Bft)
01.03.2024 00:32 5,1 C 4,4 C 80 % 1006,6 hPa 0,0 l/m 9,7 km/h (2 Bft) SO 135 0 min 0,0 UV-I 0 W/m 1,9 C 2,4 C 14,5 km/h (3 Bft)
01.03.2024 00:33 5,1 C 4,4 C 80 % 1006,5 hPa 0,0 l/m 6,4 km/h (2 Bft) S-SO 157 0 min 0,0 UV-I 0 W/m 1,9 C 5,1 C 8,0 km/h (2 Bft)
01.03.2024 00:34 5,1 C 4,4 C 80 % 1006,6 hPa 0,0 l/m 12,9 km/h (3 Bft) S-SO 157 0 min 0,0 UV-I 0 W/m 1,9 C 0,3 C 16,1 km/h (3 Bft)
01.03.2024 00:35 5,1 C 4,4 C 80 % 1006,5 hPa 0,0 l/m 9,7 km/h (2 Bft) S-SO 157 0 min 0,0 UV-I 0 W/m 1,9 C 2,4 C 12,9 km/h (3 Bft)
01.03.2024 00:36 5,1 C 4,4 C 80 % 1006,5 hPa 0,0 l/m 8,0 km/h (2 Bft) SO 135 0 min 0,0 UV-I 0 W/m 1,9 C 3,7 C 12,9 km/h (3 Bft)
01.03.2024 00:37 5,1 C 4,4 C 80 % 1006,6 hPa 0,0 l/m 8,0 km/h (2 Bft) S-SO 157 0 min 0,0 UV-I 0 W/m 1,9 C 3,7 C 11,3 km/h (2 Bft)
01.03.2024 00:38 5,1 C 4,4 C 80 % 1006,5 hPa 0,0 l/m 8,0 km/h (2 Bft) S-SO 157 0 min 0,0 UV-I 0 W/m 1,9 C 3,7 C 11,3 km/h (2 Bft)
01.03.2024 00:39 5,1 C 4,4 C 80 % 1006,5 hPa 0,0 l/m 9,7 km/h (2 Bft) S 180 0 min 0,0 UV-I 0 W/m 1,9 C 2,4 C 14,5 km/h (3 Bft)
01.03.2024 00:40 5,1 C 4,4 C 80 % 1006,5 hPa 0,0 l/m 9,7 km/h (2 Bft) S-SO 157 0 min 0,0 UV-I 0 W/m 1,9 C 2,4 C 16,1 km/h (3 Bft)
01.03.2024 00:41 5,1 C 4,4 C 80 % 1006,5 hPa 0,0 l/m 8,0 km/h (2 Bft) S-SO 157 0 min 0,0 UV-I 0 W/m 1,9 C 3,7 C 11,3 km/h (2 Bft)
01.03.2024 00:42 5,1 C 4,4 C 80 % 1006,5 hPa 0,0 l/m 9,7 km/h (2 Bft) S-SO 157 0 min 0,0 UV-I 0 W/m 1,9 C 2,4 C 12,9 km/h (3 Bft)
01.03.2024 00:43 5,1 C 4,4 C 80 % 1006,4 hPa 0,0 l/m 9,7 km/h (2 Bft) S-SO 157 0 min 0,0 UV-I 0 W/m 1,9 C 2,4 C 14,5 km/h (3 Bft)
01.03.2024 00:44 5,1 C 4,4 C 80 % 1006,5 hPa 0,0 l/m 8,0 km/h (2 Bft) S 180 0 min 0,0 UV-I 0 W/m 1,9 C 3,7 C 12,9 km/h (3 Bft)
01.03.2024 00:45 5,1 C 4,4 C 80 % 1006,5 hPa 0,0 l/m 9,7 km/h (2 Bft) S-SO 157 0 min 0,0 UV-I 0 W/m 1,9 C 2,4 C 12,9 km/h (3 Bft)
01.03.2024 00:46 5,2 C 4,4 C 80 % 1006,4 hPa 0,0 l/m 9,7 km/h (2 Bft) S 180 0 min 0,0 UV-I 0 W/m 2,0 C 2,5 C 14,5 km/h (3 Bft)
01.03.2024 00:47 5,2 C 4,4 C 80 % 1006,4 hPa 0,0 l/m 12,9 km/h (3 Bft) S-SO 157 0 min 0,0 UV-I 0 W/m 2,0 C 0,5 C 19,3 km/h (3 Bft)
01.03.2024 00:48 5,2 C 4,4 C 80 % 1006,5 hPa 0,0 l/m 11,3 km/h (2 Bft) S-SO 157 0 min 0,0 UV-I 0 W/m 2,0 C 1,4 C 19,3 km/h (3 Bft)
01.03.2024 00:49 5,2 C 5,0 C 80 % 1006,4 hPa 0,0 l/m 9,7 km/h (2 Bft) S 180 0 min 0,0 UV-I 0 W/m 2,0 C 2,5 C 12,9 km/h (3 Bft)
01.03.2024 00:50 5,3 C 5,0 C 80 % 1006,5 hPa 0,0 l/m 11,3 km/h (2 Bft) S 180 0 min 0,0 UV-I 0 W/m 2,1 C 1,5 C 17,7 km/h (3 Bft)
01.03.2024 00:51 5,3 C 5,0 C 80 % 1006,5 hPa 0,0 l/m 17,7 km/h (3 Bft) S 180 0 min 0,0 UV-I 0 W/m 2,1 C -1,8 C 24,1 km/h (4 Bft)
01.03.2024 00:52 5,3 C 5,0 C 80 % 1006,5 hPa 0,0 l/m 11,3 km/h (2 Bft) S 180 0 min 0,0 UV-I 0 W/m 2,1 C 1,5 C 19,3 km/h (3 Bft)
01.03.2024 00:53 5,3 C 5,0 C 80 % 1006,6 hPa 0,0 l/m 12,9 km/h (3 Bft) S 180 0 min 0,0 UV-I 0 W/m 2,1 C 0,6 C 17,7 km/h (3 Bft)
01.03.2024 00:54 5,3 C 4,4 C 80 % 1006,5 hPa 0,0 l/m 14,5 km/h (3 Bft) S 180 0 min 0,0 UV-I 0 W/m 2,1 C -0,3 C 24,1 km/h (4 Bft)
01.03.2024 00:55 5,3 C 4,4 C 80 % 1006,5 hPa 0,0 l/m 14,5 km/h (3 Bft) S-SO 157 0 min 0,0 UV-I 0 W/m 2,1 C -0,3 C 20,9 km/h (4 Bft)
01.03.2024 00:56 5,4 C 4,4 C 80 % 1006,5 hPa 0,0 l/m 14,5 km/h (3 Bft) S 180 0 min 0,0 UV-I 0 W/m 2,2 C -0,2 C 24,1 km/h (4 Bft)
01.03.2024 00:57 5,4 C 4,4 C 80 % 1006,5 hPa 0,0 l/m 11,3 km/h (2 Bft) S 180 0 min 0,0 UV-I 0 W/m 2,2 C 1,7 C 17,7 km/h (3 Bft)
01.03.2024 00:58 5,4 C 4,4 C 80 % 1006,4 hPa 0,0 l/m 12,9 km/h (3 Bft) S 180 0 min 0,0 UV-I 0 W/m 2,2 C 0,7 C 19,3 km/h (3 Bft)
01.03.2024 00:59 5,3 C 4,4 C 80 % 1006,5 hPa 0,0 l/m 14,5 km/h (3 Bft) S 180 0 min 0,0 UV-I 0 W/m 2,1 C -0,3 C 20,9 km/h (4 Bft)
01.03.2024 01:00 5,3 C 5,0 C 80 % 1006,5 hPa 0,0 l/m 17,7 km/h (3 Bft) S-SO 157 0 min 0,0 UV-I 0 W/m 2,1 C -1,8 C 20,9 km/h (4 Bft)
01.03.2024 01:01 5,3 C 5,0 C 80 % 1006,4 hPa 0,0 l/m 16,1 km/h (3 Bft) S 180 0 min 0,0 UV-I 0 W/m 2,1 C -1,1 C 20,9 km/h (4 Bft)
01.03.2024 01:02 5,3 C 5,0 C 80 % 1006,4 hPa 0,0 l/m 14,5 km/h (3 Bft) S 180 0 min 0,0 UV-I 0 W/m 2,1 C -0,3 C 17,7 km/h (3 Bft)
01.03.2024 01:03 5,3 C 5,0 C 81 % 1006,3 hPa 0,0 l/m 11,3 km/h (2 Bft) S-SO 157 0 min 0,0 UV-I 0 W/m 2,3 C 1,5 C 16,1 km/h (3 Bft)
01.03.2024 01:04 5,4 C 5,0 C 81 % 1006,4 hPa 0,0 l/m 12,9 km/h (3 Bft) S-SO 157 0 min 0,0 UV-I 0 W/m 2,4 C 0,7 C 17,7 km/h (3 Bft)
01.03.2024 01:05 5,3 C 5,0 C 81 % 1006,3 hPa 0,0 l/m 14,5 km/h (3 Bft) S 180 0 min 0,0 UV-I 0 W/m 2,3 C -0,3 C 22,5 km/h (4 Bft)
01.03.2024 01:06 5,3 C 4,4 C 81 % 1006,4 hPa 0,0 l/m 14,5 km/h (3 Bft) S-SO 157 0 min 0,0 UV-I 0 W/m 2,3 C -0,3 C 19,3 km/h (3 Bft)
01.03.2024 01:07 5,3 C 4,4 C 81 % 1006,4 hPa 0,0 l/m 11,3 km/h (2 Bft) S-SO 157 0 min 0,0 UV-I 0 W/m 2,3 C 1,5 C 17,7 km/h (3 Bft)
01.03.2024 01:08 5,3 C 4,4 C 82 % 1006,3 hPa 0,0 l/m 9,7 km/h (2 Bft) S 180 0 min 0,0 UV-I 0 W/m 2,5 C 2,6 C 14,5 km/h (3 Bft)
01.03.2024 01:09 5,3 C 4,4 C 82 % 1006,4 hPa 0,0 l/m 11,3 km/h (2 Bft) S 180 0 min 0,0 UV-I 0 W/m 2,5 C 1,5 C 16,1 km/h (3 Bft)
01.03.2024 01:10 5,3 C 4,4 C 82 % 1006,3 hPa 0,0 l/m 11,3 km/h (2 Bft) S 180 0 min 0,0 UV-I 0 W/m 2,5 C 1,5 C 19,3 km/h (3 Bft)
01.03.2024 01:11 5,2 C 4,4 C 83 % 1006,4 hPa 0,0 l/m 9,7 km/h (2 Bft) S 180 0 min 0,0 UV-I 0 W/m 2,6 C 2,5 C 14,5 km/h (3 Bft)
01.03.2024 01:12 5,2 C 4,4 C 83 % 1006,4 hPa 0,0 l/m 8,0 km/h (2 Bft) S-SO 157 0 min 0,0 UV-I 0 W/m 2,6 C 3,8 C 9,7 km/h (2 Bft)
01.03.2024 01:13 5,2 C 4,4 C 83 % 1006,4 hPa 0,0 l/m 9,7 km/h (2 Bft) S 180 0 min 0,0 UV-I 0 W/m 2,6 C 2,5 C 12,9 km/h (3 Bft)
01.03.2024 01:14 5,1 C 4,4 C 84 % 1006,4 hPa 0,0 l/m 11,3 km/h (2 Bft) S-SO 157 0 min 0,0 UV-I 0 W/m 2,6 C 1,3 C 16,1 km/h (3 Bft)
01.03.2024 01:15 5,1 C 4,4 C 84 % 1006,3 hPa 0,0 l/m 12,9 km/h (3 Bft) S-SO 157 0 min 0,0 UV-I 0 W/m 2,6 C 0,3 C 19,3 km/h (3 Bft)
01.03.2024 01:16 5,1 C 4,4 C 84 % 1006,3 hPa 0,0 l/m 9,7 km/h (2 Bft) S-SO 157 0 min 0,0 UV-I 0 W/m 2,6 C 2,4 C 12,9 km/h (3 Bft)
01.03.2024 01:17 5,1 C 4,4 C 84 % 1006,3 hPa 0,0 l/m 11,3 km/h (2 Bft) S-SO 157 0 min 0,0 UV-I 0 W/m 2,6 C 1,3 C 14,5 km/h (3 Bft)
01.03.2024 01:18 5,1 C 4,4 C 84 % 1006,4 hPa 0,0 l/m 11,3 km/h (2 Bft) S-SO 157 0 min 0,0 UV-I 0 W/m 2,6 C 1,3 C 14,5 km/h (3 Bft)
01.03.2024 01:19 5,1 C 4,4 C 85 % 1006,3 hPa 0,0 l/m 12,9 km/h (3 Bft) S-SO 157 0 min 0,0 UV-I 0 W/m 2,8 C 0,3 C 17,7 km/h (3 Bft)
01.03.2024 01:20 5,1 C 4,4 C 85 % 1006,4 hPa 0,0 l/m 11,3 km/h (2 Bft) S-SO 157 0 min 0,0 UV-I 0 W/m 2,8 C 1,3 C 14,5 km/h (3 Bft)
01.03.2024 01:21 5,0 C 4,4 C 85 % 1006,3 hPa 0,0 l/m 12,9 km/h (3 Bft) S-SO 157 0 min 0,0 UV-I 0 W/m 2,7 C 0,2 C 19,3 km/h (3 Bft)
01.03.2024 01:22 5,1 C 4,4 C 85 % 1006,4 hPa 0,0 l/m 12,9 km/h (3 Bft) S-SO 157 0 min 0,0 UV-I 0 W/m 2,8 C 0,3 C 16,1 km/h (3 Bft)
01.03.2024 01:23 5,1 C 4,4 C 86 % 1006,3 hPa 0,0 l/m 12,9 km/h (3 Bft) S-SO 157 0 min 0,0 UV-I 0 W/m 3,0 C 0,3 C 17,7 km/h (3 Bft)
01.03.2024 01:24 5,0 C 4,4 C 86 % 1006,3 hPa 0,0 l/m 9,7 km/h (2 Bft) S-SO 157 0 min 0,0 UV-I 0 W/m 2,9 C 2,3 C 12,9 km/h (3 Bft)
01.03.2024 01:25 5,0 C 4,4 C 86 % 1006,4 hPa 0,0 l/m 9,7 km/h (2 Bft) S-SO 157 0 min 0,0 UV-I 0 W/m 2,9 C 2,3 C 12,9 km/h (3 Bft)
01.03.2024 01:26 5,1 C 4,4 C 86 % 1006,3 hPa 0,0 l/m 11,3 km/h (2 Bft) S 180 0 min 0,0 UV-I 0 W/m 3,0 C 1,3 C 16,1 km/h (3 Bft)
01.03.2024 01:27 5,1 C 4,4 C 86 % 1006,3 hPa 0,0 l/m 11,3 km/h (2 Bft) S-SO 157 0 min 0,0 UV-I 0 W/m 3,0 C 1,3 C 16,1 km/h (3 Bft)
01.03.2024 01:28 5,1 C 4,4 C 87 % 1006,2 hPa 0,0 l/m 12,9 km/h (3 Bft) SO 135 0 min 0,0 UV-I 0 W/m 3,1 C 0,3 C 16,1 km/h (3 Bft)
01.03.2024 01:29 5,1 C 4,4 C 87 % 1006,2 hPa 0,0 l/m 12,9 km/h (3 Bft) S 180 0 min 0,0 UV-I 0 W/m 3,1 C 0,3 C 19,3 km/h (3 Bft)
01.03.2024 01:30 5,1 C 4,4 C 87 % 1006,2 hPa 0,0 l/m 17,7 km/h (3 Bft) SO 135 0 min 0,0 UV-I 0 W/m 3,1 C -2,1 C 25,7 km/h (4 Bft)
01.03.2024 01:31 5,1 C 4,4 C 87 % 1006,2 hPa 0,0 l/m 11,3 km/h (2 Bft) SO 135 0 min 0,0 UV-I 0 W/m 3,1 C 1,3 C 16,1 km/h (3 Bft)
01.03.2024 01:32 5,1 C 4,4 C 87 % 1006,1 hPa 0,0 l/m 11,3 km/h (2 Bft) S-SO 157 0 min 0,0 UV-I 0 W/m 3,1 C 1,3 C 17,7 km/h (3 Bft)
01.03.2024 01:33 5,1 C 4,4 C 87 % 1006,1 hPa 0,0 l/m 16,1 km/h (3 Bft) S-SO 157 0 min 0,0 UV-I 0 W/m 3,1 C -1,3 C 22,5 km/h (4 Bft)
01.03.2024 01:34 5,1 C 4,4 C 87 % 1006,3 hPa 0,0 l/m 16,1 km/h (3 Bft) S-SO 157 0 min 0,0 UV-I 0 W/m 3,1 C -1,3 C 25,7 km/h (4 Bft)
01.03.2024 01:35 5,1 C 4,4 C 88 % 1006,2 hPa 0,0 l/m 11,3 km/h (2 Bft) S 180 0 min 0,0 UV-I 0 W/m 3,3 C 1,3 C 17,7 km/h (3 Bft)
01.03.2024 01:36 5,1 C 4,4 C 88 % 1006,3 hPa 0,0 l/m 12,9 km/h (3 Bft) S 180 0 min 0,0 UV-I 0 W/m 3,3 C 0,3 C 20,9 km/h (4 Bft)
01.03.2024 01:37 5,2 C 4,4 C 88 % 1006,2 hPa 0,0 l/m 17,7 km/h (3 Bft) S 180 0 min 0,0 UV-I 0 W/m 3,4 C -2,0 C 27,4 km/h (4 Bft)
01.03.2024 01:38 5,2 C 4,4 C 88 % 1006,4 hPa 0,0 l/m 17,7 km/h (3 Bft) S 180 0 min 0,0 UV-I 0 W/m 3,4 C -2,0 C 25,7 km/h (4 Bft)
01.03.2024 01:39 5,3 C 4,4 C 88 % 1006,3 hPa 0,0 l/m 12,9 km/h (3 Bft) S 180 0 min 0,0 UV-I 0 W/m 3,5 C 0,6 C 19,3 km/h (3 Bft)
01.03.2024 01:40 5,3 C 4,4 C 88 % 1006,4 hPa 0,0 l/m 16,1 km/h (3 Bft) S 180 0 min 0,0 UV-I 0 W/m 3,5 C -1,1 C 24,1 km/h (4 Bft)
01.03.2024 01:41 5,3 C 5,0 C 88 % 1006,3 hPa 0,0 l/m 16,1 km/h (3 Bft) S 180 0 min 0,0 UV-I 0 W/m 3,5 C -1,1 C 22,5 km/h (4 Bft)
01.03.2024 01:42 5,4 C 5,0 C 88 % 1006,3 hPa 0,0 l/m 16,1 km/h (3 Bft) S-SO 157 0 min 0,0 UV-I 0 W/m 3,6 C -1,0 C 19,3 km/h (3 Bft)
01.03.2024 01:43 5,4 C 5,0 C 88 % 1006,3 hPa 0,0 l/m 16,1 km/h (3 Bft) S 180 0 min 0,0 UV-I 0 W/m 3,6 C -1,0 C 24,1 km/h (4 Bft)
01.03.2024 01:44 5,4 C 5,0 C 88 % 1006,3 hPa 0,0 l/m 14,5 km/h (3 Bft) S-SO 157 0 min 0,0 UV-I 0 W/m 3,6 C -0,2 C 19,3 km/h (3 Bft)
01.03.2024 01:45 5,5 C 5,0 C 88 % 1006,3 hPa 0,0 l/m 19,3 km/h (3 Bft) S-SO 157 0 min 0,0 UV-I 0 W/m 3,7 C -2,2 C 30,6 km/h (5 Bft)
01.03.2024 01:46 5,6 C 5,0 C 88 % 1006,3 hPa 0,0 l/m 16,1 km/h (3 Bft) S 180 0 min 0,0 UV-I 0 W/m 3,8 C -0,7 C 27,4 km/h (4 Bft)
01.03.2024 01:47 5,6 C 5,0 C 88 % 1006,3 hPa 0,0 l/m 14,5 km/h (3 Bft) S-SO 157 0 min 0,0 UV-I 0 W/m 3,8 C 0,1 C 29,0 km/h (5 Bft)
01.03.2024 01:48 5,6 C 5,0 C 88 % 1006,3 hPa 0,0 l/m 11,3 km/h (2 Bft) S 180 0 min 0,0 UV-I 0 W/m 3,8 C 1,9 C 14,5 km/h (3 Bft)
01.03.2024 01:49 5,6 C 5,0 C 88 % 1006,2 hPa 0,0 l/m 12,9 km/h (3 Bft) S 180 0 min 0,0 UV-I 0 W/m 3,8 C 0,9 C 16,1 km/h (3 Bft)
01.03.2024 01:50 5,6 C 5,0 C 88 % 1006,2 hPa 0,0 l/m 9,7 km/h (2 Bft) S 180 0 min 0,0 UV-I 0 W/m 3,8 C 2,9 C 12,9 km/h (3 Bft)
01.03.2024 01:51 5,6 C 5,0 C 88 % 1006,2 hPa 0,0 l/m 9,7 km/h (2 Bft) S-SO 157 0 min 0,0 UV-I 0 W/m 3,8 C 2,9 C 16,1 km/h (3 Bft)
01.03.2024 01:52 5,5 C 5,0 C 88 % 1006,2 hPa 0,0 l/m 11,3 km/h (2 Bft) S 180 0 min 0,0 UV-I 0 W/m 3,7 C 1,8 C 20,9 km/h (4 Bft)
01.03.2024 01:53 5,5 C 5,0 C 88 % 1006,2 hPa 0,0 l/m 12,9 km/h (3 Bft) S-SO 157 0 min 0,0 UV-I 0 W/m 3,7 C 0,8 C 17,7 km/h (3 Bft)
01.03.2024 01:54 5,5 C 5,0 C 88 % 1006,3 hPa 0,0 l/m 8,0 km/h (2 Bft) S-SO 157 0 min 0,0 UV-I 0 W/m 3,7 C 4,1 C 11,3 km/h (2 Bft)
01.03.2024 01:55 5,5 C 5,0 C 88 % 1006,2 hPa 0,0 l/m 11,3 km/h (2 Bft) S 180 0 min 0,0 UV-I 0 W/m 3,7 C 1,8 C 14,5 km/h (3 Bft)
01.03.2024 01:56 5,4 C 5,0 C 88 % 1006,2 hPa 0,0 l/m 12,9 km/h (3 Bft) S 180 0 min 0,0 UV-I 0 W/m 3,6 C 0,7 C 17,7 km/h (3 Bft)
01.03.2024 01:57 5,4 C 5,0 C 89 % 1006,2 hPa 0,0 l/m 14,5 km/h (3 Bft) S 180 0 min 0,0 UV-I 0 W/m 3,7 C -0,2 C 22,5 km/h (4 Bft)
01.03.2024 01:58 5,4 C 5,0 C 89 % 1006,2 hPa 0,0 l/m 11,3 km/h (2 Bft) S-SO 157 0 min 0,0 UV-I 0 W/m 3,7 C 1,7 C 16,1 km/h (3 Bft)
01.03.2024 01:59 5,4 C 5,0 C 89 % 1006,3 hPa 0,0 l/m 14,5 km/h (3 Bft) S-SO 157 0 min 0,0 UV-I 0 W/m 3,7 C -0,2 C 19,3 km/h (3 Bft)
01.03.2024 02:00 5,4 C 5,0 C 89 % 1006,3 hPa 0,0 l/m 16,1 km/h (3 Bft) S 180 0 min 0,0 UV-I 0 W/m 3,7 C -1,0 C 25,7 km/h (4 Bft)
01.03.2024 02:01 5,4 C 5,0 C 89 % 1006,2 hPa 0,0 l/m 16,1 km/h (3 Bft) S 180 0 min 0,0 UV-I 0 W/m 3,7 C -1,0 C 22,5 km/h (4 Bft)
01.03.2024 02:02 5,4 C 5,0 C 89 % 1006,2 hPa 0,0 l/m 16,1 km/h (3 Bft) S 180 0 min 0,0 UV-I 0 W/m 3,7 C -1,0 C 25,7 km/h (4 Bft)
01.03.2024 02:03 5,4 C 5,0 C 89 % 1006,2 hPa 0,0 l/m 17,7 km/h (3 Bft) S 180 0 min 0,0 UV-I 0 W/m 3,7 C -1,7 C 24,1 km/h (4 Bft)
01.03.2024 02:04 5,4 C 5,0 C 89 % 1006,2 hPa 0,0 l/m 12,9 km/h (3 Bft) S-SO 157 0 min 0,0 UV-I 0 W/m 3,7 C 0,7 C 19,3 km/h (3 Bft)
01.03.2024 02:05 5,4 C 5,0 C 89 % 1006,1 hPa 0,0 l/m 12,9 km/h (3 Bft) S 180 0 min 0,0 UV-I 0 W/m 3,7 C 0,7 C 22,5 km/h (4 Bft)
01.03.2024 02:06 5,4 C 5,0 C 89 % 1006,1 hPa 0,0 l/m 12,9 km/h (3 Bft) S 180 0 min 0,0 UV-I 0 W/m 3,7 C 0,7 C 17,7 km/h (3 Bft)
01.03.2024 02:07 5,4 C 5,0 C 89 % 1006,1 hPa 0,0 l/m 11,3 km/h (2 Bft) S-SO 157 0 min 0,0 UV-I 0 W/m 3,7 C 1,7 C 14,5 km/h (3 Bft)
01.03.2024 02:08 5,4 C 5,0 C 89 % 1006,0 hPa 0,0 l/m 19,3 km/h (3 Bft) S 180 0 min 0,0 UV-I 0 W/m 3,7 C -2,4 C 37,0 km/h (5 Bft)
01.03.2024 02:09 5,4 C 5,0 C 89 % 1006,1 hPa 0,0 l/m 19,3 km/h (3 Bft) S 180 0 min 0,0 UV-I 0 W/m 3,7 C -2,4 C 25,7 km/h (4 Bft)
01.03.2024 02:10 5,4 C 5,0 C 89 % 1006,2 hPa 0,0 l/m 12,9 km/h (3 Bft) S-SO 157 0 min 0,0 UV-I 0 W/m 3,7 C 0,7 C 33,8 km/h (5 Bft)
01.03.2024 02:11 5,4 C 5,0 C 89 % 1006,1 hPa 0,0 l/m 12,9 km/h (3 Bft) S-SO 157 0 min 0,0 UV-I 0 W/m 3,7 C 0,7 C 20,9 km/h (4 Bft)
01.03.2024 02:12 5,4 C 5,0 C 89 % 1006,1 hPa 0,0 l/m 11,3 km/h (2 Bft) S-SO 157 0 min 0,0 UV-I 0 W/m 3,7 C 1,7 C 17,7 km/h (3 Bft)
01.03.2024 02:13 5,4 C 5,0 C 89 % 1006,0 hPa 0,0 l/m 17,7 km/h (3 Bft) S-SO 157 0 min 0,0 UV-I 0 W/m 3,7 C -1,7 C 25,7 km/h (4 Bft)
01.03.2024 02:14 5,4 C 5,0 C 89 % 1006,0 hPa 0,0 l/m 14,5 km/h (3 Bft) S 180 0 min 0,0 UV-I 0 W/m 3,7 C -0,2 C 22,5 km/h (4 Bft)
01.03.2024 02:15 5,4 C 5,0 C 89 % 1006,0 hPa 0,0 l/m 22,5 km/h (4 Bft) S 180 0 min 0,0 UV-I 0 W/m 3,7 C -3,6 C 37,0 km/h (5 Bft)
01.03.2024 02:16 5,4 C 5,0 C 89 % 1005,9 hPa 0,0 l/m 17,7 km/h (3 Bft) S 180 0 min 0,0 UV-I 0 W/m 3,7 C -1,7 C 22,5 km/h (4 Bft)
01.03.2024 02:17 5,4 C 5,0 C 89 % 1005,9 hPa 0,0 l/m 12,9 km/h (3 Bft) S 180 0 min 0,0 UV-I 0 W/m 3,7 C 0,7 C 22,5 km/h (4 Bft)
01.03.2024 02:18 5,4 C 5,0 C 89 % 1006,0 hPa 0,0 l/m 11,3 km/h (2 Bft) S 180 0 min 0,0 UV-I 0 W/m 3,7 C 1,7 C 17,7 km/h (3 Bft)
01.03.2024 02:19 5,4 C 5,0 C 89 % 1005,9 hPa 0,0 l/m 14,5 km/h (3 Bft) S 180 0 min 0,0 UV-I 0 W/m 3,7 C -0,2 C 17,7 km/h (3 Bft)
01.03.2024 02:20 5,4 C 5,0 C 89 % 1005,9 hPa 0,0 l/m 12,9 km/h (3 Bft) S 180 0 min 0,0 UV-I 0 W/m 3,7 C 0,7 C 17,7 km/h (3 Bft)
01.03.2024 02:21 5,4 C 5,0 C 89 % 1005,8 hPa 0,0 l/m 9,7 km/h (2 Bft) S 180 0 min 0,0 UV-I 0 W/m 3,7 C 2,7 C 16,1 km/h (3 Bft)
01.03.2024 02:22 5,4 C 5,0 C 90 % 1005,8 hPa 0,0 l/m 11,3 km/h (2 Bft) S-SW 202 0 min 0,0 UV-I 0 W/m 3,9 C 1,7 C 14,5 km/h (3 Bft)
01.03.2024 02:23 5,3 C 5,0 C 90 % 1005,9 hPa 0,0 l/m 14,5 km/h (3 Bft) S 180 0 min 0,0 UV-I 0 W/m 3,8 C -0,3 C 22,5 km/h (4 Bft)
01.03.2024 02:24 5,4 C 5,0 C 90 % 1005,8 hPa 0,0 l/m 16,1 km/h (3 Bft) S 180 0 min 0,0 UV-I 0 W/m 3,9 C -1,0 C 20,9 km/h (4 Bft)
01.03.2024 02:25 5,3 C 5,0 C 90 % 1005,8 hPa 0,0 l/m 17,7 km/h (3 Bft) S 180 0 min 0,0 UV-I 0 W/m 3,8 C -1,8 C 22,5 km/h (4 Bft)
01.03.2024 02:26 5,3 C 5,0 C 90 % 1005,8 hPa 0,0 l/m 12,9 km/h (3 Bft) S 180 0 min 0,0 UV-I 0 W/m 3,8 C 0,6 C 17,7 km/h (3 Bft)
01.03.2024 02:27 5,3 C 5,0 C 90 % 1005,7 hPa 0,0 l/m 9,7 km/h (2 Bft) S 180 0 min 0,0 UV-I 0 W/m 3,8 C 2,6 C 12,9 km/h (3 Bft)
01.03.2024 02:28 5,4 C 5,0 C 90 % 1005,8 hPa 0,0 l/m 11,3 km/h (2 Bft) S 180 0 min 0,0 UV-I 0 W/m 3,9 C 1,7 C 16,1 km/h (3 Bft)
01.03.2024 02:29 5,4 C 5,0 C 90 % 1005,8 hPa 0,0 l/m 9,7 km/h (2 Bft) S-SO 157 0 min 0,0 UV-I 0 W/m 3,9 C 2,7 C 14,5 km/h (3 Bft)
01.03.2024 02:30 5,3 C 5,0 C 90 % 1005,7 hPa 0,0 l/m 17,7 km/h (3 Bft) S 180 0 min 0,0 UV-I 0 W/m 3,8 C -1,8 C 27,4 km/h (4 Bft)
01.03.2024 02:31 5,4 C 5,0 C 90 % 1005,7 hPa 0,0 l/m 17,7 km/h (3 Bft) S 180 0 min 0,0 UV-I 0 W/m 3,9 C -1,7 C 25,7 km/h (4 Bft)
01.03.2024 02:32 5,3 C 5,0 C 90 % 1005,7 hPa 0,0 l/m 11,3 km/h (2 Bft) S 180 0 min 0,0 UV-I 0 W/m 3,8 C 1,5 C 17,7 km/h (3 Bft)
01.03.2024 02:33 5,4 C 5,0 C 90 % 1005,7 hPa 0,0 l/m 14,5 km/h (3 Bft) S 180 0 min 0,0 UV-I 0 W/m 3,9 C -0,2 C 22,5 km/h (4 Bft)
01.03.2024 02:34 5,4 C 5,0 C 90 % 1005,7 hPa 0,0 l/m 12,9 km/h (3 Bft) S 180 0 min 0,0 UV-I 0 W/m 3,9 C 0,7 C 19,3 km/h (3 Bft)
01.03.2024 02:35 5,4 C 5,0 C 90 % 1005,7 hPa 0,0 l/m 16,1 km/h (3 Bft) S 180 0 min 0,0 UV-I 0 W/m 3,9 C -1,0 C 25,7 km/h (4 Bft)
01.03.2024 02:36 5,4 C 5,0 C 90 % 1005,6 hPa 0,0 l/m 12,9 km/h (3 Bft) S-SO 157 0 min 0,0 UV-I 0 W/m 3,9 C 0,7 C 16,1 km/h (3 Bft)
01.03.2024 02:37 5,4 C 5,0 C 90 % 1005,6 hPa 0,0 l/m 14,5 km/h (3 Bft) S 180 0 min 0,0 UV-I 0 W/m 3,9 C -0,2 C 20,9 km/h (4 Bft)
01.03.2024 02:38 5,4 C 5,0 C 90 % 1005,6 hPa 0,0 l/m 17,7 km/h (3 Bft) S 180 0 min 0,0 UV-I 0 W/m 3,9 C -1,7 C 25,7 km/h (4 Bft)
01.03.2024 02:39 5,4 C 5,0 C 90 % 1005,7 hPa 0,0 l/m 16,1 km/h (3 Bft) S 180 0 min 0,0 UV-I 0 W/m 3,9 C -1,0 C 25,7 km/h (4 Bft)
01.03.2024 02:40 5,4 C 5,0 C 90 % 1005,6 hPa 0,0 l/m 19,3 km/h (3 Bft) S 180 0 min 0,0 UV-I 0 W/m 3,9 C -2,4 C 25,7 km/h (4 Bft)
01.03.2024 02:41 5,4 C 5,0 C 90 % 1005,5 hPa 0,0 l/m 14,5 km/h (3 Bft) S 180 0 min 0,0 UV-I 0 W/m 3,9 C -0,2 C 20,9 km/h (4 Bft)
01.03.2024 02:42 5,4 C 5,0 C 90 % 1005,6 hPa 0,0 l/m 17,7 km/h (3 Bft) S-SO 157 0 min 0,0 UV-I 0 W/m 3,9 C -1,7 C 22,5 km/h (4 Bft)
01.03.2024 02:43 5,4 C 5,0 C 90 % 1005,5 hPa 0,0 l/m 16,1 km/h (3 Bft) S 180 0 min 0,0 UV-I 0 W/m 3,9 C -1,0 C 25,7 km/h (4 Bft)
01.03.2024 02:44 5,4 C 5,0 C 90 % 1005,5 hPa 0,0 l/m 11,3 km/h (2 Bft) S 180 0 min 0,0 UV-I 0 W/m 3,9 C 1,7 C 19,3 km/h (3 Bft)
01.03.2024 02:45 5,3 C 5,0 C 90 % 1005,5 hPa 0,0 l/m 14,5 km/h (3 Bft) S-SO 157 0 min 0,0 UV-I 0 W/m 3,8 C -0,3 C 17,7 km/h (3 Bft)
01.03.2024 02:46 5,4 C 5,0 C 90 % 1005,4 hPa 0,0 l/m 14,5 km/h (3 Bft) S-SO 157 0 min 0,0 UV-I 0 W/m 3,9 C -0,2 C 19,3 km/h (3 Bft)
01.03.2024 02:47 5,3 C 5,0 C 90 % 1005,5 hPa 0,0 l/m 12,9 km/h (3 Bft) S 180 0 min 0,0 UV-I 0 W/m 3,8 C 0,6 C 17,7 km/h (3 Bft)
01.03.2024 02:48 5,4 C 5,0 C 90 % 1005,3 hPa 0,0 l/m 16,1 km/h (3 Bft) S-SO 157 0 min 0,0 UV-I 0 W/m 3,9 C -1,0 C 22,5 km/h (4 Bft)
01.03.2024 02:49 5,4 C 5,0 C 90 % 1005,4 hPa 0,0 l/m 19,3 km/h (3 Bft) S 180 0 min 0,0 UV-I 0 W/m 3,9 C -2,4 C 25,7 km/h (4 Bft)
01.03.2024 02:50 5,4 C 5,0 C 90 % 1005,4 hPa 0,0 l/m 20,9 km/h (4 Bft) S 180 0 min 0,0 UV-I 0 W/m 3,9 C -3,0 C 32,2 km/h (5 Bft)
01.03.2024 02:51 5,4 C 5,0 C 90 % 1005,5 hPa 0,0 l/m 14,5 km/h (3 Bft) S 180 0 min 0,0 UV-I 0 W/m 3,9 C -0,2 C 29,0 km/h (5 Bft)
01.03.2024 02:52 5,4 C 5,0 C 90 % 1005,4 hPa 0,0 l/m 17,7 km/h (3 Bft) S 180 0 min 0,0 UV-I 0 W/m 3,9 C -1,7 C 25,7 km/h (4 Bft)
01.03.2024 02:53 5,4 C 5,0 C 90 % 1005,3 hPa 0,0 l/m 17,7 km/h (3 Bft) S-SW 202 0 min 0,0 UV-I 0 W/m 3,9 C -1,7 C 22,5 km/h (4 Bft)
01.03.2024 02:54 5,4 C 5,0 C 90 % 1005,5 hPa 0,0 l/m 12,9 km/h (3 Bft) S 180 0 min 0,0 UV-I 0 W/m 3,9 C 0,7 C 17,7 km/h (3 Bft)
01.03.2024 02:55 5,4 C 5,0 C 90 % 1005,4 hPa 0,0 l/m 16,1 km/h (3 Bft) S 180 0 min 0,0 UV-I 0 W/m 3,9 C -1,0 C 29,0 km/h (5 Bft)
01.03.2024 02:56 5,4 C 5,0 C 90 % 1005,4 hPa 0,0 l/m 14,5 km/h (3 Bft) S 180 0 min 0,0 UV-I 0 W/m 3,9 C -0,2 C 17,7 km/h (3 Bft)
01.03.2024 02:57 5,4 C 5,0 C 90 % 1005,3 hPa 0,0 l/m 14,5 km/h (3 Bft) S-SO 157 0 min 0,0 UV-I 0 W/m 3,9 C -0,2 C 20,9 km/h (4 Bft)
01.03.2024 02:58 5,4 C 5,0 C 90 % 1005,3 hPa 0,0 l/m 14,5 km/h (3 Bft) S 180 0 min 0,0 UV-I 0 W/m 3,9 C -0,2 C 17,7 km/h (3 Bft)
01.03.2024 02:59 5,4 C 5,0 C 90 % 1005,3 hPa 0,0 l/m 16,1 km/h (3 Bft) S 180 0 min 0,0 UV-I 0 W/m 3,9 C -1,0 C 27,4 km/h (4 Bft)
01.03.2024 03:00 5,4 C 5,0 C 90 % 1005,3 hPa 0,0 l/m 16,1 km/h (3 Bft) S-SO 157 0 min 0,0 UV-I 0 W/m 3,9 C -1,0 C 25,7 km/h (4 Bft)
01.03.2024 03:01 5,4 C 5,0 C 90 % 1005,3 hPa 0,0 l/m 17,7 km/h (3 Bft) S-SO 157 0 min 0,0 UV-I 0 W/m 3,9 C -1,7 C 20,9 km/h (4 Bft)
01.03.2024 03:02 5,4 C 5,0 C 90 % 1005,3 hPa 0,0 l/m 20,9 km/h (4 Bft) S 180 0 min 0,0 UV-I 0 W/m 3,9 C -3,0 C 27,4 km/h (4 Bft)
01.03.2024 03:03 5,4 C 5,0 C 90 % 1005,2 hPa 0,0 l/m 22,5 km/h (4 Bft) S 180 0 min 0,0 UV-I 0 W/m 3,9 C -3,6 C 25,7 km/h (4 Bft)
01.03.2024 03:04 5,3 C 5,0 C 90 % 1005,2 hPa 0,0 l/m 16,1 km/h (3 Bft) S 180 0 min 0,0 UV-I 0 W/m 3,8 C -1,1 C 20,9 km/h (4 Bft)
01.03.2024 03:05 5,4 C 5,0 C 90 % 1005,3 hPa 0,0 l/m 17,7 km/h (3 Bft) S-SO 157 0 min 0,0 UV-I 0 W/m 3,9 C -1,7 C 22,5 km/h (4 Bft)
01.03.2024 03:06 5,4 C 5,0 C 90 % 1005,2 hPa 0,0 l/m 17,7 km/h (3 Bft) S-SO 157 0 min 0,0 UV-I 0 W/m 3,9 C -1,7 C 30,6 km/h (5 Bft)
01.03.2024 03:07 5,3 C 5,0 C 90 % 1005,4 hPa 0,0 l/m 17,7 km/h (3 Bft) S 180 0 min 0,0 UV-I 0 W/m 3,8 C -1,8 C 30,6 km/h (5 Bft)
01.03.2024 03:08 5,4 C 5,0 C 90 % 1005,2 hPa 0,0 l/m 14,5 km/h (3 Bft) S-SO 157 0 min 0,0 UV-I 0 W/m 3,9 C -0,2 C 20,9 km/h (4 Bft)
01.03.2024 03:09 5,3 C 5,0 C 90 % 1005,3 hPa 0,0 l/m 19,3 km/h (3 Bft) S 180 0 min 0,0 UV-I 0 W/m 3,8 C -2,5 C 29,0 km/h (5 Bft)
01.03.2024 03:10 5,4 C 5,0 C 90 % 1005,2 hPa 0,0 l/m 22,5 km/h (4 Bft) S 180 0 min 0,0 UV-I 0 W/m 3,9 C -3,6 C 30,6 km/h (5 Bft)
01.03.2024 03:11 5,4 C 5,0 C 90 % 1005,1 hPa 0,0 l/m 19,3 km/h (3 Bft) S-SO 157 0 min 0,0 UV-I 0 W/m 3,9 C -2,4 C 27,4 km/h (4 Bft)
01.03.2024 03:12 5,4 C 5,0 C 90 % 1005,2 hPa 0,0 l/m 17,7 km/h (3 Bft) S 180 0 min 0,0 UV-I 0 W/m 3,9 C -1,7 C 29,0 km/h (5 Bft)
01.03.2024 03:13 5,4 C 5,0 C 90 % 1005,2 hPa 0,0 l/m 12,9 km/h (3 Bft) S-SO 157 0 min 0,0 UV-I 0 W/m 3,9 C 0,7 C 22,5 km/h (4 Bft)
01.03.2024 03:14 5,4 C 5,0 C 90 % 1005,2 hPa 0,0 l/m 12,9 km/h (3 Bft) S-SO 157 0 min 0,0 UV-I 0 W/m 3,9 C 0,7 C 20,9 km/h (4 Bft)
01.03.2024 03:15 5,4 C 5,0 C 90 % 1005,2 hPa 0,0 l/m 17,7 km/h (3 Bft) S 180 0 min 0,0 UV-I 0 W/m 3,9 C -1,7 C 27,4 km/h (4 Bft)
01.03.2024 03:16 5,4 C 5,0 C 90 % 1005,1 hPa 0,0 l/m 14,5 km/h (3 Bft) S 180 0 min 0,0 UV-I 0 W/m 3,9 C -0,2 C 22,5 km/h (4 Bft)
01.03.2024 03:17 5,3 C 5,0 C 90 % 1005,1 hPa 0,0 l/m 20,9 km/h (4 Bft) S 180 0 min 0,0 UV-I 0 W/m 3,8 C -3,1 C 29,0 km/h (5 Bft)
01.03.2024 03:18 5,4 C 5,0 C 90 % 1005,1 hPa 0,0 l/m 17,7 km/h (3 Bft) S 180 0 min 0,0 UV-I 0 W/m 3,9 C -1,7 C 32,2 km/h (5 Bft)
01.03.2024 03:19 5,4 C 5,0 C 90 % 1005,2 hPa 0,0 l/m 14,5 km/h (3 Bft) S 180 0 min 0,0 UV-I 0 W/m 3,9 C -0,2 C 22,5 km/h (4 Bft)
01.03.2024 03:20 5,4 C 5,0 C 90 % 1005,1 hPa 0,0 l/m 16,1 km/h (3 Bft) S 180 0 min 0,0 UV-I 0 W/m 3,9 C -1,0 C 19,3 km/h (3 Bft)
01.03.2024 03:21 5,4 C 5,0 C 90 % 1005,0 hPa 0,0 l/m 12,9 km/h (3 Bft) S 180 0 min 0,0 UV-I 0 W/m 3,9 C 0,7 C 24,1 km/h (4 Bft)
01.03.2024 03:22 5,4 C 5,0 C 90 % 1005,1 hPa 0,0 l/m 17,7 km/h (3 Bft) S-SO 157 0 min 0,0 UV-I 0 W/m 3,9 C -1,7 C 22,5 km/h (4 Bft)
01.03.2024 03:23 5,3 C 5,0 C 90 % 1005,1 hPa 0,0 l/m 14,5 km/h (3 Bft) S 180 0 min 0,0 UV-I 0 W/m 3,8 C -0,3 C 22,5 km/h (4 Bft)
01.03.2024 03:24 5,3 C 5,0 C 90 % 1005,1 hPa 0,0 l/m 14,5 km/h (3 Bft) S 180 0 min 0,0 UV-I 0 W/m 3,8 C -0,3 C 20,9 km/h (4 Bft)
01.03.2024 03:25 5,3 C 5,0 C 90 % 1005,1 hPa 0,0 l/m 16,1 km/h (3 Bft) S 180 0 min 0,0 UV-I 0 W/m 3,8 C -1,1 C 25,7 km/h (4 Bft)
01.03.2024 03:26 5,3 C 5,0 C 90 % 1004,9 hPa 0,0 l/m 11,3 km/h (2 Bft) S-SO 157 0 min 0,0 UV-I 0 W/m 3,8 C 1,5 C 22,5 km/h (4 Bft)
01.03.2024 03:27 5,3 C 5,0 C 90 % 1005,0 hPa 0,0 l/m 14,5 km/h (3 Bft) S 180 0 min 0,0 UV-I 0 W/m 3,8 C -0,3 C 20,9 km/h (4 Bft)
01.03.2024 03:28 5,3 C 5,0 C 90 % 1005,0 hPa 0,0 l/m 16,1 km/h (3 Bft) S-SO 157 0 min 0,0 UV-I 0 W/m 3,8 C -1,1 C 25,7 km/h (4 Bft)
01.03.2024 03:29 5,3 C 5,0 C 90 % 1005,0 hPa 0,0 l/m 14,5 km/h (3 Bft) S-SO 157 0 min 0,0 UV-I 0 W/m 3,8 C -0,3 C 22,5 km/h (4 Bft)
01.03.2024 03:30 5,3 C 5,0 C 90 % 1005,0 hPa 0,0 l/m 16,1 km/h (3 Bft) S-SO 157 0 min 0,0 UV-I 0 W/m 3,8 C -1,1 C 20,9 km/h (4 Bft)
01.03.2024 03:31 5,3 C 5,0 C 90 % 1004,9 hPa 0,0 l/m 16,1 km/h (3 Bft) SO 135 0 min 0,0 UV-I 0 W/m 3,8 C -1,1 C 24,1 km/h (4 Bft)
01.03.2024 03:32 5,3 C 5,0 C 90 % 1004,9 hPa 0,0 l/m 12,9 km/h (3 Bft) S-SO 157 0 min 0,0 UV-I 0 W/m 3,8 C 0,6 C 17,7 km/h (3 Bft)
01.03.2024 03:33 5,3 C 5,0 C 90 % 1005,0 hPa 0,0 l/m 9,7 km/h (2 Bft) S 180 0 min 0,0 UV-I 0 W/m 3,8 C 2,6 C 16,1 km/h (3 Bft)
01.03.2024 03:34 5,3 C 5,0 C 90 % 1004,9 hPa 0,0 l/m 12,9 km/h (3 Bft) S-SO 157 0 min 0,0 UV-I 0 W/m 3,8 C 0,6 C 20,9 km/h (4 Bft)
01.03.2024 03:35 5,3 C 5,0 C 90 % 1004,9 hPa 0,0 l/m 12,9 km/h (3 Bft) S 180 0 min 0,0 UV-I 0 W/m 3,8 C 0,6 C 25,7 km/h (4 Bft)
01.03.2024 03:36 5,3 C 5,0 C 90 % 1005,0 hPa 0,0 l/m 14,5 km/h (3 Bft) S 180 0 min 0,0 UV-I 0 W/m 3,8 C -0,3 C 20,9 km/h (4 Bft)
01.03.2024 03:37 5,3 C 5,0 C 90 % 1005,1 hPa 0,0 l/m 14,5 km/h (3 Bft) S 180 0 min 0,0 UV-I 0 W/m 3,8 C -0,3 C 20,9 km/h (4 Bft)
01.03.2024 03:38 5,3 C 5,0 C 90 % 1005,1 hPa 0,0 l/m 19,3 km/h (3 Bft) S 180 0 min 0,0 UV-I 0 W/m 3,8 C -2,5 C 30,6 km/h (5 Bft)
01.03.2024 03:39 5,3 C 5,0 C 90 % 1005,0 hPa 0,0 l/m 12,9 km/h (3 Bft) S 180 0 min 0,0 UV-I 0 W/m 3,8 C 0,6 C 16,1 km/h (3 Bft)
01.03.2024 03:40 5,3 C 5,0 C 90 % 1005,0 hPa 0,0 l/m 14,5 km/h (3 Bft) S 180 0 min 0,0 UV-I 0 W/m 3,8 C -0,3 C 22,5 km/h (4 Bft)
01.03.2024 03:41 5,4 C 5,0 C 90 % 1005,0 hPa 0,0 l/m 16,1 km/h (3 Bft) S 180 0 min 0,0 UV-I 0 W/m 3,9 C -1,0 C 24,1 km/h (4 Bft)
01.03.2024 03:42 5,4 C 5,0 C 90 % 1005,0 hPa 0,0 l/m 17,7 km/h (3 Bft) S 180 0 min 0,0 UV-I 0 W/m 3,9 C -1,7 C 32,2 km/h (5 Bft)
01.03.2024 03:43 5,4 C 5,0 C 90 % 1004,9 hPa 0,0 l/m 19,3 km/h (3 Bft) S 180 0 min 0,0 UV-I 0 W/m 3,9 C -2,4 C 33,8 km/h (5 Bft)
01.03.2024 03:44 5,4 C 5,0 C 90 % 1005,0 hPa 0,0 l/m 12,9 km/h (3 Bft) S 180 0 min 0,0 UV-I 0 W/m 3,9 C 0,7 C 19,3 km/h (3 Bft)
01.03.2024 03:45 5,5 C 5,0 C 90 % 1005,0 hPa 0,0 l/m 12,9 km/h (3 Bft) S 180 0 min 0,0 UV-I 0 W/m 4,0 C 0,8 C 17,7 km/h (3 Bft)
01.03.2024 03:46 5,5 C 5,0 C 90 % 1005,1 hPa 0,0 l/m 12,9 km/h (3 Bft) S 180 0 min 0,0 UV-I 0 W/m 4,0 C 0,8 C 17,7 km/h (3 Bft)
01.03.2024 03:47 5,5 C 5,0 C 90 % 1005,1 hPa 0,0 l/m 17,7 km/h (3 Bft) S 180 0 min 0,0 UV-I 0 W/m 4,0 C -1,6 C 22,5 km/h (4 Bft)
01.03.2024 03:48 5,5 C 5,0 C 90 % 1005,0 hPa 0,0 l/m 14,5 km/h (3 Bft) S 180 0 min 0,0 UV-I 0 W/m 4,0 C -0,1 C 24,1 km/h (4 Bft)
01.03.2024 03:49 5,4 C 5,0 C 90 % 1005,0 hPa 0,0 l/m 12,9 km/h (3 Bft) SO 135 0 min 0,0 UV-I 0 W/m 3,9 C 0,7 C 17,7 km/h (3 Bft)
01.03.2024 03:50 5,4 C 5,0 C 90 % 1005,0 hPa 0,0 l/m 12,9 km/h (3 Bft) S 180 0 min 0,0 UV-I 0 W/m 3,9 C 0,7 C 17,7 km/h (3 Bft)
01.03.2024 03:51 5,4 C 5,0 C 90 % 1005,0 hPa 0,0 l/m 14,5 km/h (3 Bft) S-SO 157 0 min 0,0 UV-I 0 W/m 3,9 C -0,2 C 19,3 km/h (3 Bft)
01.03.2024 03:52 5,4 C 5,0 C 90 % 1005,0 hPa 0,0 l/m 14,5 km/h (3 Bft) S 180 0 min 0,0 UV-I 0 W/m 3,9 C -0,2 C 24,1 km/h (4 Bft)
01.03.2024 03:53 5,4 C 5,0 C 90 % 1004,9 hPa 0,0 l/m 19,3 km/h (3 Bft) S-SO 157 0 min 0,0 UV-I 0 W/m 3,9 C -2,4 C 29,0 km/h (5 Bft)
01.03.2024 03:54 5,4 C 5,0 C 90 % 1005,0 hPa 0,0 l/m 14,5 km/h (3 Bft) S-SO 157 0 min 0,0 UV-I 0 W/m 3,9 C -0,2 C 19,3 km/h (3 Bft)
01.03.2024 03:55 5,4 C 5,0 C 90 % 1004,9 hPa 0,0 l/m 12,9 km/h (3 Bft) S-SO 157 0 min 0,0 UV-I 0 W/m 3,9 C 0,7 C 17,7 km/h (3 Bft)
01.03.2024 03:56 5,4 C 5,0 C 90 % 1005,0 hPa 0,0 l/m 16,1 km/h (3 Bft) S-SO 157 0 min 0,0 UV-I 0 W/m 3,9 C -1,0 C 22,5 km/h (4 Bft)
01.03.2024 03:57 5,4 C 4,4 C 90 % 1004,9 hPa 0,0 l/m 14,5 km/h (3 Bft) S 180 0 min 0,0 UV-I 0 W/m 3,9 C -0,2 C 19,3 km/h (3 Bft)
01.03.2024 03:58 5,3 C 4,4 C 90 % 1004,9 hPa 0,0 l/m 9,7 km/h (2 Bft) S-SO 157 0 min 0,0 UV-I 0 W/m 3,8 C 2,6 C 12,9 km/h (3 Bft)
01.03.2024 03:59 5,3 C 4,4 C 90 % 1004,8 hPa 0,0 l/m 12,9 km/h (3 Bft) S-SO 157 0 min 0,0 UV-I 0 W/m 3,8 C 0,6 C 17,7 km/h (3 Bft)
01.03.2024 04:00 5,3 C 4,4 C 90 % 1004,8 hPa 0,0 l/m 11,3 km/h (2 Bft) S-SO 157 0 min 0,0 UV-I 0 W/m 3,8 C 1,5 C 17,7 km/h (3 Bft)
01.03.2024 04:01 5,3 C 4,4 C 90 % 1004,9 hPa 0,0 l/m 14,5 km/h (3 Bft) S-SO 157 0 min 0,0 UV-I 0 W/m 3,8 C -0,3 C 20,9 km/h (4 Bft)
01.03.2024 04:02 5,3 C 4,4 C 90 % 1004,9 hPa 0,0 l/m 14,5 km/h (3 Bft) S-SO 157 0 min 0,0 UV-I 0 W/m 3,8 C -0,3 C 24,1 km/h (4 Bft)
01.03.2024 04:03 5,3 C 4,4 C 90 % 1004,9 hPa 0,0 l/m 16,1 km/h (3 Bft) S-SO 157 0 min 0,0 UV-I 0 W/m 3,8 C -1,1 C 24,1 km/h (4 Bft)
01.03.2024 04:04 5,2 C 4,4 C 90 % 1004,8 hPa 0,0 l/m 14,5 km/h (3 Bft) S-SO 157 0 min 0,0 UV-I 0 W/m 3,7 C -0,4 C 19,3 km/h (3 Bft)
01.03.2024 04:05 5,2 C 4,4 C 90 % 1004,9 hPa 0,0 l/m 12,9 km/h (3 Bft) S-SO 157 0 min 0,0 UV-I 0 W/m 3,7 C 0,5 C 19,3 km/h (3 Bft)
01.03.2024 04:06 5,2 C 4,4 C 90 % 1004,9 hPa 0,0 l/m 14,5 km/h (3 Bft) S-SO 157 0 min 0,0 UV-I 0 W/m 3,7 C -0,4 C 19,3 km/h (3 Bft)
01.03.2024 04:07 5,2 C 4,4 C 90 % 1004,9 hPa 0,0 l/m 12,9 km/h (3 Bft) S-SO 157 0 min 0,0 UV-I 0 W/m 3,7 C 0,5 C 20,9 km/h (4 Bft)
01.03.2024 04:08 5,2 C 4,4 C 90 % 1004,9 hPa 0,0 l/m 12,9 km/h (3 Bft) S-SO 157 0 min 0,0 UV-I 0 W/m 3,7 C 0,5 C 19,3 km/h (3 Bft)
01.03.2024 04:09 5,2 C 4,4 C 90 % 1005,0 hPa 0,0 l/m 16,1 km/h (3 Bft) S-SO 157 0 min 0,0 UV-I 0 W/m 3,7 C -1,2 C 20,9 km/h (4 Bft)
01.03.2024 04:10 5,2 C 4,4 C 90 % 1004,9 hPa 0,0 l/m 19,3 km/h (3 Bft) S-SO 157 0 min 0,0 UV-I 0 W/m 3,7 C -2,6 C 30,6 km/h (5 Bft)
01.03.2024 04:11 5,2 C 4,4 C 90 % 1005,0 hPa 0,0 l/m 16,1 km/h (3 Bft) S 180 0 min 0,0 UV-I 0 W/m 3,7 C -1,2 C 24,1 km/h (4 Bft)
01.03.2024 04:12 5,2 C 4,4 C 90 % 1004,8 hPa 0,0 l/m 12,9 km/h (3 Bft) S-SO 157 0 min 0,0 UV-I 0 W/m 3,7 C 0,5 C 19,3 km/h (3 Bft)
01.03.2024 04:13 5,2 C 4,4 C 90 % 1004,8 hPa 0,0 l/m 12,9 km/h (3 Bft) S-SO 157 0 min 0,0 UV-I 0 W/m 3,7 C 0,5 C 17,7 km/h (3 Bft)
01.03.2024 04:14 5,2 C 4,4 C 90 % 1004,9 hPa 0,0 l/m 14,5 km/h (3 Bft) S 180 0 min 0,0 UV-I 0 W/m 3,7 C -0,4 C 22,5 km/h (4 Bft)
01.03.2024 04:15 5,2 C 4,4 C 90 % 1004,9 hPa 0,0 l/m 14,5 km/h (3 Bft) SO 135 0 min 0,0 UV-I 0 W/m 3,7 C -0,4 C 20,9 km/h (4 Bft)
01.03.2024 04:16 5,2 C 4,4 C 90 % 1005,0 hPa 0,0 l/m 14,5 km/h (3 Bft) S-SO 157 0 min 0,0 UV-I 0 W/m 3,7 C -0,4 C 17,7 km/h (3 Bft)
01.03.2024 04:17 5,2 C 4,4 C 90 % 1004,9 hPa 0,0 l/m 16,1 km/h (3 Bft) SO 135 0 min 0,0 UV-I 0 W/m 3,7 C -1,2 C 20,9 km/h (4 Bft)
01.03.2024 04:18 5,2 C 4,4 C 90 % 1004,8 hPa 0,0 l/m 12,9 km/h (3 Bft) S-SO 157 0 min 0,0 UV-I 0 W/m 3,7 C 0,5 C 16,1 km/h (3 Bft)
01.03.2024 04:19 5,2 C 4,4 C 90 % 1004,8 hPa 0,0 l/m 12,9 km/h (3 Bft) S-SO 157 0 min 0,0 UV-I 0 W/m 3,7 C 0,5 C 19,3 km/h (3 Bft)
01.03.2024 04:20 5,2 C 4,4 C 90 % 1004,9 hPa 0,0 l/m 17,7 km/h (3 Bft) S-SO 157 0 min 0,0 UV-I 0 W/m 3,7 C -2,0 C 27,4 km/h (4 Bft)
01.03.2024 04:21 5,2 C 4,4 C 90 % 1004,9 hPa 0,0 l/m 20,9 km/h (4 Bft) S-SO 157 0 min 0,0 UV-I 0 W/m 3,7 C -3,3 C 32,2 km/h (5 Bft)
01.03.2024 04:22 5,2 C 4,4 C 90 % 1004,8 hPa 0,0 l/m 12,9 km/h (3 Bft) SO 135 0 min 0,0 UV-I 0 W/m 3,7 C 0,5 C 27,4 km/h (4 Bft)
01.03.2024 04:23 5,2 C 4,4 C 90 % 1004,8 hPa 0,0 l/m 14,5 km/h (3 Bft) SO 135 0 min 0,0 UV-I 0 W/m 3,7 C -0,4 C 24,1 km/h (4 Bft)
01.03.2024 04:24 5,2 C 4,4 C 90 % 1004,9 hPa 0,0 l/m 14,5 km/h (3 Bft) S-SO 157 0 min 0,0 UV-I 0 W/m 3,7 C -0,4 C 25,7 km/h (4 Bft)
01.03.2024 04:25 5,2 C 4,4 C 90 % 1004,9 hPa 0,0 l/m 14,5 km/h (3 Bft) S-SO 157 0 min 0,0 UV-I 0 W/m 3,7 C -0,4 C 17,7 km/h (3 Bft)
01.03.2024 04:26 5,2 C 4,4 C 90 % 1004,9 hPa 0,0 l/m 11,3 km/h (2 Bft) S-SO 157 0 min 0,0 UV-I 0 W/m 3,7 C 1,4 C 14,5 km/h (3 Bft)
01.03.2024 04:27 5,2 C 4,4 C 90 % 1004,8 hPa 0,0 l/m 11,3 km/h (2 Bft) S 180 0 min 0,0 UV-I 0 W/m 3,7 C 1,4 C 16,1 km/h (3 Bft)
01.03.2024 04:28 5,2 C 4,4 C 90 % 1004,9 hPa 0,0 l/m 14,5 km/h (3 Bft) S-SO 157 0 min 0,0 UV-I 0 W/m 3,7 C -0,4 C 19,3 km/h (3 Bft)
01.03.2024 04:29 5,2 C 4,4 C 90 % 1004,8 hPa 0,0 l/m 11,3 km/h (2 Bft) S-SO 157 0 min 0,0 UV-I 0 W/m 3,7 C 1,4 C 14,5 km/h (3 Bft)
01.03.2024 04:30 5,2 C 4,4 C 90 % 1004,8 hPa 0,0 l/m 19,3 km/h (3 Bft) S-SO 157 0 min 0,0 UV-I 0 W/m 3,7 C -2,6 C 29,0 km/h (5 Bft)
01.03.2024 04:31 5,2 C 4,4 C 91 % 1004,8 hPa 0,0 l/m 16,1 km/h (3 Bft) S-SO 157 0 min 0,0 UV-I 0 W/m 3,9 C -1,2 C 19,3 km/h (3 Bft)
01.03.2024 04:32 5,2 C 4,4 C 91 % 1004,9 hPa 0,0 l/m 12,9 km/h (3 Bft) S-SO 157 0 min 0,0 UV-I 0 W/m 3,9 C 0,5 C 24,1 km/h (4 Bft)
01.03.2024 04:33 5,2 C 4,4 C 91 % 1004,9 hPa 0,0 l/m 12,9 km/h (3 Bft) SO 135 0 min 0,0 UV-I 0 W/m 3,9 C 0,5 C 17,7 km/h (3 Bft)
01.03.2024 04:34 5,2 C 4,4 C 91 % 1004,9 hPa 0,0 l/m 12,9 km/h (3 Bft) S 180 0 min 0,0 UV-I 0 W/m 3,9 C 0,5 C 17,7 km/h (3 Bft)
01.03.2024 04:35 5,2 C 4,4 C 91 % 1004,8 hPa 0,0 l/m 11,3 km/h (2 Bft) S-SO 157 0 min 0,0 UV-I 0 W/m 3,9 C 1,4 C 14,5 km/h (3 Bft)
01.03.2024 04:36 5,2 C 4,4 C 91 % 1004,9 hPa 0,0 l/m 11,3 km/h (2 Bft) SO 135 0 min 0,0 UV-I 0 W/m 3,9 C 1,4 C 19,3 km/h (3 Bft)
01.03.2024 04:37 5,2 C 4,4 C 91 % 1004,9 hPa 0,0 l/m 9,7 km/h (2 Bft) S-SO 157 0 min 0,0 UV-I 0 W/m 3,9 C 2,5 C 14,5 km/h (3 Bft)
01.03.2024 04:38 5,2 C 4,4 C 91 % 1004,9 hPa 0,0 l/m 12,9 km/h (3 Bft) S-SO 157 0 min 0,0 UV-I 0 W/m 3,9 C 0,5 C 19,3 km/h (3 Bft)
01.03.2024 04:39 5,2 C 4,4 C 91 % 1004,9 hPa 0,0 l/m 11,3 km/h (2 Bft) S-SO 157 0 min 0,0 UV-I 0 W/m 3,9 C 1,4 C 17,7 km/h (3 Bft)
01.03.2024 04:40 5,2 C 4,4 C 91 % 1005,0 hPa 0,0 l/m 14,5 km/h (3 Bft) S-SO 157 0 min 0,0 UV-I 0 W/m 3,9 C -0,4 C 20,9 km/h (4 Bft)
01.03.2024 04:41 5,2 C 4,4 C 91 % 1004,9 hPa 0,0 l/m 9,7 km/h (2 Bft) S-SO 157 0 min 0,0 UV-I 0 W/m 3,9 C 2,5 C 14,5 km/h (3 Bft)
01.03.2024 04:42 5,1 C 4,4 C 91 % 1005,0 hPa 0,0 l/m 14,5 km/h (3 Bft) S-SO 157 0 min 0,0 UV-I 0 W/m 3,8 C -0,5 C 20,9 km/h (4 Bft)
01.03.2024 04:43 5,1 C 4,4 C 90 % 1004,9 hPa 0,0 l/m 11,3 km/h (2 Bft) SO 135 0 min 0,0 UV-I 0 W/m 3,6 C 1,3 C 16,1 km/h (3 Bft)
01.03.2024 04:44 5,1 C 4,4 C 90 % 1004,9 hPa 0,0 l/m 9,7 km/h (2 Bft) SO 135 0 min 0,0 UV-I 0 W/m 3,6 C 2,4 C 12,9 km/h (3 Bft)
01.03.2024 04:45 5,1 C 4,4 C 91 % 1004,9 hPa 0,0 l/m 9,7 km/h (2 Bft) S-SO 157 0 min 0,0 UV-I 0 W/m 3,8 C 2,4 C 14,5 km/h (3 Bft)
01.03.2024 04:46 5,1 C 4,4 C 91 % 1004,9 hPa 0,0 l/m 12,9 km/h (3 Bft) S-SO 157 0 min 0,0 UV-I 0 W/m 3,8 C 0,3 C 17,7 km/h (3 Bft)
01.03.2024 04:47 5,1 C 4,4 C 91 % 1004,9 hPa 0,0 l/m 11,3 km/h (2 Bft) SO 135 0 min 0,0 UV-I 0 W/m 3,8 C 1,3 C 17,7 km/h (3 Bft)
01.03.2024 04:48 5,1 C 4,4 C 91 % 1005,0 hPa 0,0 l/m 14,5 km/h (3 Bft) S 180 0 min 0,0 UV-I 0 W/m 3,8 C -0,5 C 22,5 km/h (4 Bft)
01.03.2024 04:49 5,1 C 4,4 C 91 % 1004,9 hPa 0,0 l/m 11,3 km/h (2 Bft) SO 135 0 min 0,0 UV-I 0 W/m 3,8 C 1,3 C 17,7 km/h (3 Bft)
01.03.2024 04:50 5,1 C 4,4 C 91 % 1004,9 hPa 0,0 l/m 12,9 km/h (3 Bft) S-SO 157 0 min 0,0 UV-I 0 W/m 3,8 C 0,3 C 17,7 km/h (3 Bft)
01.03.2024 04:51 5,1 C 4,4 C 91 % 1004,9 hPa 0,0 l/m 11,3 km/h (2 Bft) S-SO 157 0 min 0,0 UV-I 0 W/m 3,8 C 1,3 C 12,9 km/h (3 Bft)
01.03.2024 04:52 5,1 C 4,4 C 91 % 1005,0 hPa 0,0 l/m 12,9 km/h (3 Bft) S-SO 157 0 min 0,0 UV-I 0 W/m 3,8 C 0,3 C 17,7 km/h (3 Bft)
01.03.2024 04:53 5,1 C 4,4 C 91 % 1005,0 hPa 0,0 l/m 9,7 km/h (2 Bft) SO 135 0 min 0,0 UV-I 0 W/m 3,8 C 2,4 C 14,5 km/h (3 Bft)
01.03.2024 04:54 5,1 C 4,4 C 91 % 1005,0 hPa 0,0 l/m 9,7 km/h (2 Bft) S-SO 157 0 min 0,0 UV-I 0 W/m 3,8 C 2,4 C 14,5 km/h (3 Bft)
01.03.2024 04:55 5,0 C 4,4 C 91 % 1004,9 hPa 0,0 l/m 12,9 km/h (3 Bft) SO 135 0 min 0,0 UV-I 0 W/m 3,7 C 0,2 C 22,5 km/h (4 Bft)
01.03.2024 04:56 5,0 C 4,4 C 91 % 1005,0 hPa 0,0 l/m 16,1 km/h (3 Bft) S-SO 157 0 min 0,0 UV-I 0 W/m 3,7 C -1,5 C 19,3 km/h (3 Bft)
01.03.2024 04:57 5,0 C 4,4 C 91 % 1005,0 hPa 0,0 l/m 11,3 km/h (2 Bft) S-SO 157 0 min 0,0 UV-I 0 W/m 3,7 C 1,2 C 17,7 km/h (3 Bft)
01.03.2024 04:58 5,1 C 4,4 C 91 % 1005,0 hPa 0,0 l/m 9,7 km/h (2 Bft) S 180 0 min 0,0 UV-I 0 W/m 3,8 C 2,4 C 14,5 km/h (3 Bft)
01.03.2024 04:59 5,0 C 4,4 C 91 % 1005,0 hPa 0,0 l/m 11,3 km/h (2 Bft) S-SO 157 0 min 0,0 UV-I 0 W/m 3,7 C 1,2 C 17,7 km/h (3 Bft)
01.03.2024 05:00 5,1 C 4,4 C 91 % 1005,0 hPa 0,0 l/m 12,9 km/h (3 Bft) S-SO 157 0 min 0,0 UV-I 0 W/m 3,8 C 0,3 C 17,7 km/h (3 Bft)
01.03.2024 05:01 5,0 C 4,4 C 91 % 1005,0 hPa 0,0 l/m 12,9 km/h (3 Bft) SO 135 0 min 0,0 UV-I 0 W/m 3,7 C 0,2 C 17,7 km/h (3 Bft)
01.03.2024 05:02 5,0 C 4,4 C 91 % 1004,9 hPa 0,0 l/m 9,7 km/h (2 Bft) S-SO 157 0 min 0,0 UV-I 0 W/m 3,7 C 2,3 C 14,5 km/h (3 Bft)
01.03.2024 05:03 5,1 C 4,4 C 91 % 1004,9 hPa 0,0 l/m 9,7 km/h (2 Bft) S 180 0 min 0,0 UV-I 0 W/m 3,8 C 2,4 C 14,5 km/h (3 Bft)
01.03.2024 05:04 5,0 C 4,4 C 91 % 1005,0 hPa 0,0 l/m 14,5 km/h (3 Bft) SO 135 0 min 0,0 UV-I 0 W/m 3,7 C -0,7 C 17,7 km/h (3 Bft)
01.03.2024 05:05 5,1 C 4,4 C 91 % 1005,0 hPa 0,0 l/m 12,9 km/h (3 Bft) SO 135 0 min 0,0 UV-I 0 W/m 3,8 C 0,3 C 20,9 km/h (4 Bft)
01.03.2024 05:06 5,1 C 4,4 C 91 % 1005,0 hPa 0,0 l/m 11,3 km/h (2 Bft) S 180 0 min 0,0 UV-I 0 W/m 3,8 C 1,3 C 20,9 km/h (4 Bft)
01.03.2024 05:07 5,1 C 4,4 C 91 % 1004,9 hPa 0,0 l/m 19,3 km/h (3 Bft) S 180 0 min 0,0 UV-I 0 W/m 3,8 C -2,8 C 25,7 km/h (4 Bft)
01.03.2024 05:08 5,1 C 4,4 C 91 % 1005,0 hPa 0,0 l/m 12,9 km/h (3 Bft) S 180 0 min 0,0 UV-I 0 W/m 3,8 C 0,3 C 20,9 km/h (4 Bft)
01.03.2024 05:09 5,1 C 4,4 C 91 % 1005,0 hPa 0,0 l/m 16,1 km/h (3 Bft) S 180 0 min 0,0 UV-I 0 W/m 3,8 C -1,3 C 25,7 km/h (4 Bft)
01.03.2024 05:10 5,1 C 4,4 C 91 % 1005,1 hPa 0,0 l/m 14,5 km/h (3 Bft) S 180 0 min 0,0 UV-I 0 W/m 3,8 C -0,5 C 24,1 km/h (4 Bft)
01.03.2024 05:11 5,1 C 4,4 C 91 % 1005,0 hPa 0,0 l/m 11,3 km/h (2 Bft) S 180 0 min 0,0 UV-I 0 W/m 3,8 C 1,3 C 16,1 km/h (3 Bft)
01.03.2024 05:12 5,1 C 4,4 C 91 % 1005,0 hPa 0,0 l/m 14,5 km/h (3 Bft) SO 135 0 min 0,0 UV-I 0 W/m 3,8 C -0,5 C 19,3 km/h (3 Bft)
01.03.2024 05:13 5,1 C 4,4 C 91 % 1004,9 hPa 0,0 l/m 16,1 km/h (3 Bft) S 180 0 min 0,0 UV-I 0 W/m 3,8 C -1,3 C 20,9 km/h (4 Bft)
01.03.2024 05:14 5,2 C 4,4 C 91 % 1005,0 hPa 0,0 l/m 16,1 km/h (3 Bft) S-SO 157 0 min 0,0 UV-I 0 W/m 3,9 C -1,2 C 25,7 km/h (4 Bft)
01.03.2024 05:15 5,2 C 4,4 C 91 % 1005,0 hPa 0,0 l/m 12,9 km/h (3 Bft) S 180 0 min 0,0 UV-I 0 W/m 3,9 C 0,5 C 22,5 km/h (4 Bft)
01.03.2024 05:16 5,2 C 4,4 C 91 % 1005,0 hPa 0,0 l/m 11,3 km/h (2 Bft) S 180 0 min 0,0 UV-I 0 W/m 3,9 C 1,4 C 12,9 km/h (3 Bft)
01.03.2024 05:17 5,2 C 4,4 C 91 % 1005,0 hPa 0,0 l/m 9,7 km/h (2 Bft) S-SO 157 0 min 0,0 UV-I 0 W/m 3,9 C 2,5 C 16,1 km/h (3 Bft)
01.03.2024 05:18 5,2 C 4,4 C 91 % 1005,0 hPa 0,0 l/m 12,9 km/h (3 Bft) S-SO 157 0 min 0,0 UV-I 0 W/m 3,9 C 0,5 C 16,1 km/h (3 Bft)
01.03.2024 05:19 5,2 C 4,4 C 91 % 1005,0 hPa 0,0 l/m 14,5 km/h (3 Bft) S-SO 157 0 min 0,0 UV-I 0 W/m 3,9 C -0,4 C 20,9 km/h (4 Bft)
01.03.2024 05:20 5,1 C 4,4 C 91 % 1005,0 hPa 0,0 l/m 16,1 km/h (3 Bft) S-SO 157 0 min 0,0 UV-I 0 W/m 3,8 C -1,3 C 24,1 km/h (4 Bft)
01.03.2024 05:21 5,2 C 4,4 C 91 % 1005,0 hPa 0,0 l/m 9,7 km/h (2 Bft) S-SO 157 0 min 0,0 UV-I 0 W/m 3,9 C 2,5 C 17,7 km/h (3 Bft)
01.03.2024 05:22 5,2 C 4,4 C 91 % 1005,0 hPa 0,0 l/m 16,1 km/h (3 Bft) S 180 0 min 0,0 UV-I 0 W/m 3,9 C -1,2 C 20,9 km/h (4 Bft)
01.03.2024 05:23 5,1 C 4,4 C 91 % 1005,1 hPa 0,0 l/m 11,3 km/h (2 Bft) S 180 0 min 0,0 UV-I 0 W/m 3,8 C 1,3 C 16,1 km/h (3 Bft)
01.03.2024 05:24 5,2 C 4,4 C 91 % 1005,1 hPa 0,0 l/m 12,9 km/h (3 Bft) S-SO 157 0 min 0,0 UV-I 0 W/m 3,9 C 0,5 C 19,3 km/h (3 Bft)
01.03.2024 05:25 5,1 C 4,4 C 91 % 1005,0 hPa 0,0 l/m 17,7 km/h (3 Bft) S-SW 202 0 min 0,0 UV-I 0 W/m 3,8 C -2,1 C 22,5 km/h (4 Bft)
01.03.2024 05:26 5,2 C 4,4 C 91 % 1005,0 hPa 0,0 l/m 12,9 km/h (3 Bft) S 180 0 min 0,0 UV-I 0 W/m 3,9 C 0,5 C 19,3 km/h (3 Bft)
01.03.2024 05:27 5,1 C 4,4 C 91 % 1005,0 hPa 0,0 l/m 11,3 km/h (2 Bft) S-SO 157 0 min 0,0 UV-I 0 W/m 3,8 C 1,3 C 16,1 km/h (3 Bft)
01.03.2024 05:28 5,2 C 4,4 C 91 % 1005,0 hPa 0,0 l/m 9,7 km/h (2 Bft) S 180 0 min 0,0 UV-I 0 W/m 3,9 C 2,5 C 17,7 km/h (3 Bft)
01.03.2024 05:29 5,1 C 4,4 C 91 % 1005,0 hPa 0,0 l/m 14,5 km/h (3 Bft) S 180 0 min 0,0 UV-I 0 W/m 3,8 C -0,5 C 22,5 km/h (4 Bft)
01.03.2024 05:30 5,2 C 4,4 C 91 % 1005,0 hPa 0,0 l/m 17,7 km/h (3 Bft) S 180 0 min 0,0 UV-I 0 W/m 3,9 C -2,0 C 25,7 km/h (4 Bft)
01.03.2024 05:31 5,1 C 4,4 C 91 % 1005,1 hPa 0,0 l/m 16,1 km/h (3 Bft) S 180 0 min 0,0 UV-I 0 W/m 3,8 C -1,3 C 20,9 km/h (4 Bft)
01.03.2024 05:32 5,1 C 4,4 C 91 % 1005,0 hPa 0,0 l/m 16,1 km/h (3 Bft) S 180 0 min 0,0 UV-I 0 W/m 3,8 C -1,3 C 25,7 km/h (4 Bft)
01.03.2024 05:33 5,1 C 4,4 C 91 % 1004,9 hPa 0,0 l/m 17,7 km/h (3 Bft) S 180 0 min 0,0 UV-I 0 W/m 3,8 C -2,1 C 24,1 km/h (4 Bft)
01.03.2024 05:34 5,1 C 4,4 C 91 % 1005,0 hPa 0,0 l/m 17,7 km/h (3 Bft) S 180 0 min 0,0 UV-I 0 W/m 3,8 C -2,1 C 20,9 km/h (4 Bft)
01.03.2024 05:35 5,1 C 4,4 C 91 % 1005,0 hPa 0,0 l/m 16,1 km/h (3 Bft) S 180 0 min 0,0 UV-I 0 W/m 3,8 C -1,3 C 24,1 km/h (4 Bft)
01.03.2024 05:36 5,2 C 4,4 C 91 % 1005,0 hPa 0,0 l/m 17,7 km/h (3 Bft) S 180 0 min 0,0 UV-I 0 W/m 3,9 C -2,0 C 24,1 km/h (4 Bft)
01.03.2024 05:37 5,2 C 4,4 C 91 % 1005,0 hPa 0,0 l/m 19,3 km/h (3 Bft) S-SO 157 0 min 0,0 UV-I 0 W/m 3,9 C -2,6 C 22,5 km/h (4 Bft)
01.03.2024 05:38 5,1 C 4,4 C 91 % 1005,0 hPa 0,0 l/m 16,1 km/h (3 Bft) S 180 0 min 0,0 UV-I 0 W/m 3,8 C -1,3 C 25,7 km/h (4 Bft)
01.03.2024 05:39 5,2 C 4,4 C 91 % 1005,0 hPa 0,0 l/m 12,9 km/h (3 Bft) S 180 0 min 0,0 UV-I 0 W/m 3,9 C 0,5 C 16,1 km/h (3 Bft)
01.03.2024 05:40 5,2 C 4,4 C 91 % 1004,9 hPa 0,0 l/m 14,5 km/h (3 Bft) S 180 0 min 0,0 UV-I 0 W/m 3,9 C -0,4 C 24,1 km/h (4 Bft)
01.03.2024 05:41 5,2 C 4,4 C 91 % 1005,0 hPa 0,0 l/m 19,3 km/h (3 Bft) S-SO 157 0 min 0,0 UV-I 0 W/m 3,9 C -2,6 C 27,4 km/h (4 Bft)
01.03.2024 05:42 5,2 C 4,4 C 91 % 1004,9 hPa 0,0 l/m 16,1 km/h (3 Bft) S-SO 157 0 min 0,0 UV-I 0 W/m 3,9 C -1,2 C 25,7 km/h (4 Bft)
01.03.2024 05:43 5,2 C 4,4 C 91 % 1004,9 hPa 0,0 l/m 12,9 km/h (3 Bft) S 180 0 min 0,0 UV-I 0 W/m 3,9 C 0,5 C 22,5 km/h (4 Bft)
01.03.2024 05:44 5,2 C 4,4 C 91 % 1005,1 hPa 0,0 l/m 12,9 km/h (3 Bft) SO 135 0 min 0,0 UV-I 0 W/m 3,9 C 0,5 C 19,3 km/h (3 Bft)
01.03.2024 05:45 5,2 C 4,4 C 91 % 1005,0 hPa 0,0 l/m 17,7 km/h (3 Bft) S-SO 157 0 min 0,0 UV-I 0 W/m 3,9 C -2,0 C 27,4 km/h (4 Bft)
01.03.2024 05:46 5,2 C 4,4 C 91 % 1005,0 hPa 0,0 l/m 16,1 km/h (3 Bft) S 180 0 min 0,0 UV-I 0 W/m 3,9 C -1,2 C 25,7 km/h (4 Bft)
01.03.2024 05:47 5,2 C 4,4 C 91 % 1005,0 hPa 0,0 l/m 12,9 km/h (3 Bft) S 180 0 min 0,0 UV-I 0 W/m 3,9 C 0,5 C 19,3 km/h (3 Bft)
01.03.2024 05:48 5,2 C 4,4 C 91 % 1005,0 hPa 0,0 l/m 12,9 km/h (3 Bft) S-SO 157 0 min 0,0 UV-I 0 W/m 3,9 C 0,5 C 19,3 km/h (3 Bft)
01.03.2024 05:49 5,2 C 4,4 C 91 % 1005,0 hPa 0,0 l/m 19,3 km/h (3 Bft) S-SO 157 0 min 0,0 UV-I 0 W/m 3,9 C -2,6 C 25,7 km/h (4 Bft)
01.03.2024 05:50 5,1 C 4,4 C 91 % 1005,0 hPa 0,0 l/m 14,5 km/h (3 Bft) S 180 0 min 0,0 UV-I 0 W/m 3,8 C -0,5 C 24,1 km/h (4 Bft)
01.03.2024 05:51 5,2 C 4,4 C 91 % 1005,0 hPa 0,0 l/m 20,9 km/h (4 Bft) S-SO 157 0 min 0,0 UV-I 0 W/m 3,9 C -3,3 C 25,7 km/h (4 Bft)
01.03.2024 05:52 5,2 C 4,4 C 91 % 1005,0 hPa 0,0 l/m 12,9 km/h (3 Bft) S-SO 157 0 min 0,0 UV-I 0 W/m 3,9 C 0,5 C 24,1 km/h (4 Bft)
01.03.2024 05:53 5,2 C 4,4 C 91 % 1005,0 hPa 0,0 l/m 12,9 km/h (3 Bft) S 180 0 min 0,0 UV-I 0 W/m 3,9 C 0,5 C 25,7 km/h (4 Bft)
01.03.2024 05:54 5,2 C 4,4 C 91 % 1005,0 hPa 0,0 l/m 14,5 km/h (3 Bft) S-SO 157 0 min 0,0 UV-I 0 W/m 3,9 C -0,4 C 25,7 km/h (4 Bft)
01.03.2024 05:55 5,1 C 4,4 C 91 % 1005,0 hPa 0,0 l/m 16,1 km/h (3 Bft) S 180 0 min 0,0 UV-I 0 W/m 3,8 C -1,3 C 29,0 km/h (5 Bft)
01.03.2024 05:56 5,2 C 4,4 C 91 % 1004,9 hPa 0,0 l/m 17,7 km/h (3 Bft) S 180 0 min 0,0 UV-I 0 W/m 3,9 C -2,0 C 30,6 km/h (5 Bft)
01.03.2024 05:57 5,2 C 4,4 C 91 % 1005,0 hPa 0,0 l/m 14,5 km/h (3 Bft) S 180 0 min 0,0 UV-I 0 W/m 3,9 C -0,4 C 19,3 km/h (3 Bft)
01.03.2024 05:58 5,1 C 4,4 C 91 % 1005,0 hPa 0,0 l/m 11,3 km/h (2 Bft) S 180 0 min 0,0 UV-I 0 W/m 3,8 C 1,3 C 14,5 km/h (3 Bft)
01.03.2024 05:59 5,1 C 4,4 C 91 % 1005,0 hPa 0,0 l/m 14,5 km/h (3 Bft) S 180 0 min 0,0 UV-I 0 W/m 3,8 C -0,5 C 22,5 km/h (4 Bft)
01.03.2024 06:00 5,2 C 4,4 C 91 % 1005,0 hPa 0,0 l/m 16,1 km/h (3 Bft) S 180 0 min 0,0 UV-I 0 W/m 3,9 C -1,2 C 22,5 km/h (4 Bft)
01.03.2024 06:01 5,2 C 4,4 C 91 % 1005,1 hPa 0,0 l/m 14,5 km/h (3 Bft) S 180 0 min 0,0 UV-I 0 W/m 3,9 C -0,4 C 19,3 km/h (3 Bft)
01.03.2024 06:02 5,2 C 4,4 C 91 % 1005,0 hPa 0,0 l/m 14,5 km/h (3 Bft) S-SO 157 0 min 0,0 UV-I 0 W/m 3,9 C -0,4 C 20,9 km/h (4 Bft)
01.03.2024 06:03 5,2 C 4,4 C 91 % 1004,9 hPa 0,0 l/m 16,1 km/h (3 Bft) S 180 0 min 0,0 UV-I 0 W/m 3,9 C -1,2 C 22,5 km/h (4 Bft)
01.03.2024 06:04 5,2 C 4,4 C 91 % 1004,9 hPa 0,0 l/m 17,7 km/h (3 Bft) S-SO 157 0 min 0,0 UV-I 0 W/m 3,9 C -2,0 C 22,5 km/h (4 Bft)
01.03.2024 06:05 5,2 C 4,4 C 91 % 1004,9 hPa 0,0 l/m 14,5 km/h (3 Bft) S 180 0 min 0,0 UV-I 0 W/m 3,9 C -0,4 C 22,5 km/h (4 Bft)
01.03.2024 06:06 5,2 C 4,4 C 91 % 1004,9 hPa 0,0 l/m 16,1 km/h (3 Bft) S-SO 157 0 min 0,0 UV-I 0 W/m 3,9 C -1,2 C 24,1 km/h (4 Bft)
01.03.2024 06:07 5,2 C 4,4 C 91 % 1004,8 hPa 0,0 l/m 17,7 km/h (3 Bft) S-SO 157 0 min 0,0 UV-I 0 W/m 3,9 C -2,0 C 24,1 km/h (4 Bft)
01.03.2024 06:08 5,2 C 4,4 C 91 % 1004,9 hPa 0,0 l/m 11,3 km/h (2 Bft) S 180 0 min 0,0 UV-I 0 W/m 3,9 C 1,4 C 14,5 km/h (3 Bft)
01.03.2024 06:09 5,2 C 4,4 C 91 % 1004,8 hPa 0,0 l/m 12,9 km/h (3 Bft) S 180 0 min 0,0 UV-I 0 W/m 3,9 C 0,5 C 19,3 km/h (3 Bft)
01.03.2024 06:10 5,2 C 4,4 C 91 % 1004,9 hPa 0,0 l/m 14,5 km/h (3 Bft) S 180 0 min 0,0 UV-I 0 W/m 3,9 C -0,4 C 20,9 km/h (4 Bft)
01.03.2024 06:11 5,2 C 4,4 C 91 % 1004,8 hPa 0,0 l/m 12,9 km/h (3 Bft) S 180 0 min 0,0 UV-I 0 W/m 3,9 C 0,5 C 17,7 km/h (3 Bft)
01.03.2024 06:12 5,2 C 4,4 C 91 % 1004,9 hPa 0,0 l/m 11,3 km/h (2 Bft) S 180 0 min 0,0 UV-I 0 W/m 3,9 C 1,4 C 22,5 km/h (4 Bft)
01.03.2024 06:13 5,2 C 4,4 C 91 % 1004,8 hPa 0,0 l/m 12,9 km/h (3 Bft) S 180 0 min 0,0 UV-I 0 W/m 3,9 C 0,5 C 16,1 km/h (3 Bft)
01.03.2024 06:14 5,2 C 4,4 C 91 % 1005,0 hPa 0,0 l/m 14,5 km/h (3 Bft) S 180 0 min 0,0 UV-I 0 W/m 3,9 C -0,4 C 19,3 km/h (3 Bft)
01.03.2024 06:15 5,2 C 4,4 C 91 % 1004,9 hPa 0,0 l/m 14,5 km/h (3 Bft) S 180 0 min 0,0 UV-I 0 W/m 3,9 C -0,4 C 20,9 km/h (4 Bft)
01.03.2024 06:16 5,2 C 4,4 C 91 % 1004,9 hPa 0,0 l/m 14,5 km/h (3 Bft) S 180 0 min 0,0 UV-I 0 W/m 3,9 C -0,4 C 20,9 km/h (4 Bft)
01.03.2024 06:17 5,2 C 4,4 C 91 % 1004,9 hPa 0,0 l/m 12,9 km/h (3 Bft) S 180 0 min 0,0 UV-I 0 W/m 3,9 C 0,5 C 20,9 km/h (4 Bft)
01.03.2024 06:18 5,2 C 4,4 C 91 % 1004,9 hPa 0,0 l/m 14,5 km/h (3 Bft) S 180 0 min 0,0 UV-I 0 W/m 3,9 C -0,4 C 22,5 km/h (4 Bft)
01.03.2024 06:19 5,2 C 4,4 C 91 % 1005,0 hPa 0,0 l/m 22,5 km/h (4 Bft) S 180 0 min 0,0 UV-I 0 W/m 3,9 C -3,8 C 35,4 km/h (5 Bft)
01.03.2024 06:20 5,2 C 4,4 C 91 % 1004,8 hPa 0,0 l/m 19,3 km/h (3 Bft) S 180 0 min 0,0 UV-I 0 W/m 3,9 C -2,6 C 27,4 km/h (4 Bft)
01.03.2024 06:21 5,2 C 4,4 C 91 % 1004,8 hPa 0,0 l/m 19,3 km/h (3 Bft) S-SO 157 0 min 0,0 UV-I 0 W/m 3,9 C -2,6 C 27,4 km/h (4 Bft)
01.03.2024 06:22 5,3 C 5,0 C 91 % 1004,8 hPa 0,0 l/m 17,7 km/h (3 Bft) S 180 0 min 0,0 UV-I 0 W/m 4,0 C -1,8 C 30,6 km/h (5 Bft)
01.03.2024 06:23 5,3 C 5,0 C 91 % 1004,9 hPa 0,0 l/m 16,1 km/h (3 Bft) S-SO 157 0 min 0,0 UV-I 0 W/m 4,0 C -1,1 C 24,1 km/h (4 Bft)
01.03.2024 06:24 5,3 C 5,0 C 91 % 1005,0 hPa 0,0 l/m 19,3 km/h (3 Bft) S 180 0 min 0,0 UV-I 0 W/m 4,0 C -2,5 C 30,6 km/h (5 Bft)
01.03.2024 06:25 5,3 C 5,0 C 92 % 1004,9 hPa 0,0 l/m 19,3 km/h (3 Bft) S 180 0 min 0,0 UV-I 0 W/m 4,1 C -2,5 C 27,4 km/h (4 Bft)
01.03.2024 06:26 5,3 C 5,0 C 92 % 1004,9 hPa 0,0 l/m 17,7 km/h (3 Bft) S 180 0 min 0,0 UV-I 0 W/m 4,1 C -1,8 C 24,1 km/h (4 Bft)
01.03.2024 06:27 5,3 C 5,0 C 92 % 1005,1 hPa 0,0 l/m 16,1 km/h (3 Bft) S 180 0 min 0,0 UV-I 0 W/m 4,1 C -1,1 C 20,9 km/h (4 Bft)
01.03.2024 06:28 5,3 C 5,0 C 92 % 1005,0 hPa 0,0 l/m 20,9 km/h (4 Bft) S 180 0 min 0,0 UV-I 0 W/m 4,1 C -3,1 C 32,2 km/h (5 Bft)
01.03.2024 06:29 5,4 C 5,0 C 92 % 1005,0 hPa 0,0 l/m 19,3 km/h (3 Bft) S 180 0 min 0,0 UV-I 0 W/m 4,2 C -2,4 C 27,4 km/h (4 Bft)
01.03.2024 06:30 5,3 C 5,0 C 92 % 1005,0 hPa 0,0 l/m 16,1 km/h (3 Bft) S-SO 157 0 min 0,0 UV-I 0 W/m 4,1 C -1,1 C 20,9 km/h (4 Bft)
01.03.2024 06:31 5,3 C 5,0 C 92 % 1005,1 hPa 0,0 l/m 19,3 km/h (3 Bft) S-SO 157 0 min 0,0 UV-I 0 W/m 4,1 C -2,5 C 25,7 km/h (4 Bft)
01.03.2024 06:32 5,3 C 5,0 C 92 % 1005,1 hPa 0,0 l/m 17,7 km/h (3 Bft) S 180 0 min 0,0 UV-I 0 W/m 4,1 C -1,8 C 27,4 km/h (4 Bft)
01.03.2024 06:33 5,3 C 5,0 C 92 % 1005,0 hPa 0,0 l/m 17,7 km/h (3 Bft) S 180 0 min 0,0 UV-I 0 W/m 4,1 C -1,8 C 25,7 km/h (4 Bft)
01.03.2024 06:34 5,4 C 5,0 C 92 % 1005,1 hPa 0,0 l/m 12,9 km/h (3 Bft) S-SO 157 0 min 0,0 UV-I 0 W/m 4,2 C 0,7 C 19,3 km/h (3 Bft)
01.03.2024 06:35 5,3 C 5,0 C 91 % 1005,1 hPa 0,0 l/m 11,3 km/h (2 Bft) S-SO 157 0 min 0,0 UV-I 0 W/m 4,0 C 1,5 C 19,3 km/h (3 Bft)
01.03.2024 06:36 5,4 C 5,0 C 91 % 1005,0 hPa 0,0 l/m 14,5 km/h (3 Bft) S 180 0 min 0,0 UV-I 0 W/m 4,1 C -0,2 C 22,5 km/h (4 Bft)
01.03.2024 06:37 5,4 C 5,0 C 92 % 1005,1 hPa 0,0 l/m 16,1 km/h (3 Bft) S 180 0 min 0,0 UV-I 0 W/m 4,2 C -1,0 C 24,1 km/h (4 Bft)
01.03.2024 06:38 5,3 C 5,0 C 92 % 1005,2 hPa 0,0 l/m 12,9 km/h (3 Bft) S-SO 157 0 min 0,0 UV-I 0 W/m 4,1 C 0,6 C 20,9 km/h (4 Bft)
01.03.2024 06:39 5,4 C 5,0 C 92 % 1005,2 hPa 0,0 l/m 16,1 km/h (3 Bft) S 180 0 min 0,0 UV-I 0 W/m 4,2 C -1,0 C 24,1 km/h (4 Bft)
01.03.2024 06:40 5,4 C 5,0 C 92 % 1005,2 hPa 0,0 l/m 19,3 km/h (3 Bft) S 180 0 min 0,0 UV-I 0 W/m 4,2 C -2,4 C 29,0 km/h (5 Bft)
01.03.2024 06:41 5,4 C 5,0 C 92 % 1005,2 hPa 0,0 l/m 16,1 km/h (3 Bft) S-SO 157 0 min 0,0 UV-I 0 W/m 4,2 C -1,0 C 25,7 km/h (4 Bft)
01.03.2024 06:42 5,3 C 5,0 C 92 % 1005,1 hPa 0,0 l/m 12,9 km/h (3 Bft) S-SO 157 0 min 0,0 UV-I 0 W/m 4,1 C 0,6 C 19,3 km/h (3 Bft)
01.03.2024 06:43 5,4 C 5,0 C 92 % 1005,2 hPa 0,0 l/m 12,9 km/h (3 Bft) S 180 0 min 0,0 UV-I 0 W/m 4,2 C 0,7 C 19,3 km/h (3 Bft)
01.03.2024 06:44 5,4 C 5,0 C 92 % 1005,2 hPa 0,0 l/m 12,9 km/h (3 Bft) S-SO 157 0 min 0,0 UV-I 0 W/m 4,2 C 0,7 C 19,3 km/h (3 Bft)
01.03.2024 06:45 5,3 C 5,0 C 92 % 1005,3 hPa 0,0 l/m 11,3 km/h (2 Bft) S-SO 157 0 min 0,0 UV-I 0 W/m 4,1 C 1,5 C 22,5 km/h (4 Bft)
01.03.2024 06:46 5,3 C 5,0 C 92 % 1005,3 hPa 0,0 l/m 16,1 km/h (3 Bft) S-SO 157 0 min 0,0 UV-I 0 W/m 4,1 C -1,1 C 20,9 km/h (4 Bft)
01.03.2024 06:47 5,3 C 5,0 C 92 % 1005,2 hPa 0,0 l/m 17,7 km/h (3 Bft) S-SO 157 0 min 0,0 UV-I 0 W/m 4,1 C -1,8 C 25,7 km/h (4 Bft)
01.03.2024 06:48 5,3 C 5,0 C 92 % 1005,3 hPa 0,0 l/m 11,3 km/h (2 Bft) S-SO 157 0 min 0,0 UV-I 0 W/m 4,1 C 1,5 C 16,1 km/h (3 Bft)
01.03.2024 06:49 5,3 C 5,0 C 92 % 1005,2 hPa 0,0 l/m 14,5 km/h (3 Bft) S-SO 157 0 min 0,0 UV-I 0 W/m 4,1 C -0,3 C 20,9 km/h (4 Bft)
01.03.2024 06:50 5,3 C 5,0 C 92 % 1005,4 hPa 0,0 l/m 9,7 km/h (2 Bft) S 180 0 min 0,0 UV-I 0 W/m 4,1 C 2,6 C 14,5 km/h (3 Bft)
01.03.2024 06:51 5,3 C 5,0 C 92 % 1005,3 hPa 0,0 l/m 12,9 km/h (3 Bft) S-SO 157 0 min 0,0 UV-I 0 W/m 4,1 C 0,6 C 17,7 km/h (3 Bft)
01.03.2024 06:52 5,3 C 5,0 C 92 % 1005,3 hPa 0,0 l/m 16,1 km/h (3 Bft) S 180 0 min 0,0 UV-I 0 W/m 4,1 C -1,1 C 22,5 km/h (4 Bft)
01.03.2024 06:53 5,3 C 5,0 C 92 % 1005,2 hPa 0,0 l/m 11,3 km/h (2 Bft) S 180 0 min 0,0 UV-I 0 W/m 4,1 C 1,5 C 17,7 km/h (3 Bft)
01.03.2024 06:54 5,3 C 5,0 C 92 % 1005,3 hPa 0,0 l/m 14,5 km/h (3 Bft) S-SW 202 0 min 0,0 UV-I 0 W/m 4,1 C -0,3 C 17,7 km/h (3 Bft)
01.03.2024 06:55 5,3 C 5,0 C 92 % 1005,3 hPa 0,0 l/m 12,9 km/h (3 Bft) S 180 0 min 0,0 UV-I 0 W/m 4,1 C 0,6 C 19,3 km/h (3 Bft)
01.03.2024 06:56 5,4 C 5,0 C 92 % 1005,4 hPa 0,0 l/m 14,5 km/h (3 Bft) S 180 0 min 0,0 UV-I 0 W/m 4,2 C -0,2 C 17,7 km/h (3 Bft)
01.03.2024 06:57 5,4 C 5,0 C 92 % 1005,4 hPa 0,2 l/m 14,5 km/h (3 Bft) S-SW 202 0 min 0,0 UV-I 0 W/m 4,2 C -0,2 C 17,7 km/h (3 Bft)
01.03.2024 06:58 5,4 C 5,0 C 92 % 1005,5 hPa 0,0 l/m 12,9 km/h (3 Bft) S 180 0 min 0,0 UV-I 0 W/m 4,2 C 0,7 C 19,3 km/h (3 Bft)
01.03.2024 06:59 5,4 C 5,0 C 92 % 1005,4 hPa 0,0 l/m 9,7 km/h (2 Bft) S 180 0 min 0,0 UV-I 0 W/m 4,2 C 2,7 C 14,5 km/h (3 Bft)
01.03.2024 07:00 5,4 C 5,0 C 92 % 1005,5 hPa 0,0 l/m 11,3 km/h (2 Bft) S-SW 202 0 min 0,0 UV-I 0 W/m 4,2 C 1,7 C 16,1 km/h (3 Bft)
01.03.2024 07:01 5,4 C 5,0 C 92 % 1005,3 hPa 0,0 l/m 9,7 km/h (2 Bft) S-SW 202 0 min 0,0 UV-I 0 W/m 4,2 C 2,7 C 14,5 km/h (3 Bft)
01.03.2024 07:02 5,4 C 5,0 C 92 % 1005,5 hPa 0,0 l/m 11,3 km/h (2 Bft) S-SW 202 0 min 0,0 UV-I 0 W/m 4,2 C 1,7 C 20,9 km/h (4 Bft)
01.03.2024 07:03 5,4 C 5,0 C 92 % 1005,5 hPa 0,0 l/m 16,1 km/h (3 Bft) S-SW 202 0 min 0,0 UV-I 0 W/m 4,2 C -1,0 C 24,1 km/h (4 Bft)
01.03.2024 07:04 5,4 C 5,0 C 92 % 1005,4 hPa 0,0 l/m 17,7 km/h (3 Bft) S-SW 202 0 min 0,0 UV-I 0 W/m 4,2 C -1,7 C 22,5 km/h (4 Bft)
01.03.2024 07:05 5,4 C 5,0 C 92 % 1005,4 hPa 0,0 l/m 17,7 km/h (3 Bft) SW 225 0 min 0,0 UV-I 0 W/m 4,2 C -1,7 C 24,1 km/h (4 Bft)
01.03.2024 07:06 5,4 C 5,0 C 92 % 1005,5 hPa 0,0 l/m 19,3 km/h (3 Bft) S-SW 202 0 min 0,0 UV-I 0 W/m 4,2 C -2,4 C 22,5 km/h (4 Bft)
01.03.2024 07:07 5,4 C 5,0 C 92 % 1005,5 hPa 0,0 l/m 19,3 km/h (3 Bft) S-SW 202 0 min 0,0 UV-I 0 W/m 4,2 C -2,4 C 24,1 km/h (4 Bft)
01.03.2024 07:08 5,4 C 5,0 C 92 % 1005,5 hPa 0,0 l/m 16,1 km/h (3 Bft) S 180 0 min 0,0 UV-I 0 W/m 4,2 C -1,0 C 24,1 km/h (4 Bft)
01.03.2024 07:09 5,3 C 5,0 C 92 % 1005,5 hPa 0,0 l/m 14,5 km/h (3 Bft) S-SW 202 0 min 0,0 UV-I 0 W/m 4,1 C -0,3 C 25,7 km/h (4 Bft)
01.03.2024 07:10 5,4 C 5,0 C 92 % 1005,5 hPa 0,0 l/m 20,9 km/h (4 Bft) S-SW 202 0 min 0,0 UV-I 0 W/m 4,2 C -3,0 C 27,4 km/h (4 Bft)
01.03.2024 07:11 5,4 C 5,0 C 92 % 1005,4 hPa 0,0 l/m 17,7 km/h (3 Bft) S-SW 202 0 min 0,0 UV-I 0 W/m 4,2 C -1,7 C 24,1 km/h (4 Bft)
01.03.2024 07:12 5,4 C 5,0 C 92 % 1005,5 hPa 0,0 l/m 16,1 km/h (3 Bft) S-SW 202 0 min 0,0 UV-I 0 W/m 4,2 C -1,0 C 22,5 km/h (4 Bft)
01.03.2024 07:13 5,4 C 5,0 C 92 % 1005,5 hPa 0,0 l/m 12,9 km/h (3 Bft) S 180 0 min 0,0 UV-I 0 W/m 4,2 C 0,7 C 20,9 km/h (4 Bft)
01.03.2024 07:14 5,3 C 5,0 C 92 % 1005,5 hPa 0,0 l/m 17,7 km/h (3 Bft) S 180 0 min 0,0 UV-I 0 W/m 4,1 C -1,8 C 24,1 km/h (4 Bft)
01.03.2024 07:15 5,3 C 5,0 C 92 % 1005,6 hPa 0,0 l/m 12,9 km/h (3 Bft) S 180 0 min 0,0 UV-I 0 W/m 4,1 C 0,6 C 25,7 km/h (4 Bft)
01.03.2024 07:16 5,3 C 5,0 C 92 % 1005,4 hPa 0,0 l/m 11,3 km/h (2 Bft) SW 225 0 min 0,0 UV-I 0 W/m 4,1 C 1,5 C 14,5 km/h (3 Bft)
01.03.2024 07:17 5,3 C 5,0 C 92 % 1005,6 hPa 0,0 l/m 14,5 km/h (3 Bft) S-SW 202 0 min 0,0 UV-I 0 W/m 4,1 C -0,3 C 19,3 km/h (3 Bft)
01.03.2024 07:18 5,3 C 5,0 C 92 % 1005,4 hPa 0,0 l/m 9,7 km/h (2 Bft) S-SW 202 0 min 0,0 UV-I 0 W/m 4,1 C 2,6 C 14,5 km/h (3 Bft)
01.03.2024 07:19 5,3 C 5,0 C 92 % 1005,5 hPa 0,0 l/m 8,0 km/h (2 Bft) S-SW 202 0 min 0,0 UV-I 0 W/m 4,1 C 3,9 C 11,3 km/h (2 Bft)
01.03.2024 07:20 5,3 C 5,0 C 92 % 1005,5 hPa 0,0 l/m 14,5 km/h (3 Bft) S-SW 202 0 min 0,0 UV-I 0 W/m 4,1 C -0,3 C 19,3 km/h (3 Bft)
01.03.2024 07:21 5,3 C 4,4 C 92 % 1005,4 hPa 0,0 l/m 14,5 km/h (3 Bft) S-SW 202 0 min 0,0 UV-I 0 W/m 4,1 C -0,3 C 22,5 km/h (4 Bft)
01.03.2024 07:22 5,3 C 4,4 C 92 % 1005,5 hPa 0,0 l/m 14,5 km/h (3 Bft) S-SW 202 0 min 0,0 UV-I 0 W/m 4,1 C -0,3 C 19,3 km/h (3 Bft)
01.03.2024 07:23 5,2 C 4,4 C 92 % 1005,5 hPa 0,0 l/m 11,3 km/h (2 Bft) S-SW 202 0 min 0,0 UV-I 0 W/m 4,0 C 1,4 C 17,7 km/h (3 Bft)
01.03.2024 07:24 5,2 C 4,4 C 92 % 1005,4 hPa 0,0 l/m 12,9 km/h (3 Bft) S-SW 202 0 min 0,0 UV-I 0 W/m 4,0 C 0,5 C 17,7 km/h (3 Bft)
01.03.2024 07:25 5,2 C 4,4 C 92 % 1005,4 hPa 0,0 l/m 16,1 km/h (3 Bft) S-SW 202 0 min 0,0 UV-I 0 W/m 4,0 C -1,2 C 22,5 km/h (4 Bft)
01.03.2024 07:26 5,2 C 4,4 C 92 % 1005,5 hPa 0,0 l/m 16,1 km/h (3 Bft) S 180 0 min 0,0 UV-I 0 W/m 4,0 C -1,2 C 19,3 km/h (3 Bft)
01.03.2024 07:27 5,2 C 4,4 C 92 % 1005,4 hPa 0,0 l/m 11,3 km/h (2 Bft) S-SW 202 0 min 0,0 UV-I 0 W/m 4,0 C 1,4 C 16,1 km/h (3 Bft)
01.03.2024 07:28 5,2 C 4,4 C 92 % 1005,4 hPa 0,0 l/m 11,3 km/h (2 Bft) S-SW 202 0 min 0,0 UV-I 0 W/m 4,0 C 1,4 C 14,5 km/h (3 Bft)
01.03.2024 07:29 5,2 C 4,4 C 92 % 1005,5 hPa 0,0 l/m 11,3 km/h (2 Bft) S 180 0 min 0,0 UV-I 0 W/m 4,0 C 1,4 C 17,7 km/h (3 Bft)
01.03.2024 07:30 5,1 C 4,4 C 92 % 1005,5 hPa 0,0 l/m 9,7 km/h (2 Bft) S-SW 202 0 min 0,0 UV-I 0 W/m 3,9 C 2,4 C 11,3 km/h (2 Bft)
01.03.2024 07:31 5,1 C 4,4 C 92 % 1005,5 hPa 0,0 l/m 9,7 km/h (2 Bft) S-SW 202 0 min 0,0 UV-I 0 W/m 3,9 C 2,4 C 14,5 km/h (3 Bft)
01.03.2024 07:32 5,1 C 4,4 C 92 % 1005,5 hPa 0,0 l/m 12,9 km/h (3 Bft) S-SW 202 0 min 0,0 UV-I 0 W/m 3,9 C 0,3 C 16,1 km/h (3 Bft)
01.03.2024 07:33 5,1 C 4,4 C 92 % 1005,5 hPa 0,0 l/m 6,4 km/h (2 Bft) S-SW 202 0 min 0,0 UV-I 5 W/m 3,9 C 5,1 C 9,7 km/h (2 Bft)
01.03.2024 07:34 5,1 C 4,4 C 92 % 1005,5 hPa 0,0 l/m 9,7 km/h (2 Bft) S 180 0 min 0,0 UV-I 5 W/m 3,9 C 2,4 C 14,5 km/h (3 Bft)
01.03.2024 07:35 5,0 C 4,4 C 92 % 1005,5 hPa 0,0 l/m 9,7 km/h (2 Bft) S 180 0 min 0,0 UV-I 5 W/m 3,8 C 2,3 C 16,1 km/h (3 Bft)
01.03.2024 07:36 5,0 C 4,4 C 92 % 1005,5 hPa 0,0 l/m 12,9 km/h (3 Bft) S-SW 202 0 min 0,0 UV-I 5 W/m 3,8 C 0,2 C 17,7 km/h (3 Bft)
01.03.2024 07:37 5,0 C 4,4 C 92 % 1005,6 hPa 0,0 l/m 14,5 km/h (3 Bft) S 180 0 min 0,0 UV-I 5 W/m 3,8 C -0,7 C 19,3 km/h (3 Bft)
01.03.2024 07:38 5,0 C 4,4 C 92 % 1005,6 hPa 0,0 l/m 12,9 km/h (3 Bft) S-SW 202 0 min 0,0 UV-I 5 W/m 3,8 C 0,2 C 16,1 km/h (3 Bft)
01.03.2024 07:39 4,9 C 4,4 C 92 % 1005,6 hPa 0,0 l/m 14,5 km/h (3 Bft) S 180 0 min 0,0 UV-I 5 W/m 3,7 C -0,8 C 19,3 km/h (3 Bft)
01.03.2024 07:40 4,9 C 4,4 C 92 % 1005,6 hPa 0,0 l/m 16,1 km/h (3 Bft) S-SW 202 0 min 0,0 UV-I 5 W/m 3,7 C -1,6 C 20,9 km/h (4 Bft)
01.03.2024 07:41 4,8 C 4,4 C 92 % 1005,6 hPa 0,0 l/m 16,1 km/h (3 Bft) S-SW 202 0 min 0,0 UV-I 5 W/m 3,6 C -1,7 C 19,3 km/h (3 Bft)
01.03.2024 07:42 4,8 C 4,4 C 92 % 1005,7 hPa 0,0 l/m 12,9 km/h (3 Bft) S-SW 202 0 min 0,0 UV-I 7 W/m 3,6 C -0,0 C 17,7 km/h (3 Bft)
01.03.2024 07:43 4,8 C 4,4 C 92 % 1005,7 hPa 0,0 l/m 14,5 km/h (3 Bft) S-SW 202 0 min 0,0 UV-I 9 W/m 3,6 C -0,9 C 19,3 km/h (3 Bft)
01.03.2024 07:44 4,8 C 4,4 C 92 % 1005,7 hPa 0,0 l/m 14,5 km/h (3 Bft) S-SW 202 0 min 0,0 UV-I 9 W/m 3,6 C -0,9 C 19,3 km/h (3 Bft)
01.03.2024 07:45 4,8 C 4,4 C 92 % 1005,6 hPa 0,0 l/m 12,9 km/h (3 Bft) S-SW 202 0 min 0,0 UV-I 11 W/m 3,6 C -0,0 C 16,1 km/h (3 Bft)
01.03.2024 07:46 4,7 C 4,4 C 92 % 1005,7 hPa 0,0 l/m 14,5 km/h (3 Bft) S 180 0 min 0,0 UV-I 11 W/m 3,5 C -1,0 C 17,7 km/h (3 Bft)
01.03.2024 07:47 4,7 C 3,9 C 92 % 1005,6 hPa 0,0 l/m 12,9 km/h (3 Bft) S-SW 202 0 min 0,0 UV-I 11 W/m 3,5 C -0,1 C 19,3 km/h (3 Bft)
01.03.2024 07:48 4,7 C 3,9 C 92 % 1005,7 hPa 0,0 l/m 12,9 km/h (3 Bft) S-SW 202 0 min 0,0 UV-I 12 W/m 3,5 C -0,1 C 17,7 km/h (3 Bft)
01.03.2024 07:49 4,6 C 3,9 C 92 % 1005,7 hPa 0,0 l/m 12,9 km/h (3 Bft) SW 225 0 min 0,0 UV-I 12 W/m 3,4 C -0,2 C 19,3 km/h (3 Bft)
01.03.2024 07:50 4,6 C 3,9 C 92 % 1005,7 hPa 0,0 l/m 16,1 km/h (3 Bft) S-SW 202 0 min 0,0 UV-I 12 W/m 3,4 C -2,0 C 20,9 km/h (4 Bft)
01.03.2024 07:51 4,6 C 3,9 C 92 % 1005,8 hPa 0,0 l/m 14,5 km/h (3 Bft) S-SW 202 0 min 0,0 UV-I 14 W/m 3,4 C -1,1 C 19,3 km/h (3 Bft)
01.03.2024 07:54 4,6 C 3,9 C 92 % 1005,8 hPa 0,0 l/m 11,6 km/h (2 Bft) SW 222 0 min 0,0 UV-I 12 W/m 3,4 C 0,5 C 19,3 km/h (3 Bft)
01.03.2024 07:57 4,5 C 3,9 C 92 % 1005,9 hPa 0,0 l/m 14,0 km/h (3 Bft) S 186 0 min 0,0 UV-I 12 W/m 3,3 C -1,0 C 24,1 km/h (4 Bft)
01.03.2024 08:00 4,4 C 3,9 C 92 % 1006,0 hPa 0,0 l/m 13,3 km/h (3 Bft) S 188 0 min 0,0 UV-I 16 W/m 3,2 C -0,7 C 20,9 km/h (4 Bft)
01.03.2024 08:03 4,4 C 3,9 C 92 % 1006,0 hPa 0,0 l/m 14,2 km/h (3 Bft) SW 230 0 min 0,0 UV-I 20 W/m 3,2 C -1,2 C 22,5 km/h (4 Bft)
01.03.2024 08:06 4,4 C 3,9 C 92 % 1006,1 hPa 0,0 l/m 15,8 km/h (3 Bft) S-SW 202 0 min 0,0 UV-I 24 W/m 3,2 C -2,1 C 22,5 km/h (4 Bft)
01.03.2024 08:09 4,4 C 3,9 C 92 % 1006,2 hPa 0,0 l/m 15,7 km/h (3 Bft) SW 220 0 min 0,0 UV-I 23 W/m 3,2 C -2,0 C 20,9 km/h (4 Bft)
01.03.2024 08:12 4,3 C 3,9 C 92 % 1006,2 hPa 0,0 l/m 11,7 km/h (2 Bft) S-SW 193 0 min 0,0 UV-I 27 W/m 3,1 C 0,1 C 17,7 km/h (3 Bft)
01.03.2024 08:15 4,3 C 3,9 C 91 % 1006,2 hPa 0,0 l/m 12,9 km/h (3 Bft) W-SW 240 0 min 0,0 UV-I 28 W/m 3,0 C -0,6 C 22,5 km/h (4 Bft)
01.03.2024 08:18 4,3 C 3,9 C 92 % 1006,2 hPa 0,0 l/m 10,6 km/h (2 Bft) S-SW 194 0 min 0,0 UV-I 29 W/m 3,1 C 0,9 C 19,3 km/h (3 Bft)
01.03.2024 08:21 4,3 C 3,9 C 91 % 1006,1 hPa 0,0 l/m 11,9 km/h (2 Bft) SW 221 0 min 0,0 UV-I 36 W/m 3,0 C 0,0 C 19,3 km/h (3 Bft)
01.03.2024 08:24 4,3 C 3,9 C 91 % 1006,1 hPa 0,0 l/m 9,1 km/h (2 Bft) SW 216 0 min 0,0 UV-I 46 W/m 3,0 C 2,0 C 14,5 km/h (3 Bft)
01.03.2024 08:27 4,3 C 3,9 C 91 % 1006,1 hPa 0,0 l/m 8,7 km/h (2 Bft) S-SW 208 0 min 0,0 UV-I 48 W/m 3,0 C 2,3 C 16,1 km/h (3 Bft)
01.03.2024 08:30 4,3 C 4,4 C 92 % 1006,3 hPa 0,0 l/m 9,9 km/h (2 Bft) S-SW 197 0 min 0,0 UV-I 57 W/m 3,1 C 1,4 C 20,9 km/h (4 Bft)
01.03.2024 08:33 4,3 C 4,4 C 92 % 1006,1 hPa 0,0 l/m 13,4 km/h (3 Bft) SW 217 0 min 0,0 UV-I 69 W/m 3,1 C -0,9 C 22,5 km/h (4 Bft)
01.03.2024 08:36 4,3 C 4,4 C 92 % 1006,3 hPa 0,0 l/m 15,4 km/h (3 Bft) W-SW 241 0 min 0,0 UV-I 90 W/m 3,1 C -2,0 C 22,5 km/h (4 Bft)
01.03.2024 08:39 4,3 C 4,4 C 92 % 1006,3 hPa 0,0 l/m 13,1 km/h (3 Bft) SW 214 0 min 0,0 UV-I 99 W/m 3,1 C -0,7 C 22,5 km/h (4 Bft)
01.03.2024 08:42 4,2 C 4,4 C 92 % 1006,3 hPa 0,0 l/m 14,2 km/h (3 Bft) S 180 0 min 0,0 UV-I 94 W/m 3,0 C -1,5 C 20,9 km/h (4 Bft)
01.03.2024 08:45 4,2 C 4,4 C 92 % 1006,3 hPa 0,0 l/m 13,8 km/h (3 Bft) S-SW 212 0 min 0,0 UV-I 91 W/m 3,0 C -1,2 C 22,5 km/h (4 Bft)
01.03.2024 08:48 4,2 C 4,4 C 92 % 1006,4 hPa 0,0 l/m 13,4 km/h (3 Bft) S-SW 199 0 min 0,0 UV-I 94 W/m 3,0 C -1,0 C 20,9 km/h (4 Bft)
01.03.2024 08:51 4,3 C 4,4 C 92 % 1006,4 hPa 0,0 l/m 10,9 km/h (2 Bft) S-SW 195 0 min 0,0 UV-I 105 W/m 3,1 C 0,7 C 16,1 km/h (3 Bft)
01.03.2024 08:54 4,3 C 4,4 C 92 % 1006,4 hPa 0,0 l/m 13,2 km/h (3 Bft) SW 223 0 min 0,0 UV-I 107 W/m 3,1 C -0,8 C 19,3 km/h (3 Bft)
01.03.2024 08:57 4,2 C 3,9 C 92 % 1006,3 hPa 0,0 l/m 15,1 km/h (3 Bft) S-SW 194 0 min 0,0 UV-I 72 W/m 3,0 C -1,9 C 20,9 km/h (4 Bft)
01.03.2024 09:00 4,2 C 3,9 C 92 % 1006,5 hPa 0,0 l/m 13,4 km/h (3 Bft) S-SW 205 0 min 0,0 UV-I 69 W/m 3,0 C -1,0 C 19,3 km/h (3 Bft)
01.03.2024 09:03 4,2 C 3,9 C 92 % 1006,5 hPa 0,0 l/m 13,1 km/h (3 Bft) S 186 0 min 0,0 UV-I 62 W/m 3,0 C -0,8 C 20,9 km/h (4 Bft)
01.03.2024 09:06 4,2 C 3,9 C 92 % 1006,4 hPa 0,0 l/m 13,9 km/h (3 Bft) S 188 0 min 0,0 UV-I 59 W/m 3,0 C -1,3 C 22,5 km/h (4 Bft)
01.03.2024 09:09 4,2 C 3,9 C 92 % 1006,6 hPa 0,0 l/m 12,9 km/h (3 Bft) S-SW 193 0 min 0,0 UV-I 50 W/m 3,0 C -0,7 C 22,5 km/h (4 Bft)
01.03.2024 09:12 4,2 C 3,9 C 92 % 1006,5 hPa 0,0 l/m 13,3 km/h (3 Bft) S-SW 198 0 min 0,0 UV-I 45 W/m 3,0 C -1,0 C 19,3 km/h (3 Bft)
01.03.2024 09:15 4,1 C 3,9 C 92 % 1006,5 hPa 0,0 l/m 13,4 km/h (3 Bft) SW 219 0 min 0,0 UV-I 54 W/m 2,9 C -1,1 C 17,7 km/h (3 Bft)
01.03.2024 09:18 4,1 C 4,4 C 92 % 1006,5 hPa 0,0 l/m 12,0 km/h (2 Bft) SW 214 0 min 0,2 UV-I 88 W/m 2,9 C -0,3 C 16,1 km/h (3 Bft)
01.03.2024 09:21 4,1 C 4,4 C 92 % 1006,5 hPa 0,0 l/m 12,7 km/h (3 Bft) SW 222 0 min 0,2 UV-I 92 W/m 2,9 C -0,7 C 19,3 km/h (3 Bft)
01.03.2024 09:24 4,1 C 3,9 C 92 % 1006,5 hPa 0,0 l/m 11,5 km/h (2 Bft) SW 228 0 min 0,0 UV-I 63 W/m 2,9 C 0,0 C 19,3 km/h (3 Bft)
01.03.2024 09:27 4,1 C 3,9 C 92 % 1006,5 hPa 0,0 l/m 13,2 km/h (3 Bft) W-SW 238 0 min 0,0 UV-I 61 W/m 2,9 C -1,0 C 22,5 km/h (4 Bft)
01.03.2024 09:30 4,0 C 3,9 C 92 % 1006,6 hPa 0,0 l/m 11,3 km/h (2 Bft) S-SW 203 0 min 0,0 UV-I 64 W/m 2,8 C 0,1 C 19,3 km/h (3 Bft)
01.03.2024 09:33 4,1 C 3,9 C 92 % 1006,6 hPa 0,0 l/m 11,3 km/h (2 Bft) SW 218 0 min 0,0 UV-I 56 W/m 2,9 C 0,2 C 17,7 km/h (3 Bft)
01.03.2024 09:36 4,1 C 3,9 C 92 % 1006,7 hPa 0,0 l/m 14,4 km/h (3 Bft) S 183 0 min 0,0 UV-I 59 W/m 2,9 C -1,7 C 19,3 km/h (3 Bft)
01.03.2024 09:39 4,1 C 3,9 C 92 % 1006,6 hPa 0,0 l/m 14,0 km/h (3 Bft) S-SW 202 0 min 0,0 UV-I 74 W/m 2,9 C -1,5 C 20,9 km/h (4 Bft)
01.03.2024 09:42 4,1 C 3,9 C 92 % 1006,7 hPa 0,0 l/m 14,8 km/h (3 Bft) S-SO 166 0 min 0,0 UV-I 62 W/m 2,9 C -1,9 C 20,9 km/h (4 Bft)
01.03.2024 09:45 4,1 C 3,9 C 92 % 1006,8 hPa 0,2 l/m 10,5 km/h (2 Bft) SW 215 0 min 0,0 UV-I 55 W/m 2,9 C 0,7 C 17,7 km/h (3 Bft)
01.03.2024 09:48 4,1 C 3,9 C 91 % 1006,8 hPa 0,0 l/m 16,7 km/h (3 Bft) SW 214 0 min 0,0 UV-I 51 W/m 2,8 C -2,9 C 29,0 km/h (5 Bft)
01.03.2024 09:51 3,9 C 3,3 C 91 % 1006,8 hPa 0,0 l/m 21,8 km/h (4 Bft) S-SW 194 0 min 0,0 UV-I 49 W/m 2,6 C -5,3 C 27,4 km/h (4 Bft)
01.03.2024 09:54 3,9 C 3,9 C 91 % 1006,8 hPa 0,0 l/m 17,7 km/h (3 Bft) S 171 0 min 0,1 UV-I 90 W/m 2,6 C -3,6 C 30,6 km/h (5 Bft)
01.03.2024 09:57 3,9 C 3,9 C 91 % 1006,8 hPa 0,0 l/m 15,1 km/h (3 Bft) S-SO 165 0 min 0,6 UV-I 138 W/m 2,6 C -2,3 C 24,1 km/h (4 Bft)
01.03.2024 10:00 4,1 C 4,4 C 92 % 1006,8 hPa 0,0 l/m 13,1 km/h (3 Bft) S 184 0 min 0,8 UV-I 199 W/m 2,9 C -1,0 C 25,7 km/h (4 Bft)
01.03.2024 10:03 4,3 C 5,0 C 91 % 1006,9 hPa 0,0 l/m 13,3 km/h (3 Bft) S 180 0 min 0,8 UV-I 183 W/m 3,0 C -0,8 C 24,1 km/h (4 Bft)
01.03.2024 10:06 4,2 C 4,4 C 91 % 1006,8 hPa 0,0 l/m 16,8 km/h (3 Bft) S-SO 168 0 min 0,4 UV-I 133 W/m 2,9 C -2,8 C 30,6 km/h (5 Bft)
01.03.2024 10:09 4,1 C 3,9 C 91 % 1006,9 hPa 0,0 l/m 11,5 km/h (2 Bft) S 186 0 min 0,0 UV-I 78 W/m 2,8 C 0,0 C 22,5 km/h (4 Bft)
01.03.2024 10:12 4,1 C 3,9 C 90 % 1007,0 hPa 0,0 l/m 15,4 km/h (3 Bft) S 188 0 min 0,0 UV-I 63 W/m 2,6 C -2,2 C 25,7 km/h (4 Bft)
01.03.2024 10:15 4,1 C 3,9 C 90 % 1007,0 hPa 0,0 l/m 12,6 km/h (3 Bft) SW 219 0 min 0,0 UV-I 70 W/m 2,6 C -0,7 C 19,3 km/h (3 Bft)
01.03.2024 10:18 3,9 C 3,9 C 90 % 1007,0 hPa 0,0 l/m 18,6 km/h (3 Bft) S-SW 198 0 min 0,0 UV-I 60 W/m 2,4 C -4,0 C 25,7 km/h (4 Bft)
01.03.2024 10:21 3,8 C 3,3 C 90 % 1007,0 hPa 0,0 l/m 18,2 km/h (3 Bft) S-SW 199 0 min 0,0 UV-I 64 W/m 2,3 C -3,9 C 25,7 km/h (4 Bft)
01.03.2024 10:24 3,7 C 3,3 C 90 % 1007,1 hPa 0,0 l/m 15,8 km/h (3 Bft) S 188 0 min 0,0 UV-I 52 W/m 2,2 C -2,9 C 25,7 km/h (4 Bft)
01.03.2024 10:27 3,7 C 3,3 C 90 % 1007,0 hPa 0,0 l/m 17,1 km/h (3 Bft) S-SO 166 0 min 0,0 UV-I 59 W/m 2,2 C -3,6 C 27,4 km/h (4 Bft)
01.03.2024 10:30 3,7 C 3,3 C 90 % 1007,0 hPa 0,0 l/m 12,9 km/h (3 Bft) S 187 0 min 0,1 UV-I 95 W/m 2,2 C -1,3 C 19,3 km/h (3 Bft)
01.03.2024 10:33 3,7 C 3,9 C 91 % 1007,0 hPa 0,0 l/m 11,9 km/h (2 Bft) S-SW 193 0 min 0,0 UV-I 86 W/m 2,4 C -0,7 C 19,3 km/h (3 Bft)
01.03.2024 10:36 3,7 C 3,3 C 90 % 1007,1 hPa 0,0 l/m 18,8 km/h (3 Bft) S-SO 153 0 min 0,0 UV-I 84 W/m 2,2 C -4,3 C 35,4 km/h (5 Bft)
01.03.2024 10:39 3,6 C 3,3 C 90 % 1007,1 hPa 0,0 l/m 19,6 km/h (3 Bft) S-SO 157 0 min 0,3 UV-I 110 W/m 2,1 C -4,8 C 33,8 km/h (5 Bft)
01.03.2024 10:42 3,6 C 3,9 C 90 % 1007,2 hPa 0,0 l/m 15,3 km/h (3 Bft) S 182 0 min 0,1 UV-I 98 W/m 2,1 C -2,8 C 25,7 km/h (4 Bft)
01.03.2024 10:45 3,7 C 3,3 C 89 % 1007,3 hPa 0,0 l/m 18,2 km/h (3 Bft) S 182 0 min 0,0 UV-I 84 W/m 2,1 C -4,1 C 37,0 km/h (5 Bft)
01.03.2024 10:48 3,7 C 3,3 C 89 % 1007,2 hPa 0,0 l/m 13,0 km/h (3 Bft) S 186 0 min 0,0 UV-I 83 W/m 2,1 C -1,4 C 24,1 km/h (4 Bft)
01.03.2024 10:51 3,7 C 3,3 C 89 % 1007,1 hPa 0,0 l/m 16,3 km/h (3 Bft) S-SO 162 0 min 0,0 UV-I 84 W/m 2,1 C -3,2 C 27,4 km/h (4 Bft)
01.03.2024 10:54 3,6 C 3,3 C 89 % 1007,2 hPa 0,0 l/m 20,0 km/h (4 Bft) SO 136 0 min 0,0 UV-I 88 W/m 2,0 C -5,0 C 32,2 km/h (5 Bft)
01.03.2024 10:57 3,6 C 3,3 C 89 % 1007,0 hPa 0,0 l/m 17,9 km/h (3 Bft) S-SO 167 0 min 0,0 UV-I 94 W/m 2,0 C -4,1 C 25,7 km/h (4 Bft)
01.03.2024 11:00 3,7 C 3,3 C 89 % 1007,2 hPa 0,0 l/m 19,0 km/h (3 Bft) S 185 0 min 0,1 UV-I 103 W/m 2,1 C -4,4 C 29,0 km/h (5 Bft)
01.03.2024 11:03 3,6 C 3,9 C 89 % 1007,1 hPa 0,0 l/m 16,1 km/h (3 Bft) SO 136 0 min 0,0 UV-I 91 W/m 2,0 C -3,2 C 30,6 km/h (5 Bft)
01.03.2024 11:06 3,7 C 3,9 C 89 % 1007,1 hPa 0,0 l/m 13,2 km/h (3 Bft) S-SO 153 0 min 0,1 UV-I 98 W/m 2,1 C -1,5 C 22,5 km/h (4 Bft)
01.03.2024 11:09 3,7 C 3,9 C 89 % 1006,9 hPa 0,0 l/m 16,5 km/h (3 Bft) S 171 0 min 0,2 UV-I 106 W/m 2,1 C -3,3 C 30,6 km/h (5 Bft)
01.03.2024 11:12 3,6 C 3,9 C 89 % 1007,0 hPa 0,0 l/m 18,0 km/h (3 Bft) S 171 0 min 0,6 UV-I 118 W/m 2,0 C -4,1 C 32,2 km/h (5 Bft)
01.03.2024 11:15 3,7 C 3,9 C 89 % 1006,8 hPa 0,0 l/m 17,5 km/h (3 Bft) S-SO 163 0 min 0,6 UV-I 119 W/m 2,1 C -3,8 C 32,2 km/h (5 Bft)
01.03.2024 11:18 3,7 C 4,4 C 89 % 1006,9 hPa 0,0 l/m 17,2 km/h (3 Bft) S 175 0 min 0,9 UV-I 198 W/m 2,1 C -3,6 C 25,7 km/h (4 Bft)
01.03.2024 11:21 3,9 C 5,0 C 89 % 1006,9 hPa 0,0 l/m 15,0 km/h (3 Bft) S-SO 161 0 min 1,0 UV-I 227 W/m 2,3 C -2,3 C 22,5 km/h (4 Bft)
01.03.2024 11:24 4,1 C 5,0 C 89 % 1006,9 hPa 0,0 l/m 12,6 km/h (3 Bft) S 171 0 min 0,7 UV-I 150 W/m 2,5 C -0,7 C 24,1 km/h (4 Bft)
01.03.2024 11:27 4,0 C 5,0 C 88 % 1006,8 hPa 0,0 l/m 13,4 km/h (3 Bft) S-SO 161 0 min 0,7 UV-I 142 W/m 2,2 C -1,2 C 20,9 km/h (4 Bft)
01.03.2024 11:30 4,0 C 4,4 C 88 % 1006,8 hPa 0,0 l/m 12,9 km/h (3 Bft) S-SO 150 0 min 0,9 UV-I 159 W/m 2,2 C -1,0 C 24,1 km/h (4 Bft)
01.03.2024 11:33 4,1 C 4,4 C 87 % 1006,7 hPa 0,0 l/m 18,6 km/h (3 Bft) S-SO 162 0 min 0,6 UV-I 112 W/m 2,1 C -3,7 C 30,6 km/h (5 Bft)
01.03.2024 11:36 4,1 C 4,4 C 87 % 1006,8 hPa 0,0 l/m 15,7 km/h (3 Bft) S 182 0 min 0,6 UV-I 117 W/m 2,1 C -2,4 C 24,1 km/h (4 Bft)
01.03.2024 11:39 4,1 C 4,4 C 87 % 1006,7 hPa 0,0 l/m 17,8 km/h (3 Bft) S 187 0 min 0,7 UV-I 124 W/m 2,1 C -3,4 C 27,4 km/h (4 Bft)
01.03.2024 11:42 4,0 C 4,4 C 87 % 1006,8 hPa 0,0 l/m 19,4 km/h (3 Bft) S-SO 158 0 min 0,6 UV-I 114 W/m 2,0 C -4,2 C 29,0 km/h (5 Bft)
01.03.2024 11:45 4,0 C 4,4 C 87 % 1006,8 hPa 0,0 l/m 15,9 km/h (3 Bft) S-SW 198 0 min 0,6 UV-I 104 W/m 2,0 C -2,6 C 32,2 km/h (5 Bft)
01.03.2024 11:48 4,0 C 4,4 C 87 % 1006,8 hPa 0,0 l/m 18,2 km/h (3 Bft) S-SO 163 0 min 0,8 UV-I 143 W/m 2,0 C -3,7 C 43,5 km/h (6 Bft)
01.03.2024 11:51 4,1 C 5,0 C 87 % 1006,7 hPa 0,0 l/m 25,0 km/h (4 Bft) S-SO 164 0 min 1,2 UV-I 207 W/m 2,1 C -6,2 C 40,2 km/h (6 Bft)
01.03.2024 11:54 4,2 C 5,6 C 86 % 1006,6 hPa 0,0 l/m 22,7 km/h (4 Bft) S-SW 200 0 min 1,3 UV-I 249 W/m 2,1 C -5,2 C 41,8 km/h (6 Bft)
01.03.2024 11:57 4,4 C 6,7 C 86 % 1006,7 hPa 0,0 l/m 20,9 km/h (4 Bft) S-SW 192 3 min 1,3 UV-I 291 W/m 2,3 C -4,3 C 35,4 km/h (5 Bft)
01.03.2024 12:00 4,4 C 6,1 C 85 % 1006,5 hPa 0,0 l/m 20,3 km/h (4 Bft) S 174 0 min 1,1 UV-I 232 W/m 2,1 C -4,1 C 30,6 km/h (5 Bft)
01.03.2024 12:03 4,5 C 5,6 C 85 % 1006,6 hPa 0,0 l/m 19,1 km/h (3 Bft) SO 146 0 min 1,1 UV-I 229 W/m 2,2 C -3,4 C 37,0 km/h (5 Bft)
01.03.2024 12:06 4,6 C 6,7 C 86 % 1006,6 hPa 0,0 l/m 16,7 km/h (3 Bft) S-SO 157 0 min 1,2 UV-I 264 W/m 2,5 C -2,3 C 29,0 km/h (5 Bft)
01.03.2024 12:09 4,7 C 7,8 C 85 % 1006,4 hPa 0,0 l/m 17,4 km/h (3 Bft) SW 221 3 min 1,3 UV-I 392 W/m 2,4 C -2,5 C 32,2 km/h (5 Bft)
01.03.2024 12:12 4,7 C 6,1 C 85 % 1006,4 hPa 0,0 l/m 16,7 km/h (3 Bft) S-SO 163 0 min 1,0 UV-I 231 W/m 2,4 C -2,1 C 27,4 km/h (4 Bft)
01.03.2024 12:15 4,6 C 5,6 C 85 % 1006,3 hPa 0,0 l/m 18,5 km/h (3 Bft) S 182 0 min 0,9 UV-I 192 W/m 2,3 C -3,1 C 35,4 km/h (5 Bft)
01.03.2024 12:18 4,6 C 5,6 C 85 % 1006,5 hPa 0,0 l/m 17,4 km/h (3 Bft) S-SO 155 0 min 0,9 UV-I 204 W/m 2,3 C -2,6 C 27,4 km/h (4 Bft)
01.03.2024 12:21 4,6 C 6,1 C 85 % 1006,4 hPa 0,0 l/m 17,9 km/h (3 Bft) SO 146 0 min 1,2 UV-I 290 W/m 2,3 C -2,8 C 29,0 km/h (5 Bft)
01.03.2024 12:24 4,6 C 6,1 C 84 % 1006,5 hPa 0,0 l/m 15,5 km/h (3 Bft) S 182 0 min 1,1 UV-I 286 W/m 2,1 C -1,7 C 29,0 km/h (5 Bft)
01.03.2024 12:27 4,6 C 5,6 C 84 % 1006,4 hPa 0,0 l/m 13,2 km/h (3 Bft) S-SO 148 0 min 0,9 UV-I 180 W/m 2,1 C -0,4 C 27,4 km/h (4 Bft)
01.03.2024 12:30 4,8 C 6,1 C 85 % 1006,3 hPa 0,0 l/m 14,0 km/h (3 Bft) S 177 0 min 1,0 UV-I 240 W/m 2,5 C -0,6 C 27,4 km/h (4 Bft)
01.03.2024 12:33 4,7 C 6,7 C 84 % 1006,3 hPa 0,0 l/m 22,0 km/h (4 Bft) S 178 0 min 1,1 UV-I 267 W/m 2,2 C -4,3 C 33,8 km/h (5 Bft)
01.03.2024 12:36 4,7 C 6,1 C 84 % 1006,4 hPa 0,0 l/m 18,0 km/h (3 Bft) S-SO 164 0 min 1,0 UV-I 213 W/m 2,2 C -2,7 C 33,8 km/h (5 Bft)
01.03.2024 12:39 4,7 C 6,1 C 84 % 1006,2 hPa 0,0 l/m 17,4 km/h (3 Bft) S-SO 156 0 min 1,0 UV-I 231 W/m 2,2 C -2,5 C 25,7 km/h (4 Bft)
01.03.2024 12:42 4,8 C 6,7 C 83 % 1006,1 hPa 0,0 l/m 22,9 km/h (4 Bft) S-SO 168 0 min 1,3 UV-I 292 W/m 2,2 C -4,5 C 35,4 km/h (5 Bft)
01.03.2024 12:45 4,9 C 8,3 C 84 % 1006,0 hPa 0,0 l/m 17,6 km/h (3 Bft) SO 136 3 min 1,6 UV-I 319 W/m 2,4 C -2,3 C 35,4 km/h (5 Bft)
01.03.2024 12:48 5,2 C 9,4 C 83 % 1006,0 hPa 0,0 l/m 17,3 km/h (3 Bft) S 189 3 min 1,6 UV-I 414 W/m 2,6 C -1,8 C 27,4 km/h (4 Bft)
01.03.2024 12:51 5,2 C 10,0 C 82 % 1005,9 hPa 0,0 l/m 17,1 km/h (3 Bft) S-SO 165 3 min 1,6 UV-I 428 W/m 2,4 C -1,7 C 33,8 km/h (5 Bft)
01.03.2024 12:54 5,1 C 8,9 C 81 % 1005,9 hPa 0,0 l/m 24,2 km/h (4 Bft) S 191 3 min 1,6 UV-I 408 W/m 2,1 C -4,6 C 37,0 km/h (5 Bft)
01.03.2024 12:57 5,1 C 8,3 C 82 % 1005,8 hPa 0,0 l/m 17,9 km/h (3 Bft) S-SO 155 3 min 1,4 UV-I 327 W/m 2,3 C -2,2 C 33,8 km/h (5 Bft)
01.03.2024 13:00 5,1 C 8,3 C 82 % 1005,8 hPa 0,0 l/m 17,6 km/h (3 Bft) S-SO 154 3 min 1,5 UV-I 360 W/m 2,3 C -2,0 C 24,1 km/h (4 Bft)
01.03.2024 13:03 5,2 C 8,9 C 82 % 1005,7 hPa 0,0 l/m 14,7 km/h (3 Bft) SO 133 3 min 1,5 UV-I 331 W/m 2,4 C -0,5 C 22,5 km/h (4 Bft)
01.03.2024 13:06 5,2 C 8,9 C 82 % 1005,8 hPa 0,0 l/m 13,7 km/h (3 Bft) S-SO 161 3 min 1,5 UV-I 352 W/m 2,4 C 0,0 C 19,3 km/h (3 Bft)
01.03.2024 13:09 5,4 C 8,9 C 82 % 1005,8 hPa 0,0 l/m 15,7 km/h (3 Bft) SO 140 3 min 1,5 UV-I 375 W/m 2,6 C -0,8 C 25,7 km/h (4 Bft)
01.03.2024 13:12 5,4 C 8,9 C 81 % 1005,9 hPa 0,0 l/m 20,9 km/h (4 Bft) SO 132 3 min 1,4 UV-I 356 W/m 2,4 C -3,0 C 38,6 km/h (5 Bft)
01.03.2024 13:15 5,4 C 8,3 C 81 % 1006,0 hPa 0,0 l/m 16,4 km/h (3 Bft) S 179 3 min 1,2 UV-I 298 W/m 2,4 C -1,1 C 29,0 km/h (5 Bft)
01.03.2024 13:18 5,4 C 7,2 C 81 % 1005,8 hPa 0,0 l/m 14,6 km/h (3 Bft) SO 144 0 min 1,2 UV-I 273 W/m 2,4 C -0,2 C 24,1 km/h (4 Bft)
01.03.2024 13:21 5,6 C 8,3 C 81 % 1005,8 hPa 0,0 l/m 13,3 km/h (3 Bft) SO 137 3 min 1,3 UV-I 321 W/m 2,6 C 0,7 C 25,7 km/h (4 Bft)
01.03.2024 13:24 5,7 C 8,9 C 81 % 1005,8 hPa 0,0 l/m 12,2 km/h (2 Bft) S 169 3 min 1,4 UV-I 331 W/m 2,7 C 1,4 C 24,1 km/h (4 Bft)
01.03.2024 13:27 5,8 C 8,3 C 81 % 1005,9 hPa 0,0 l/m 12,7 km/h (3 Bft) S-SO 158 0 min 1,3 UV-I 271 W/m 2,8 C 1,3 C 24,1 km/h (4 Bft)
01.03.2024 13:30 5,7 C 7,8 C 79 % 1005,8 hPa 0,0 l/m 20,9 km/h (4 Bft) SO 144 3 min 1,3 UV-I 305 W/m 2,3 C -2,6 C 30,6 km/h (5 Bft)
01.03.2024 13:33 5,6 C 8,3 C 79 % 1005,8 hPa 0,0 l/m 20,5 km/h (4 Bft) S-SO 152 3 min 1,3 UV-I 342 W/m 2,3 C -2,6 C 30,6 km/h (5 Bft)
01.03.2024 13:36 5,7 C 8,9 C 79 % 1005,6 hPa 0,0 l/m 17,9 km/h (3 Bft) SO 127 3 min 1,4 UV-I 360 W/m 2,3 C -1,4 C 33,8 km/h (5 Bft)
01.03.2024 13:39 5,7 C 8,9 C 78 % 1005,8 hPa 0,0 l/m 24,4 km/h (4 Bft) SO 140 3 min 1,5 UV-I 398 W/m 2,2 C -3,8 C 32,2 km/h (5 Bft)
01.03.2024 13:42 5,8 C 9,4 C 78 % 1005,8 hPa 0,0 l/m 16,7 km/h (3 Bft) S-SO 158 3 min 1,5 UV-I 381 W/m 2,3 C -0,8 C 24,1 km/h (4 Bft)
01.03.2024 13:45 6,0 C 9,4 C 78 % 1005,9 hPa 0,0 l/m 17,9 km/h (3 Bft) SO 128 3 min 1,4 UV-I 370 W/m 2,5 C -1,0 C 27,4 km/h (4 Bft)
01.03.2024 13:48 5,9 C 8,9 C 76 % 1005,9 hPa 0,0 l/m 19,5 km/h (3 Bft) S 184 3 min 1,4 UV-I 344 W/m 2,0 C -1,8 C 32,2 km/h (5 Bft)
01.03.2024 13:51 5,8 C 8,3 C 77 % 1005,8 hPa 0,0 l/m 20,9 km/h (4 Bft) SO 130 3 min 1,3 UV-I 304 W/m 2,1 C -2,5 C 32,2 km/h (5 Bft)
01.03.2024 13:54 5,9 C 8,9 C 78 % 1005,9 hPa 0,0 l/m 14,4 km/h (3 Bft) S-SO 163 3 min 1,3 UV-I 318 W/m 2,4 C 0,5 C 22,5 km/h (4 Bft)
01.03.2024 13:57 6,0 C 8,9 C 77 % 1006,0 hPa 0,0 l/m 19,5 km/h (3 Bft) S-SO 151 3 min 1,3 UV-I 309 W/m 2,3 C -1,7 C 30,6 km/h (5 Bft)
01.03.2024 14:00 6,1 C 9,4 C 77 % 1005,8 hPa 0,0 l/m 16,0 km/h (3 Bft) SO 131 3 min 1,4 UV-I 351 W/m 2,4 C -0,1 C 30,6 km/h (5 Bft)
01.03.2024 14:03 6,0 C 8,3 C 76 % 1005,8 hPa 0,0 l/m 21,1 km/h (4 Bft) SO 126 3 min 1,3 UV-I 304 W/m 2,1 C -2,3 C 35,4 km/h (5 Bft)
01.03.2024 14:06 6,1 C 8,9 C 77 % 1005,6 hPa 0,0 l/m 16,0 km/h (3 Bft) S-SO 167 3 min 1,3 UV-I 329 W/m 2,4 C -0,1 C 27,4 km/h (4 Bft)
01.03.2024 14:09 6,1 C 8,9 C 76 % 1005,7 hPa 0,0 l/m 18,5 km/h (3 Bft) SO 130 3 min 1,3 UV-I 278 W/m 2,2 C -1,2 C 27,4 km/h (4 Bft)
01.03.2024 14:12 6,1 C 9,4 C 76 % 1005,7 hPa 0,0 l/m 20,5 km/h (4 Bft) SO 135 3 min 1,4 UV-I 358 W/m 2,2 C -1,9 C 35,4 km/h (5 Bft)
01.03.2024 14:15 6,2 C 9,4 C 75 % 1005,6 hPa 0,0 l/m 24,0 km/h (4 Bft) SO 136 3 min 1,4 UV-I 380 W/m 2,1 C -3,0 C 35,4 km/h (5 Bft)
01.03.2024 14:18 6,2 C 8,3 C 74 % 1005,4 hPa 0,0 l/m 24,9 km/h (4 Bft) S 173 3 min 1,4 UV-I 338 W/m 1,9 C -3,3 C 37,0 km/h (5 Bft)
01.03.2024 14:21 6,1 C 7,8 C 73 % 1005,5 hPa 0,0 l/m 20,7 km/h (4 Bft) S-SO 157 3 min 1,2 UV-I 294 W/m 1,6 C -2,0 C 37,0 km/h (5 Bft)
01.03.2024 14:24 6,2 C 7,8 C 74 % 1005,6 hPa 0,0 l/m 16,2 km/h (3 Bft) SO 142 0 min 1,1 UV-I 220 W/m 1,9 C -0,0 C 32,2 km/h (5 Bft)
01.03.2024 14:27 6,2 C 7,2 C 74 % 1005,5 hPa 0,0 l/m 18,6 km/h (3 Bft) S-SO 150 0 min 0,9 UV-I 196 W/m 1,9 C -1,1 C 32,2 km/h (5 Bft)
01.03.2024 14:30 6,1 C 6,7 C 73 % 1005,4 hPa 0,0 l/m 25,2 km/h (4 Bft) S-SO 160 0 min 0,8 UV-I 173 W/m 1,6 C -3,5 C 38,6 km/h (5 Bft)
01.03.2024 14:33 6,1 C 6,7 C 73 % 1005,4 hPa 0,0 l/m 19,1 km/h (3 Bft) SO 127 0 min 0,8 UV-I 167 W/m 1,6 C -1,4 C 27,4 km/h (4 Bft)
01.03.2024 14:36 6,1 C 6,7 C 72 % 1005,3 hPa 0,0 l/m 22,3 km/h (4 Bft) SO 139 0 min 0,8 UV-I 181 W/m 1,4 C -2,6 C 30,6 km/h (5 Bft)
01.03.2024 14:39 6,2 C 6,7 C 72 % 1005,3 hPa 0,0 l/m 20,5 km/h (4 Bft) O 100 0 min 0,8 UV-I 167 W/m 1,5 C -1,8 C 40,2 km/h (6 Bft)
01.03.2024 14:42 6,1 C 6,7 C 72 % 1005,4 hPa 0,0 l/m 20,5 km/h (4 Bft) S-SO 164 0 min 0,7 UV-I 150 W/m 1,4 C -1,9 C 38,6 km/h (5 Bft)
01.03.2024 14:45 6,2 C 6,7 C 71 % 1005,4 hPa 0,0 l/m 16,2 km/h (3 Bft) S 178 0 min 0,7 UV-I 153 W/m 1,3 C -0,0 C 27,4 km/h (4 Bft)
01.03.2024 14:48 6,3 C 6,7 C 73 % 1005,4 hPa 0,0 l/m 14,7 km/h (3 Bft) S 181 0 min 0,7 UV-I 147 W/m 1,8 C 0,8 C 29,0 km/h (5 Bft)
01.03.2024 14:51 6,3 C 6,7 C 72 % 1005,4 hPa 0,0 l/m 16,2 km/h (3 Bft) S 185 0 min 0,6 UV-I 149 W/m 1,6 C 0,1 C 27,4 km/h (4 Bft)
01.03.2024 14:54 6,3 C 6,7 C 72 % 1005,5 hPa 0,0 l/m 18,2 km/h (3 Bft) S 186 0 min 0,7 UV-I 158 W/m 1,6 C -0,8 C 30,6 km/h (5 Bft)
01.03.2024 14:57 6,4 C 7,2 C 72 % 1005,4 hPa 0,0 l/m 11,4 km/h (2 Bft) SO 140 0 min 0,7 UV-I 153 W/m 1,7 C 2,7 C 16,1 km/h (3 Bft)
01.03.2024 15:00 6,4 C 7,2 C 72 % 1005,4 hPa 0,0 l/m 16,3 km/h (3 Bft) SO 134 0 min 0,7 UV-I 167 W/m 1,7 C 0,2 C 25,7 km/h (4 Bft)
01.03.2024 15:03 6,4 C 7,2 C 72 % 1005,1 hPa 0,0 l/m 16,9 km/h (3 Bft) S-SO 148 0 min 0,8 UV-I 199 W/m 1,7 C -0,1 C 25,7 km/h (4 Bft)
01.03.2024 15:06 6,5 C 7,8 C 73 % 1005,1 hPa 0,0 l/m 14,6 km/h (3 Bft) S-SO 160 0 min 0,8 UV-I 182 W/m 2,0 C 1,1 C 22,5 km/h (4 Bft)
01.03.2024 15:09 6,5 C 7,2 C 72 % 1005,1 hPa 0,0 l/m 18,3 km/h (3 Bft) SO 142 0 min 0,7 UV-I 157 W/m 1,8 C -0,6 C 29,0 km/h (5 Bft)
01.03.2024 15:12 6,4 C 6,7 C 72 % 1005,2 hPa 0,0 l/m 18,4 km/h (3 Bft) S-SO 162 0 min 0,7 UV-I 147 W/m 1,7 C -0,7 C 38,6 km/h (5 Bft)
01.03.2024 15:15 6,4 C 6,7 C 72 % 1005,2 hPa 0,0 l/m 20,0 km/h (4 Bft) SO 145 0 min 0,6 UV-I 140 W/m 1,7 C -1,4 C 40,2 km/h (6 Bft)
01.03.2024 15:18 6,4 C 6,7 C 72 % 1005,1 hPa 0,0 l/m 20,5 km/h (4 Bft) S-SO 163 0 min 0,6 UV-I 139 W/m 1,7 C -1,5 C 29,0 km/h (5 Bft)
01.03.2024 15:21 6,4 C 6,7 C 72 % 1005,1 hPa 0,0 l/m 18,6 km/h (3 Bft) SO 139 0 min 0,6 UV-I 131 W/m 1,7 C -0,8 C 29,0 km/h (5 Bft)
01.03.2024 15:24 6,4 C 6,7 C 71 % 1005,0 hPa 0,0 l/m 17,3 km/h (3 Bft) S-SO 163 0 min 0,6 UV-I 123 W/m 1,5 C -0,3 C 29,0 km/h (5 Bft)
01.03.2024 15:27 6,4 C 6,7 C 72 % 1005,0 hPa 0,0 l/m 17,2 km/h (3 Bft) SO 132 0 min 0,6 UV-I 119 W/m 1,7 C -0,2 C 30,6 km/h (5 Bft)
01.03.2024 15:30 6,4 C 6,7 C 72 % 1005,0 hPa 0,0 l/m 15,7 km/h (3 Bft) S 186 0 min 0,6 UV-I 122 W/m 1,7 C 0,4 C 30,6 km/h (5 Bft)
01.03.2024 15:33 6,4 C 6,7 C 72 % 1004,9 hPa 0,0 l/m 16,9 km/h (3 Bft) SO 146 0 min 0,6 UV-I 130 W/m 1,7 C -0,1 C 25,7 km/h (4 Bft)
01.03.2024 15:36 6,4 C 7,2 C 72 % 1004,9 hPa 0,0 l/m 15,3 km/h (3 Bft) SO 137 0 min 0,7 UV-I 145 W/m 1,7 C 0,6 C 24,1 km/h (4 Bft)
01.03.2024 15:39 6,4 C 7,2 C 72 % 1005,0 hPa 0,0 l/m 18,1 km/h (3 Bft) S-SO 157 0 min 0,7 UV-I 145 W/m 1,7 C -0,6 C 27,4 km/h (4 Bft)
01.03.2024 15:42 6,4 C 7,2 C 72 % 1005,1 hPa 0,0 l/m 15,9 km/h (3 Bft) S-SO 150 0 min 0,6 UV-I 138 W/m 1,7 C 0,3 C 24,1 km/h (4 Bft)
01.03.2024 15:45 6,4 C 6,7 C 72 % 1005,0 hPa 0,0 l/m 20,6 km/h (4 Bft) S-SO 157 0 min 0,6 UV-I 120 W/m 1,7 C -1,6 C 32,2 km/h (5 Bft)
01.03.2024 15:48 6,4 C 6,7 C 72 % 1005,0 hPa 0,0 l/m 18,4 km/h (3 Bft) S 190 0 min 0,5 UV-I 121 W/m 1,7 C -0,7 C 29,0 km/h (5 Bft)
01.03.2024 15:51 6,4 C 7,2 C 72 % 1005,0 hPa 0,0 l/m 17,3 km/h (3 Bft) SO 137 0 min 0,6 UV-I 147 W/m 1,7 C -0,3 C 27,4 km/h (4 Bft)
01.03.2024 15:54 6,5 C 7,2 C 72 % 1005,0 hPa 0,0 l/m 19,2 km/h (3 Bft) SO 146 0 min 0,6 UV-I 146 W/m 1,8 C -0,9 C 32,2 km/h (5 Bft)
01.03.2024 15:57 6,5 C 6,7 C 72 % 1005,0 hPa 0,0 l/m 20,9 km/h (4 Bft) S 175 0 min 0,6 UV-I 121 W/m 1,8 C -1,6 C 29,0 km/h (5 Bft)
01.03.2024 16:00 6,4 C 6,7 C 72 % 1005,0 hPa 0,0 l/m 16,3 km/h (3 Bft) S 177 0 min 0,6 UV-I 117 W/m 1,7 C 0,2 C 29,0 km/h (5 Bft)
01.03.2024 16:03 6,4 C 6,7 C 73 % 1004,9 hPa 0,0 l/m 13,9 km/h (3 Bft) SO 129 0 min 0,5 UV-I 100 W/m 1,9 C 1,3 C 22,5 km/h (4 Bft)
01.03.2024 16:06 6,4 C 6,7 C 73 % 1005,0 hPa 0,0 l/m 18,3 km/h (3 Bft) SO 142 0 min 0,2 UV-I 97 W/m 1,9 C -0,7 C 25,7 km/h (4 Bft)
01.03.2024 16:09 6,3 C 6,7 C 74 % 1005,0 hPa 0,0 l/m 13,7 km/h (3 Bft) SO 134 0 min 0,0 UV-I 93 W/m 2,0 C 1,3 C 24,1 km/h (4 Bft)
01.03.2024 16:12 6,4 C 6,7 C 74 % 1005,0 hPa 0,0 l/m 14,7 km/h (3 Bft) SW 227 0 min 0,0 UV-I 92 W/m 2,1 C 0,9 C 19,3 km/h (3 Bft)
01.03.2024 16:15 6,4 C 6,7 C 74 % 1005,1 hPa 0,0 l/m 10,7 km/h (2 Bft) S-SO 158 0 min 0,0 UV-I 85 W/m 2,1 C 3,2 C 17,7 km/h (3 Bft)
01.03.2024 16:18 6,4 C 6,7 C 74 % 1005,0 hPa 0,0 l/m 13,0 km/h (3 Bft) SO 141 0 min 0,0 UV-I 80 W/m 2,1 C 1,8 C 20,9 km/h (4 Bft)
01.03.2024 16:21 6,4 C 6,7 C 74 % 1005,0 hPa 0,0 l/m 11,9 km/h (2 Bft) S-SO 165 0 min 0,0 UV-I 80 W/m 2,1 C 2,4 C 22,5 km/h (4 Bft)
01.03.2024 16:24 6,4 C 6,7 C 74 % 1004,8 hPa 0,0 l/m 13,3 km/h (3 Bft) SO 132 0 min 0,0 UV-I 75 W/m 2,1 C 1,6 C 19,3 km/h (3 Bft)
01.03.2024 16:27 6,4 C 6,7 C 74 % 1004,8 hPa 0,0 l/m 15,2 km/h (3 Bft) S-SO 149 0 min 0,0 UV-I 70 W/m 2,1 C 0,7 C 20,9 km/h (4 Bft)
01.03.2024 16:30 6,4 C 6,7 C 74 % 1004,7 hPa 0,0 l/m 12,4 km/h (3 Bft) SO 125 0 min 0,0 UV-I 81 W/m 2,1 C 2,1 C 17,7 km/h (3 Bft)
01.03.2024 16:33 6,4 C 6,7 C 74 % 1004,9 hPa 0,0 l/m 11,5 km/h (2 Bft) S-SO 165 0 min 0,0 UV-I 88 W/m 2,1 C 2,7 C 20,9 km/h (4 Bft)
01.03.2024 16:36 6,5 C 7,2 C 74 % 1004,8 hPa 0,0 l/m 11,0 km/h (2 Bft) S 172 0 min 0,0 UV-I 118 W/m 2,2 C 3,1 C 17,7 km/h (3 Bft)
01.03.2024 16:39 6,5 C 7,2 C 73 % 1004,7 hPa 0,0 l/m 15,7 km/h (3 Bft) S 182 0 min 0,0 UV-I 106 W/m 2,0 C 0,6 C 24,1 km/h (4 Bft)
01.03.2024 16:42 6,5 C 6,7 C 73 % 1004,8 hPa 0,0 l/m 13,6 km/h (3 Bft) S-SO 154 0 min 0,0 UV-I 111 W/m 2,0 C 1,6 C 19,3 km/h (3 Bft)
01.03.2024 16:45 6,6 C 6,7 C 73 % 1004,7 hPa 0,0 l/m 12,9 km/h (3 Bft) SO 140 0 min 0,0 UV-I 93 W/m 2,1 C 2,1 C 19,3 km/h (3 Bft)
01.03.2024 16:48 6,6 C 6,7 C 73 % 1004,8 hPa 0,0 l/m 13,2 km/h (3 Bft) S 177 0 min 0,0 UV-I 94 W/m 2,1 C 1,9 C 22,5 km/h (4 Bft)
01.03.2024 16:51 6,6 C 6,7 C 73 % 1004,9 hPa 0,0 l/m 12,1 km/h (2 Bft) S 181 0 min 0,0 UV-I 94 W/m 2,1 C 2,5 C 20,9 km/h (4 Bft)
01.03.2024 16:54 6,6 C 6,7 C 73 % 1004,7 hPa 0,0 l/m 12,2 km/h (2 Bft) SO 136 0 min 0,0 UV-I 90 W/m 2,1 C 2,5 C 22,5 km/h (4 Bft)
01.03.2024 16:57 6,6 C 6,7 C 73 % 1004,7 hPa 0,0 l/m 15,3 km/h (3 Bft) SO 130 0 min 0,0 UV-I 90 W/m 2,1 C 0,9 C 24,1 km/h (4 Bft)
01.03.2024 17:00 6,6 C 6,7 C 73 % 1004,6 hPa 0,0 l/m 15,9 km/h (3 Bft) SO 127 0 min 0,0 UV-I 99 W/m 2,1 C 0,6 C 29,0 km/h (5 Bft)
01.03.2024 17:03 6,6 C 6,7 C 73 % 1004,5 hPa 0,0 l/m 13,9 km/h (3 Bft) O-SO 121 0 min 0,0 UV-I 90 W/m 2,1 C 1,6 C 20,9 km/h (4 Bft)
01.03.2024 17:06 6,6 C 6,7 C 73 % 1004,7 hPa 0,0 l/m 14,9 km/h (3 Bft) S 171 0 min 0,0 UV-I 88 W/m 2,1 C 1,1 C 24,1 km/h (4 Bft)
01.03.2024 17:09 6,6 C 6,7 C 73 % 1004,7 hPa 0,0 l/m 14,6 km/h (3 Bft) SO 130 0 min 0,0 UV-I 86 W/m 2,1 C 1,2 C 27,4 km/h (4 Bft)
01.03.2024 17:12 6,5 C 6,7 C 73 % 1004,6 hPa 0,0 l/m 13,8 km/h (3 Bft) SO 139 0 min 0,0 UV-I 79 W/m 2,0 C 1,5 C 22,5 km/h (4 Bft)
01.03.2024 17:15 6,6 C 6,1 C 73 % 1004,6 hPa 0,0 l/m 13,4 km/h (3 Bft) S 172 0 min 0,0 UV-I 67 W/m 2,1 C 1,8 C 22,5 km/h (4 Bft)
01.03.2024 17:18 6,6 C 6,1 C 73 % 1004,6 hPa 0,0 l/m 16,3 km/h (3 Bft) S-SO 158 0 min 0,0 UV-I 60 W/m 2,1 C 0,4 C 27,4 km/h (4 Bft)
01.03.2024 17:21 6,6 C 6,1 C 73 % 1004,5 hPa 0,0 l/m 18,2 km/h (3 Bft) O-SO 115 0 min 0,0 UV-I 54 W/m 2,1 C -0,4 C 29,0 km/h (5 Bft)
01.03.2024 17:24 6,5 C 6,1 C 73 % 1004,6 hPa 0,0 l/m 13,1 km/h (3 Bft) SO 142 0 min 0,0 UV-I 48 W/m 2,0 C 1,9 C 22,5 km/h (4 Bft)
01.03.2024 17:27 6,5 C 6,1 C 74 % 1004,5 hPa 0,0 l/m 13,1 km/h (3 Bft) SO 146 0 min 0,0 UV-I 46 W/m 2,2 C 1,9 C 20,9 km/h (4 Bft)
01.03.2024 17:30 6,5 C 6,1 C 74 % 1004,5 hPa 0,0 l/m 15,2 km/h (3 Bft) SO 134 0 min 0,0 UV-I 48 W/m 2,2 C 0,8 C 27,4 km/h (4 Bft)
01.03.2024 17:33 6,5 C 6,1 C 74 % 1004,5 hPa 0,0 l/m 17,3 km/h (3 Bft) S-SO 154 0 min 0,0 UV-I 49 W/m 2,2 C -0,2 C 24,1 km/h (4 Bft)
01.03.2024 17:36 6,5 C 6,1 C 74 % 1004,5 hPa 0,0 l/m 17,4 km/h (3 Bft) SO 146 0 min 0,0 UV-I 45 W/m 2,2 C -0,2 C 25,7 km/h (4 Bft)
01.03.2024 17:39 6,5 C 6,1 C 75 % 1004,6 hPa 0,0 l/m 11,6 km/h (2 Bft) S-SO 155 0 min 0,0 UV-I 43 W/m 2,4 C 2,7 C 24,1 km/h (4 Bft)
01.03.2024 17:42 6,5 C 6,1 C 75 % 1004,3 hPa 0,0 l/m 16,3 km/h (3 Bft) O-SO 118 0 min 0,0 UV-I 41 W/m 2,4 C 0,3 C 35,4 km/h (5 Bft)
01.03.2024 17:45 6,4 C 6,1 C 75 % 1004,4 hPa 0,0 l/m 20,7 km/h (4 Bft) SO 138 0 min 0,0 UV-I 33 W/m 2,3 C -1,6 C 35,4 km/h (5 Bft)
01.03.2024 17:48 6,4 C 6,1 C 75 % 1004,5 hPa 0,0 l/m 19,5 km/h (3 Bft) O-SO 123 0 min 0,0 UV-I 23 W/m 2,3 C -1,2 C 27,4 km/h (4 Bft)
01.03.2024 17:51 6,4 C 6,1 C 75 % 1004,6 hPa 0,0 l/m 22,0 km/h (4 Bft) S 180 0 min 0,0 UV-I 19 W/m 2,3 C -2,1 C 35,4 km/h (5 Bft)
01.03.2024 17:54 6,4 C 6,1 C 75 % 1004,6 hPa 0,0 l/m 17,7 km/h (3 Bft) S-SW 195 0 min 0,0 UV-I 15 W/m 2,3 C -0,4 C 27,4 km/h (4 Bft)
01.03.2024 17:57 6,4 C 6,1 C 75 % 1004,4 hPa 0,0 l/m 16,6 km/h (3 Bft) O-SO 123 0 min 0,0 UV-I 14 W/m 2,3 C 0,0 C 24,1 km/h (4 Bft)
01.03.2024 18:00 6,3 C 5,6 C 75 % 1004,5 hPa 0,0 l/m 16,6 km/h (3 Bft) SO 143 0 min 0,0 UV-I 13 W/m 2,2 C -0,1 C 24,1 km/h (4 Bft)
01.03.2024 18:03 6,3 C 5,6 C 75 % 1004,6 hPa 0,0 l/m 16,0 km/h (3 Bft) SO 127 0 min 0,0 UV-I 11 W/m 2,2 C 0,2 C 25,7 km/h (4 Bft)
01.03.2024 18:06 6,3 C 6,1 C 75 % 1004,4 hPa 0,0 l/m 20,3 km/h (4 Bft) SO 128 0 min 0,0 UV-I 12 W/m 2,2 C -1,6 C 29,0 km/h (5 Bft)
01.03.2024 18:09 6,4 C 5,6 C 75 % 1004,5 hPa 0,0 l/m 14,2 km/h (3 Bft) S-SO 150 0 min 0,0 UV-I 10 W/m 2,3 C 1,2 C 24,1 km/h (4 Bft)
01.03.2024 18:12 6,3 C 5,6 C 76 % 1004,4 hPa 0,0 l/m 14,0 km/h (3 Bft) O-SO 123 0 min 0,0 UV-I 6 W/m 2,4 C 1,2 C 20,9 km/h (4 Bft)
01.03.2024 18:15 6,3 C 5,6 C 76 % 1004,4 hPa 0,0 l/m 11,2 km/h (2 Bft) SO 144 0 min 0,0 UV-I 3 W/m 2,4 C 2,7 C 19,3 km/h (3 Bft)
01.03.2024 18:18 6,2 C 5,6 C 76 % 1004,4 hPa 0,0 l/m 15,0 km/h (3 Bft) SO 144 0 min 0,0 UV-I 0 W/m 2,3 C 0,5 C 24,1 km/h (4 Bft)
01.03.2024 18:21 6,2 C 5,6 C 76 % 1004,3 hPa 0,0 l/m 18,8 km/h (3 Bft) S-SO 159 0 min 0,0 UV-I 0 W/m 2,3 C -1,2 C 27,4 km/h (4 Bft)
01.03.2024 18:24 6,2 C 5,6 C 76 % 1004,4 hPa 0,0 l/m 16,6 km/h (3 Bft) SO 136 0 min 0,0 UV-I 0 W/m 2,3 C -0,2 C 24,1 km/h (4 Bft)
01.03.2024 18:27 6,2 C 5,6 C 76 % 1004,4 hPa 0,0 l/m 14,4 km/h (3 Bft) SO 138 0 min 0,0 UV-I 0 W/m 2,3 C 0,8 C 27,4 km/h (4 Bft)
01.03.2024 18:30 6,2 C 5,6 C 76 % 1004,4 hPa 0,0 l/m 15,2 km/h (3 Bft) SO 132 0 min 0,0 UV-I 0 W/m 2,3 C 0,4 C 25,7 km/h (4 Bft)
01.03.2024 18:33 6,2 C 5,6 C 76 % 1004,6 hPa 0,0 l/m 15,6 km/h (3 Bft) SO 126 0 min 0,0 UV-I 0 W/m 2,3 C 0,2 C 27,4 km/h (4 Bft)
01.03.2024 18:36 6,2 C 5,6 C 76 % 1004,5 hPa 0,0 l/m 12,7 km/h (3 Bft) S 171 0 min 0,0 UV-I 0 W/m 2,3 C 1,7 C 20,9 km/h (4 Bft)
01.03.2024 18:39 6,2 C 5,6 C 76 % 1004,4 hPa 0,0 l/m 16,9 km/h (3 Bft) S-SO 151 0 min 0,0 UV-I 0 W/m 2,3 C -0,4 C 25,7 km/h (4 Bft)
01.03.2024 18:42 6,2 C 5,6 C 76 % 1004,5 hPa 0,0 l/m 13,2 km/h (3 Bft) O-SO 119 0 min 0,0 UV-I 0 W/m 2,3 C 1,5 C 19,3 km/h (3 Bft)
01.03.2024 18:45 6,2 C 5,6 C 76 % 1004,5 hPa 0,0 l/m 13,9 km/h (3 Bft) O-SO 113 0 min 0,0 UV-I 0 W/m 2,3 C 1,1 C 20,9 km/h (4 Bft)
01.03.2024 18:48 6,2 C 5,6 C 76 % 1004,5 hPa 0,0 l/m 17,6 km/h (3 Bft) S 173 0 min 0,0 UV-I 0 W/m 2,3 C -0,7 C 25,7 km/h (4 Bft)
01.03.2024 18:51 6,2 C 5,6 C 76 % 1004,4 hPa 0,0 l/m 14,0 km/h (3 Bft) SO 125 0 min 0,0 UV-I 0 W/m 2,3 C 1,0 C 24,1 km/h (4 Bft)
01.03.2024 18:54 6,2 C 5,6 C 76 % 1004,4 hPa 0,0 l/m 14,5 km/h (3 Bft) S-SO 147 0 min 0,0 UV-I 0 W/m 2,3 C 0,8 C 25,7 km/h (4 Bft)
01.03.2024 18:57 6,2 C 5,6 C 75 % 1004,4 hPa 0,0 l/m 13,5 km/h (3 Bft) SO 126 0 min 0,0 UV-I 0 W/m 2,1 C 1,3 C 25,7 km/h (4 Bft)
01.03.2024 19:00 6,2 C 5,6 C 75 % 1004,3 hPa 0,0 l/m 14,4 km/h (3 Bft) SO 142 0 min 0,0 UV-I 0 W/m 2,1 C 0,8 C 29,0 km/h (5 Bft)
01.03.2024 19:03 6,2 C 5,6 C 75 % 1004,4 hPa 0,0 l/m 17,6 km/h (3 Bft) SO 127 0 min 0,0 UV-I 0 W/m 2,1 C -0,7 C 25,7 km/h (4 Bft)
01.03.2024 19:06 6,2 C 5,0 C 75 % 1004,3 hPa 0,0 l/m 14,3 km/h (3 Bft) S-SO 149 0 min 0,0 UV-I 0 W/m 2,1 C 0,9 C 29,0 km/h (5 Bft)
01.03.2024 19:09 6,1 C 5,0 C 75 % 1004,3 hPa 0,0 l/m 16,8 km/h (3 Bft) SO 132 0 min 0,0 UV-I 0 W/m 2,0 C -0,4 C 25,7 km/h (4 Bft)
01.03.2024 19:12 6,1 C 5,6 C 75 % 1004,2 hPa 0,0 l/m 15,8 km/h (3 Bft) SO 137 0 min 0,0 UV-I 0 W/m 2,0 C 0,0 C 29,0 km/h (5 Bft)
01.03.2024 19:15 6,1 C 5,6 C 75 % 1004,3 hPa 0,0 l/m 15,6 km/h (3 Bft) SO 144 0 min 0,0 UV-I 0 W/m 2,0 C 0,1 C 27,4 km/h (4 Bft)
01.03.2024 19:18 6,1 C 5,6 C 75 % 1004,3 hPa 0,0 l/m 12,1 km/h (2 Bft) S 169 0 min 0,0 UV-I 0 W/m 2,0 C 2,0 C 20,9 km/h (4 Bft)
01.03.2024 19:21 6,1 C 5,6 C 75 % 1004,3 hPa 0,0 l/m 12,8 km/h (3 Bft) S-SO 155 0 min 0,0 UV-I 0 W/m 2,0 C 1,6 C 19,3 km/h (3 Bft)
01.03.2024 19:24 6,1 C 5,0 C 75 % 1004,3 hPa 0,0 l/m 13,3 km/h (3 Bft) SO 142 0 min 0,0 UV-I 0 W/m 2,0 C 1,3 C 20,9 km/h (4 Bft)
01.03.2024 19:27 6,1 C 5,6 C 75 % 1004,3 hPa 0,0 l/m 10,9 km/h (2 Bft) S-SO 153 0 min 0,0 UV-I 0 W/m 2,0 C 2,7 C 19,3 km/h (3 Bft)
01.03.2024 19:30 6,1 C 5,0 C 75 % 1004,3 hPa 0,0 l/m 12,0 km/h (2 Bft) S-SO 150 0 min 0,0 UV-I 0 W/m 2,0 C 2,0 C 20,9 km/h (4 Bft)
01.03.2024 19:33 6,0 C 5,0 C 75 % 1004,3 hPa 0,0 l/m 14,6 km/h (3 Bft) SO 136 0 min 0,0 UV-I 0 W/m 1,9 C 0,5 C 25,7 km/h (4 Bft)
01.03.2024 19:36 6,0 C 5,0 C 76 % 1004,3 hPa 0,0 l/m 15,3 km/h (3 Bft) S-SO 166 0 min 0,0 UV-I 0 W/m 2,1 C 0,1 C 24,1 km/h (4 Bft)
01.03.2024 19:39 5,9 C 5,0 C 76 % 1004,2 hPa 0,0 l/m 16,1 km/h (3 Bft) S-SO 154 0 min 0,0 UV-I 0 W/m 2,0 C -0,4 C 27,4 km/h (4 Bft)
01.03.2024 19:42 6,0 C 5,0 C 76 % 1004,2 hPa 0,0 l/m 13,5 km/h (3 Bft) S-SO 156 0 min 0,0 UV-I 0 W/m 2,1 C 1,1 C 19,3 km/h (3 Bft)
01.03.2024 19:45 6,0 C 5,0 C 76 % 1004,2 hPa 0,0 l/m 13,6 km/h (3 Bft) SO 139 0 min 0,0 UV-I 0 W/m 2,1 C 1,0 C 19,3 km/h (3 Bft)
01.03.2024 19:48 5,9 C 5,0 C 76 % 1004,2 hPa 0,0 l/m 13,0 km/h (3 Bft) SO 138 0 min 0,0 UV-I 0 W/m 2,0 C 1,2 C 19,3 km/h (3 Bft)
01.03.2024 19:51 5,9 C 5,0 C 76 % 1004,2 hPa 0,0 l/m 13,1 km/h (3 Bft) S 174 0 min 0,0 UV-I 0 W/m 2,0 C 1,2 C 19,3 km/h (3 Bft)
01.03.2024 19:54 5,9 C 5,0 C 76 % 1004,1 hPa 0,0 l/m 9,7 km/h (2 Bft) SO 128 0 min 0,0 UV-I 0 W/m 2,0 C 3,3 C 16,1 km/h (3 Bft)
01.03.2024 19:57 5,9 C 5,0 C 76 % 1004,1 hPa 0,0 l/m 15,5 km/h (3 Bft) SO 144 0 min 0,0 UV-I 0 W/m 2,0 C -0,1 C 25,7 km/h (4 Bft)
01.03.2024 20:00 5,9 C 5,0 C 76 % 1004,0 hPa 0,0 l/m 10,4 km/h (2 Bft) SO 136 0 min 0,0 UV-I 0 W/m 2,0 C 2,8 C 17,7 km/h (3 Bft)
01.03.2024 20:03 5,8 C 5,0 C 77 % 1004,1 hPa 0,0 l/m 12,3 km/h (3 Bft) SO 129 0 min 0,0 UV-I 0 W/m 2,1 C 1,5 C 20,9 km/h (4 Bft)
01.03.2024 20:06 5,8 C 5,0 C 77 % 1004,1 hPa 0,0 l/m 15,6 km/h (3 Bft) SO 141 0 min 0,0 UV-I 0 W/m 2,1 C -0,2 C 27,4 km/h (4 Bft)
01.03.2024 20:09 5,8 C 5,0 C 77 % 1004,1 hPa 0,0 l/m 12,2 km/h (2 Bft) S-SO 157 0 min 0,0 UV-I 0 W/m 2,1 C 1,6 C 22,5 km/h (4 Bft)
01.03.2024 20:12 5,8 C 5,0 C 77 % 1004,2 hPa 0,0 l/m 14,4 km/h (3 Bft) SO 132 0 min 0,0 UV-I 0 W/m 2,1 C 0,3 C 22,5 km/h (4 Bft)
01.03.2024 20:15 5,8 C 5,0 C 77 % 1004,1 hPa 0,0 l/m 13,4 km/h (3 Bft) S-SO 167 0 min 0,0 UV-I 0 W/m 2,1 C 0,9 C 24,1 km/h (4 Bft)
01.03.2024 20:18 5,8 C 5,0 C 77 % 1004,1 hPa 0,0 l/m 11,5 km/h (2 Bft) SO 131 0 min 0,0 UV-I 0 W/m 2,1 C 2,0 C 22,5 km/h (4 Bft)
01.03.2024 20:21 5,8 C 5,0 C 78 % 1004,1 hPa 0,0 l/m 12,4 km/h (3 Bft) S-SO 150 0 min 0,0 UV-I 0 W/m 2,3 C 1,4 C 22,5 km/h (4 Bft)
01.03.2024 20:24 5,7 C 5,0 C 78 % 1004,0 hPa 0,0 l/m 9,8 km/h (2 Bft) S-SO 151 0 min 0,0 UV-I 0 W/m 2,2 C 3,0 C 19,3 km/h (3 Bft)
01.03.2024 20:27 5,7 C 5,0 C 78 % 1004,0 hPa 0,0 l/m 13,4 km/h (3 Bft) SO 136 0 min 0,0 UV-I 0 W/m 2,2 C 0,8 C 20,9 km/h (4 Bft)
01.03.2024 20:30 5,7 C 4,4 C 78 % 1004,0 hPa 0,0 l/m 13,4 km/h (3 Bft) SO 138 0 min 0,0 UV-I 0 W/m 2,2 C 0,8 C 20,9 km/h (4 Bft)
01.03.2024 20:33 5,6 C 4,4 C 78 % 1004,1 hPa 0,0 l/m 12,6 km/h (3 Bft) S-SO 163 0 min 0,0 UV-I 0 W/m 2,1 C 1,1 C 22,5 km/h (4 Bft)
01.03.2024 20:36 5,6 C 5,0 C 78 % 1003,8 hPa 0,0 l/m 13,0 km/h (3 Bft) SO 134 0 min 0,0 UV-I 0 W/m 2,1 C 0,9 C 22,5 km/h (4 Bft)
01.03.2024 20:39 5,5 C 4,4 C 79 % 1003,8 hPa 0,0 l/m 10,0 km/h (2 Bft) S-SO 150 0 min 0,0 UV-I 0 W/m 2,2 C 2,6 C 20,9 km/h (4 Bft)
01.03.2024 20:42 5,4 C 4,4 C 79 % 1003,8 hPa 0,0 l/m 7,3 km/h (2 Bft) SO 137 0 min 0,0 UV-I 0 W/m 2,1 C 4,6 C 14,5 km/h (3 Bft)
01.03.2024 20:45 5,4 C 4,4 C 79 % 1003,8 hPa 0,0 l/m 14,7 km/h (3 Bft) SO 129 0 min 0,0 UV-I 0 W/m 2,1 C -0,3 C 22,5 km/h (4 Bft)
01.03.2024 20:48 5,4 C 4,4 C 79 % 1003,8 hPa 0,0 l/m 13,5 km/h (3 Bft) SO 140 0 min 0,0 UV-I 0 W/m 2,1 C 0,4 C 25,7 km/h (4 Bft)
01.03.2024 20:51 5,4 C 4,4 C 79 % 1003,8 hPa 0,0 l/m 14,3 km/h (3 Bft) SO 137 0 min 0,0 UV-I 0 W/m 2,1 C -0,1 C 24,1 km/h (4 Bft)
01.03.2024 20:54 5,4 C 4,4 C 79 % 1003,8 hPa 0,0 l/m 12,3 km/h (3 Bft) SO 140 0 min 0,0 UV-I 0 W/m 2,1 C 1,0 C 20,9 km/h (4 Bft)
01.03.2024 20:57 5,4 C 4,4 C 79 % 1003,9 hPa 0,0 l/m 12,1 km/h (2 Bft) SO 134 0 min 0,0 UV-I 0 W/m 2,1 C 1,2 C 17,7 km/h (3 Bft)
01.03.2024 21:00 5,4 C 4,4 C 79 % 1003,8 hPa 0,0 l/m 12,0 km/h (2 Bft) SO 129 0 min 0,0 UV-I 0 W/m 2,1 C 1,2 C 19,3 km/h (3 Bft)
01.03.2024 21:03 5,4 C 4,4 C 79 % 1003,8 hPa 0,0 l/m 14,3 km/h (3 Bft) SO 140 0 min 0,0 UV-I 0 W/m 2,1 C -0,1 C 24,1 km/h (4 Bft)
01.03.2024 21:06 5,4 C 4,4 C 79 % 1003,7 hPa 0,0 l/m 12,9 km/h (3 Bft) SO 137 0 min 0,0 UV-I 0 W/m 2,1 C 0,7 C 24,1 km/h (4 Bft)
01.03.2024 21:09 5,4 C 4,4 C 79 % 1003,6 hPa 0,0 l/m 13,3 km/h (3 Bft) SO 129 0 min 0,0 UV-I 0 W/m 2,1 C 0,5 C 19,3 km/h (3 Bft)
01.03.2024 21:12 5,4 C 4,4 C 79 % 1003,6 hPa 0,0 l/m 11,6 km/h (2 Bft) O-SO 118 0 min 0,0 UV-I 0 W/m 2,1 C 1,5 C 22,5 km/h (4 Bft)
01.03.2024 21:15 5,3 C 4,4 C 79 % 1003,6 hPa 0,0 l/m 15,9 km/h (3 Bft) S-SO 153 0 min 0,0 UV-I 0 W/m 2,0 C -1,0 C 22,5 km/h (4 Bft)
01.03.2024 21:18 5,4 C 4,4 C 79 % 1003,7 hPa 0,0 l/m 10,1 km/h (2 Bft) SO 143 0 min 0,0 UV-I 0 W/m 2,1 C 2,4 C 14,5 km/h (3 Bft)
01.03.2024 21:21 5,3 C 4,4 C 79 % 1003,6 hPa 0,0 l/m 9,2 km/h (2 Bft) S-SO 148 0 min 0,0 UV-I 0 W/m 2,0 C 3,0 C 17,7 km/h (3 Bft)
01.03.2024 21:24 5,3 C 4,4 C 79 % 1003,7 hPa 0,0 l/m 11,0 km/h (2 Bft) SO 142 0 min 0,0 UV-I 0 W/m 2,0 C 1,7 C 19,3 km/h (3 Bft)
01.03.2024 21:27 5,3 C 4,4 C 79 % 1003,7 hPa 0,0 l/m 13,6 km/h (3 Bft) SO 127 0 min 0,0 UV-I 0 W/m 2,0 C 0,2 C 33,8 km/h (5 Bft)
01.03.2024 21:30 5,4 C 5,0 C 79 % 1003,7 hPa 0,0 l/m 14,3 km/h (3 Bft) S-SO 163 0 min 0,0 UV-I 0 W/m 2,1 C -0,1 C 25,7 km/h (4 Bft)
01.03.2024 21:33 5,4 C 5,0 C 78 % 1003,7 hPa 0,0 l/m 13,1 km/h (3 Bft) SO 142 0 min 0,0 UV-I 0 W/m 1,9 C 0,6 C 20,9 km/h (4 Bft)
01.03.2024 21:36 5,5 C 5,0 C 79 % 1003,6 hPa 0,0 l/m 11,3 km/h (2 Bft) SO 132 0 min 0,0 UV-I 0 W/m 2,2 C 1,8 C 17,7 km/h (3 Bft)
01.03.2024 21:39 5,5 C 5,0 C 78 % 1003,6 hPa 0,0 l/m 16,5 km/h (3 Bft) S 169 0 min 0,0 UV-I 0 W/m 2,0 C -1,0 C 29,0 km/h (5 Bft)
01.03.2024 21:42 5,6 C 5,0 C 78 % 1003,6 hPa 0,0 l/m 13,5 km/h (3 Bft) SO 128 0 min 0,0 UV-I 0 W/m 2,1 C 0,6 C 20,9 km/h (4 Bft)
01.03.2024 21:45 5,6 C 5,0 C 78 % 1003,6 hPa 0,0 l/m 17,5 km/h (3 Bft) S-SO 148 0 min 0,0 UV-I 0 W/m 2,1 C -1,4 C 29,0 km/h (5 Bft)
01.03.2024 21:48 5,6 C 5,0 C 78 % 1003,5 hPa 0,0 l/m 12,2 km/h (2 Bft) S-SO 149 0 min 0,0 UV-I 0 W/m 2,1 C 1,3 C 19,3 km/h (3 Bft)
01.03.2024 21:51 5,6 C 5,0 C 78 % 1003,6 hPa 0,0 l/m 16,2 km/h (3 Bft) SO 136 0 min 0,0 UV-I 0 W/m 2,1 C -0,8 C 25,7 km/h (4 Bft)
01.03.2024 21:54 5,6 C 5,0 C 78 % 1003,6 hPa 0,0 l/m 16,0 km/h (3 Bft) SO 135 0 min 0,0 UV-I 0 W/m 2,1 C -0,7 C 27,4 km/h (4 Bft)
01.03.2024 21:57 5,6 C 5,0 C 78 % 1003,5 hPa 0,0 l/m 13,5 km/h (3 Bft) S 179 0 min 0,0 UV-I 0 W/m 2,1 C 0,6 C 24,1 km/h (4 Bft)
01.03.2024 22:00 5,6 C 5,0 C 78 % 1003,6 hPa 0,0 l/m 15,9 km/h (3 Bft) SO 131 0 min 0,0 UV-I 0 W/m 2,1 C -0,6 C 30,6 km/h (5 Bft)
01.03.2024 22:03 5,7 C 5,0 C 77 % 1003,4 hPa 0,0 l/m 18,2 km/h (3 Bft) S-SO 161 0 min 0,0 UV-I 0 W/m 2,0 C -1,5 C 27,4 km/h (4 Bft)
01.03.2024 22:06 5,7 C 5,0 C 77 % 1003,5 hPa 0,0 l/m 19,5 km/h (3 Bft) SO 145 0 min 0,0 UV-I 0 W/m 2,0 C -2,1 C 30,6 km/h (5 Bft)
01.03.2024 22:09 5,7 C 5,0 C 77 % 1003,4 hPa 0,0 l/m 15,7 km/h (3 Bft) SO 144 0 min 0,0 UV-I 0 W/m 2,0 C -0,4 C 22,5 km/h (4 Bft)
01.03.2024 22:12 5,7 C 5,0 C 77 % 1003,5 hPa 0,0 l/m 15,5 km/h (3 Bft) SO 136 0 min 0,0 UV-I 0 W/m 2,0 C -0,3 C 27,4 km/h (4 Bft)
01.03.2024 22:15 5,7 C 5,0 C 77 % 1003,5 hPa 0,0 l/m 17,5 km/h (3 Bft) SO 136 0 min 0,0 UV-I 0 W/m 2,0 C -1,2 C 25,7 km/h (4 Bft)
01.03.2024 22:18 5,8 C 5,0 C 77 % 1003,5 hPa 0,0 l/m 14,1 km/h (3 Bft) SO 142 0 min 0,0 UV-I 0 W/m 2,1 C 0,5 C 20,9 km/h (4 Bft)
01.03.2024 22:21 5,8 C 5,0 C 77 % 1003,4 hPa 0,0 l/m 9,9 km/h (2 Bft) S 172 0 min 0,0 UV-I 0 W/m 2,1 C 3,0 C 19,3 km/h (3 Bft)
01.03.2024 22:24 5,7 C 5,0 C 77 % 1003,5 hPa 0,0 l/m 16,1 km/h (3 Bft) SO 146 0 min 0,0 UV-I 0 W/m 2,0 C -0,6 C 27,4 km/h (4 Bft)
01.03.2024 22:27 5,8 C 5,0 C 77 % 1003,4 hPa 0,0 l/m 15,3 km/h (3 Bft) SO 128 0 min 0,0 UV-I 0 W/m 2,1 C -0,1 C 22,5 km/h (4 Bft)
01.03.2024 22:30 5,7 C 5,0 C 77 % 1003,4 hPa 0,0 l/m 15,9 km/h (3 Bft) S-SO 163 0 min 0,0 UV-I 0 W/m 2,0 C -0,5 C 27,4 km/h (4 Bft)
01.03.2024 22:33 5,8 C 5,0 C 77 % 1003,5 hPa 0,0 l/m 16,4 km/h (3 Bft) SO 143 0 min 0,0 UV-I 0 W/m 2,1 C -0,6 C 25,7 km/h (4 Bft)
01.03.2024 22:36 5,8 C 5,0 C 77 % 1003,4 hPa 0,0 l/m 14,3 km/h (3 Bft) S 178 0 min 0,0 UV-I 0 W/m 2,1 C 0,4 C 25,7 km/h (4 Bft)
01.03.2024 22:39 5,8 C 5,6 C 76 % 1003,3 hPa 0,0 l/m 17,4 km/h (3 Bft) S-SO 157 0 min 0,0 UV-I 0 W/m 1,9 C -1,1 C 24,1 km/h (4 Bft)
01.03.2024 22:42 5,8 C 5,6 C 76 % 1003,4 hPa 0,0 l/m 19,2 km/h (3 Bft) S-SO 150 0 min 0,0 UV-I 0 W/m 1,9 C -1,8 C 29,0 km/h (5 Bft)
01.03.2024 22:45 5,8 C 5,6 C 76 % 1003,1 hPa 0,0 l/m 14,8 km/h (3 Bft) S-SO 156 0 min 0,0 UV-I 0 W/m 1,9 C 0,1 C 25,7 km/h (4 Bft)
01.03.2024 22:48 5,8 C 5,6 C 76 % 1003,3 hPa 0,0 l/m 16,0 km/h (3 Bft) SO 126 0 min 0,0 UV-I 0 W/m 1,9 C -0,4 C 32,2 km/h (5 Bft)
01.03.2024 22:51 5,8 C 5,6 C 76 % 1003,1 hPa 0,0 l/m 20,3 km/h (4 Bft) SO 139 0 min 0,0 UV-I 0 W/m 1,9 C -2,3 C 29,0 km/h (5 Bft)
01.03.2024 22:54 5,9 C 5,6 C 76 % 1003,2 hPa 0,0 l/m 17,3 km/h (3 Bft) S-SO 156 0 min 0,0 UV-I 0 W/m 2,0 C -0,9 C 24,1 km/h (4 Bft)
01.03.2024 22:57 5,8 C 5,0 C 76 % 1003,0 hPa 0,0 l/m 11,5 km/h (2 Bft) SO 133 0 min 0,0 UV-I 0 W/m 1,9 C 2,0 C 19,3 km/h (3 Bft)
01.03.2024 23:00 5,9 C 5,6 C 76 % 1003,1 hPa 0,0 l/m 20,9 km/h (4 Bft) S-SO 159 0 min 0,0 UV-I 0 W/m 2,0 C -2,3 C 33,8 km/h (5 Bft)
01.03.2024 23:03 5,9 C 5,0 C 76 % 1003,1 hPa 0,0 l/m 14,7 km/h (3 Bft) SO 146 0 min 0,0 UV-I 0 W/m 2,0 C 0,3 C 30,6 km/h (5 Bft)
01.03.2024 23:06 5,9 C 5,0 C 76 % 1003,1 hPa 0,0 l/m 17,4 km/h (3 Bft) S-SO 150 0 min 0,0 UV-I 0 W/m 2,0 C -0,9 C 30,6 km/h (5 Bft)
01.03.2024 23:09 5,8 C 5,0 C 76 % 1003,1 hPa 0,0 l/m 17,0 km/h (3 Bft) SO 133 0 min 0,0 UV-I 0 W/m 1,9 C -0,9 C 29,0 km/h (5 Bft)
01.03.2024 23:12 5,9 C 5,6 C 76 % 1003,1 hPa 0,0 l/m 20,5 km/h (4 Bft) S-SO 151 0 min 0,0 UV-I 0 W/m 2,0 C -2,2 C 33,8 km/h (5 Bft)
01.03.2024 23:15 5,9 C 5,6 C 76 % 1003,1 hPa 0,0 l/m 17,5 km/h (3 Bft) S-SO 148 0 min 0,0 UV-I 0 W/m 2,0 C -1,0 C 29,0 km/h (5 Bft)
01.03.2024 23:18 5,9 C 5,6 C 76 % 1003,1 hPa 0,0 l/m 16,8 km/h (3 Bft) SO 140 0 min 0,0 UV-I 0 W/m 2,0 C -0,7 C 30,6 km/h (5 Bft)
01.03.2024 23:21 5,9 C 5,6 C 76 % 1002,9 hPa 0,0 l/m 23,9 km/h (4 Bft) SO 143 0 min 0,0 UV-I 0 W/m 2,0 C -3,4 C 35,4 km/h (5 Bft)
01.03.2024 23:24 5,9 C 5,6 C 76 % 1002,9 hPa 0,0 l/m 19,4 km/h (3 Bft) S 169 0 min 0,0 UV-I 0 W/m 2,0 C -1,8 C 40,2 km/h (6 Bft)
01.03.2024 23:27 5,9 C 5,0 C 75 % 1002,8 hPa 0,0 l/m 15,2 km/h (3 Bft) SO 126 0 min 0,0 UV-I 0 W/m 1,8 C 0,1 C 22,5 km/h (4 Bft)
01.03.2024 23:30 5,9 C 5,0 C 76 % 1002,8 hPa 0,0 l/m 14,9 km/h (3 Bft) SO 133 0 min 0,0 UV-I 0 W/m 2,0 C 0,2 C 27,4 km/h (4 Bft)
01.03.2024 23:33 5,8 C 5,0 C 76 % 1002,7 hPa 0,0 l/m 19,7 km/h (3 Bft) S-SO 152 0 min 0,0 UV-I 0 W/m 1,9 C -2,0 C 33,8 km/h (5 Bft)
01.03.2024 23:36 5,8 C 5,0 C 76 % 1002,6 hPa 0,0 l/m 14,6 km/h (3 Bft) S-SO 159 0 min 0,0 UV-I 0 W/m 1,9 C 0,2 C 22,5 km/h (4 Bft)
01.03.2024 23:39 5,8 C 5,0 C 76 % 1002,7 hPa 0,0 l/m 22,1 km/h (4 Bft) S 172 0 min 0,0 UV-I 0 W/m 1,9 C -2,9 C 35,4 km/h (5 Bft)
01.03.2024 23:42 5,7 C 5,0 C 76 % 1002,7 hPa 0,0 l/m 18,6 km/h (3 Bft) SO 124 0 min 0,0 UV-I 0 W/m 1,8 C -1,7 C 32,2 km/h (5 Bft)
01.03.2024 23:45 5,7 C 5,0 C 76 % 1002,8 hPa 0,0 l/m 15,2 km/h (3 Bft) S-SO 150 0 min 0,0 UV-I 0 W/m 1,8 C -0,2 C 29,0 km/h (5 Bft)
01.03.2024 23:48 5,7 C 5,0 C 76 % 1002,8 hPa 0,0 l/m 19,4 km/h (3 Bft) SO 146 0 min 0,0 UV-I 0 W/m 1,8 C -2,0 C 30,6 km/h (5 Bft)
01.03.2024 23:51 5,8 C 5,0 C 76 % 1002,7 hPa 0,0 l/m 17,9 km/h (3 Bft) SO 144 0 min 0,0 UV-I 0 W/m 1,9 C -1,3 C 30,6 km/h (5 Bft)
01.03.2024 23:54 5,8 C 5,0 C 76 % 1002,7 hPa 0,0 l/m 20,0 km/h (4 Bft) S-SO 168 0 min 0,0 UV-I 0 W/m 1,9 C -2,1 C 29,0 km/h (5 Bft)
01.03.2024 23:57 5,8 C 5,0 C 76 % 1002,7 hPa 0,0 l/m 15,7 km/h (3 Bft) S 186 0 min 0,0 UV-I 0 W/m 1,9 C -0,3 C 35,4 km/h (5 Bft)
01.03.2024 23:58 5,8 C 5,0 C 76 % 1002,7 hPa 0,0 l/m 14,5 km/h (3 Bft) SO 135 0 min 0,0 UV-I 0 W/m 1,9 C 0,3 C 20,9 km/h (4 Bft)
01.03.2024 23:59 5,8 C 5,6 C 76 % 1002,8 hPa 0,0 l/m 27,4 km/h (4 Bft) S-SO 157 0 min 0,0 UV-I 0 W/m 1,9 C -4,6 C 38,6 km/h (5 Bft)
_ Min-Zeit 10:27 09:51 14:45 23:36 - 00:33 - - - - - 14:45 11:51 00:33
Minimum _ 3,6 C 3,3 C 71 % 1002,6 hPa - 6,4 km/h (2 Bft) - - - - - 1,3 C -6,2 C 8,0 km/h (2 Bft)
_ Max-Zeit 16:39 12:51 06:25 10:45 06:57 23:59 - - 11:57 12:45 12:51 06:29 00:33 11:48
Maximum _ 6,6 C 10,0 C 92 % 1007,3 hPa 0,2 l/m 27,4 km/h
S-SO (4 Bft)
- - 3 min 1,6 UV-I 428 W/m 4,2 C 5,1 C 43,5 km/h
S-SO (6 Bft)
Durchschnitt _ 5,4 C 5,3 C 83 % 1005,2 hPa #0,4 l/m 15,2 km/h (3 Bft) S - #1:39 h 0,9 UV-I 141 W/m 2,6 C -0,4 C 24,2 km/h (4 Bft)